<?xml version="1.0" encoding="UTF-8" standalone="no" ?>
<gpx xmlns="http://www.topografix.com/GPX/1/1" xmlns:xsi="http://www.w3.org/2001/XMLSchema-instance" xsi:schemaLocation="http://www.topografix.com/GPX/1/1 http://www.topografix.com/GPX/1/1/gpx.xsd" version="1.1" creator="VisuGPX - https://www.visugpx.com">
  <metadata>
    <name>Lot&amp;Bike VTT Circuit Vert 13 Kms 370 D+</name>
  </metadata>
  <trk>
    <name><![CDATA[Lot&Bike VTT Circuit Vert 13 Kms 370 D+]]></name>
    <trkseg>
      <trkpt lat="44.48638" lon="1.84312">
        <ele>107.2</ele>
        <time>2020-06-16T13:43:21Z</time>
      </trkpt>
      <trkpt lat="44.48642" lon="1.84307">
        <ele>107.2</ele>
        <time>2020-06-16T13:43:24Z</time>
      </trkpt>
      <trkpt lat="44.48644" lon="1.84305">
        <ele>107.2</ele>
        <time>2020-06-16T13:43:25Z</time>
      </trkpt>
      <trkpt lat="44.48648" lon="1.84301">
        <ele>107.2</ele>
        <time>2020-06-16T13:43:27Z</time>
      </trkpt>
      <trkpt lat="44.48662" lon="1.84291">
        <ele>107.2</ele>
        <time>2020-06-16T13:43:32Z</time>
      </trkpt>
      <trkpt lat="44.48679" lon="1.84276">
        <ele>107.2</ele>
        <time>2020-06-16T13:43:38Z</time>
      </trkpt>
      <trkpt lat="44.48689" lon="1.84269">
        <ele>107.2</ele>
        <time>2020-06-16T13:43:41Z</time>
      </trkpt>
      <trkpt lat="44.48693" lon="1.84269">
        <ele>107.2</ele>
        <time>2020-06-16T13:43:42Z</time>
      </trkpt>
      <trkpt lat="44.48714" lon="1.84274">
        <ele>107.2</ele>
        <time>2020-06-16T13:43:48Z</time>
      </trkpt>
      <trkpt lat="44.48728" lon="1.84278">
        <ele>107.2</ele>
        <time>2020-06-16T13:43:52Z</time>
      </trkpt>
      <trkpt lat="44.48733" lon="1.84281">
        <ele>107.2</ele>
        <time>2020-06-16T13:43:53Z</time>
      </trkpt>
      <trkpt lat="44.48764" lon="1.84292">
        <ele>107.2</ele>
        <time>2020-06-16T13:44:00Z</time>
      </trkpt>
      <trkpt lat="44.48789" lon="1.84303">
        <ele>107.2</ele>
        <time>2020-06-16T13:44:05Z</time>
      </trkpt>
      <trkpt lat="44.48825" lon="1.8432">
        <ele>107.2</ele>
        <time>2020-06-16T13:44:12Z</time>
      </trkpt>
      <trkpt lat="44.48857" lon="1.84335">
        <ele>107.2</ele>
        <time>2020-06-16T13:44:19Z</time>
      </trkpt>
      <trkpt lat="44.48866" lon="1.8434">
        <ele>107.6</ele>
        <time>2020-06-16T13:44:21Z</time>
      </trkpt>
      <trkpt lat="44.48871" lon="1.84343">
        <ele>108</ele>
        <time>2020-06-16T13:44:22Z</time>
      </trkpt>
      <trkpt lat="44.48875" lon="1.84344">
        <ele>108.4</ele>
        <time>2020-06-16T13:44:23Z</time>
      </trkpt>
      <trkpt lat="44.4888" lon="1.84346">
        <ele>108.8</ele>
        <time>2020-06-16T13:44:24Z</time>
      </trkpt>
      <trkpt lat="44.48884" lon="1.84348">
        <ele>109.2</ele>
        <time>2020-06-16T13:44:25Z</time>
      </trkpt>
      <trkpt lat="44.48921" lon="1.84366">
        <ele>109.2</ele>
        <time>2020-06-16T13:44:33Z</time>
      </trkpt>
      <trkpt lat="44.48952" lon="1.84382">
        <ele>109.2</ele>
        <time>2020-06-16T13:44:40Z</time>
      </trkpt>
      <trkpt lat="44.4898" lon="1.84395">
        <ele>109.2</ele>
        <time>2020-06-16T13:44:46Z</time>
      </trkpt>
      <trkpt lat="44.49009" lon="1.84408">
        <ele>109.2</ele>
        <time>2020-06-16T13:44:52Z</time>
      </trkpt>
      <trkpt lat="44.49014" lon="1.8441">
        <ele>109.2</ele>
        <time>2020-06-16T13:44:53Z</time>
      </trkpt>
      <trkpt lat="44.49028" lon="1.84416">
        <ele>109.2</ele>
        <time>2020-06-16T13:44:56Z</time>
      </trkpt>
      <trkpt lat="44.49048" lon="1.84426">
        <ele>109.2</ele>
        <time>2020-06-16T13:45:00Z</time>
      </trkpt>
      <trkpt lat="44.49071" lon="1.84436">
        <ele>109.6</ele>
        <time>2020-06-16T13:45:05Z</time>
      </trkpt>
      <trkpt lat="44.49076" lon="1.84438">
        <ele>110</ele>
        <time>2020-06-16T13:45:06Z</time>
      </trkpt>
      <trkpt lat="44.49081" lon="1.8444">
        <ele>110.4</ele>
        <time>2020-06-16T13:45:07Z</time>
      </trkpt>
      <trkpt lat="44.49085" lon="1.84442">
        <ele>110.8</ele>
        <time>2020-06-16T13:45:08Z</time>
      </trkpt>
      <trkpt lat="44.4909" lon="1.84444">
        <ele>111.2</ele>
        <time>2020-06-16T13:45:09Z</time>
      </trkpt>
      <trkpt lat="44.49103" lon="1.8445">
        <ele>111.2</ele>
        <time>2020-06-16T13:45:12Z</time>
      </trkpt>
      <trkpt lat="44.49107" lon="1.84453">
        <ele>111.2</ele>
        <time>2020-06-16T13:45:13Z</time>
      </trkpt>
      <trkpt lat="44.49128" lon="1.84472">
        <ele>111.6</ele>
        <time>2020-06-16T13:45:19Z</time>
      </trkpt>
      <trkpt lat="44.49132" lon="1.84475">
        <ele>112</ele>
        <time>2020-06-16T13:45:20Z</time>
      </trkpt>
      <trkpt lat="44.49135" lon="1.84479">
        <ele>112.6</ele>
        <time>2020-06-16T13:45:21Z</time>
      </trkpt>
      <trkpt lat="44.49138" lon="1.84482">
        <ele>113</ele>
        <time>2020-06-16T13:45:22Z</time>
      </trkpt>
      <trkpt lat="44.49141" lon="1.84486">
        <ele>113.4</ele>
        <time>2020-06-16T13:45:23Z</time>
      </trkpt>
      <trkpt lat="44.49146" lon="1.84493">
        <ele>113.4</ele>
        <time>2020-06-16T13:45:25Z</time>
      </trkpt>
      <trkpt lat="44.49151" lon="1.84501">
        <ele>113.8</ele>
        <time>2020-06-16T13:45:27Z</time>
      </trkpt>
      <trkpt lat="44.49153" lon="1.84505">
        <ele>114.2</ele>
        <time>2020-06-16T13:45:28Z</time>
      </trkpt>
      <trkpt lat="44.49156" lon="1.84509">
        <ele>114.6</ele>
        <time>2020-06-16T13:45:29Z</time>
      </trkpt>
      <trkpt lat="44.49158" lon="1.84513">
        <ele>115.2</ele>
        <time>2020-06-16T13:45:30Z</time>
      </trkpt>
      <trkpt lat="44.4916" lon="1.84517">
        <ele>115.6</ele>
        <time>2020-06-16T13:45:31Z</time>
      </trkpt>
      <trkpt lat="44.49162" lon="1.84521">
        <ele>115.6</ele>
        <time>2020-06-16T13:45:32Z</time>
      </trkpt>
      <trkpt lat="44.49167" lon="1.84533">
        <ele>116</ele>
        <time>2020-06-16T13:45:35Z</time>
      </trkpt>
      <trkpt lat="44.49169" lon="1.84538">
        <ele>116.4</ele>
        <time>2020-06-16T13:45:36Z</time>
      </trkpt>
      <trkpt lat="44.4917" lon="1.84542">
        <ele>116.8</ele>
        <time>2020-06-16T13:45:37Z</time>
      </trkpt>
      <trkpt lat="44.49171" lon="1.84546">
        <ele>117.2</ele>
        <time>2020-06-16T13:45:38Z</time>
      </trkpt>
      <trkpt lat="44.49172" lon="1.8455">
        <ele>117.6</ele>
        <time>2020-06-16T13:45:39Z</time>
      </trkpt>
      <trkpt lat="44.49174" lon="1.84562">
        <ele>117.6</ele>
        <time>2020-06-16T13:45:42Z</time>
      </trkpt>
      <trkpt lat="44.49176" lon="1.84569">
        <ele>117.6</ele>
        <time>2020-06-16T13:45:44Z</time>
      </trkpt>
      <trkpt lat="44.49177" lon="1.84573">
        <ele>118</ele>
        <time>2020-06-16T13:45:45Z</time>
      </trkpt>
      <trkpt lat="44.49178" lon="1.84577">
        <ele>118.8</ele>
        <time>2020-06-16T13:45:46Z</time>
      </trkpt>
      <trkpt lat="44.49179" lon="1.84579">
        <ele>119.2</ele>
        <time>2020-06-16T13:45:47Z</time>
      </trkpt>
      <trkpt lat="44.49181" lon="1.84581">
        <ele>119.8</ele>
        <time>2020-06-16T13:45:48Z</time>
      </trkpt>
      <trkpt lat="44.49183" lon="1.84581">
        <ele>119.8</ele>
        <time>2020-06-16T13:45:49Z</time>
      </trkpt>
      <trkpt lat="44.49194" lon="1.84573">
        <ele>119.8</ele>
        <time>2020-06-16T13:45:53Z</time>
      </trkpt>
      <trkpt lat="44.49196" lon="1.8457">
        <ele>120.2</ele>
        <time>2020-06-16T13:45:54Z</time>
      </trkpt>
      <trkpt lat="44.49199" lon="1.84568">
        <ele>120.6</ele>
        <time>2020-06-16T13:45:55Z</time>
      </trkpt>
      <trkpt lat="44.49201" lon="1.84565">
        <ele>121</ele>
        <time>2020-06-16T13:45:56Z</time>
      </trkpt>
      <trkpt lat="44.49204" lon="1.84563">
        <ele>121.4</ele>
        <time>2020-06-16T13:45:57Z</time>
      </trkpt>
      <trkpt lat="44.49207" lon="1.84561">
        <ele>121.8</ele>
        <time>2020-06-16T13:45:58Z</time>
      </trkpt>
      <trkpt lat="44.49217" lon="1.84553">
        <ele>121.8</ele>
        <time>2020-06-16T13:46:02Z</time>
      </trkpt>
      <trkpt lat="44.49219" lon="1.8455">
        <ele>122.2</ele>
        <time>2020-06-16T13:46:03Z</time>
      </trkpt>
      <trkpt lat="44.49222" lon="1.84548">
        <ele>122.6</ele>
        <time>2020-06-16T13:46:04Z</time>
      </trkpt>
      <trkpt lat="44.49224" lon="1.84545">
        <ele>123</ele>
        <time>2020-06-16T13:46:05Z</time>
      </trkpt>
      <trkpt lat="44.49226" lon="1.84543">
        <ele>123.4</ele>
        <time>2020-06-16T13:46:06Z</time>
      </trkpt>
      <trkpt lat="44.49228" lon="1.8454">
        <ele>123.8</ele>
        <time>2020-06-16T13:46:07Z</time>
      </trkpt>
      <trkpt lat="44.49238" lon="1.84531">
        <ele>123.8</ele>
        <time>2020-06-16T13:46:11Z</time>
      </trkpt>
      <trkpt lat="44.4924" lon="1.84529">
        <ele>124.4</ele>
        <time>2020-06-16T13:46:12Z</time>
      </trkpt>
      <trkpt lat="44.49242" lon="1.84527">
        <ele>124.8</ele>
        <time>2020-06-16T13:46:13Z</time>
      </trkpt>
      <trkpt lat="44.49244" lon="1.84524">
        <ele>125.2</ele>
        <time>2020-06-16T13:46:14Z</time>
      </trkpt>
      <trkpt lat="44.49246" lon="1.84521">
        <ele>125.8</ele>
        <time>2020-06-16T13:46:15Z</time>
      </trkpt>
      <trkpt lat="44.49248" lon="1.84519">
        <ele>126.2</ele>
        <time>2020-06-16T13:46:16Z</time>
      </trkpt>
      <trkpt lat="44.49253" lon="1.84511">
        <ele>126.2</ele>
        <time>2020-06-16T13:46:19Z</time>
      </trkpt>
      <trkpt lat="44.49258" lon="1.84503">
        <ele>126.6</ele>
        <time>2020-06-16T13:46:22Z</time>
      </trkpt>
      <trkpt lat="44.4926" lon="1.845">
        <ele>127</ele>
        <time>2020-06-16T13:46:23Z</time>
      </trkpt>
      <trkpt lat="44.49261" lon="1.84498">
        <ele>127.4</ele>
        <time>2020-06-16T13:46:24Z</time>
      </trkpt>
      <trkpt lat="44.49263" lon="1.84496">
        <ele>128</ele>
        <time>2020-06-16T13:46:25Z</time>
      </trkpt>
      <trkpt lat="44.49264" lon="1.84493">
        <ele>128.4</ele>
        <time>2020-06-16T13:46:26Z</time>
      </trkpt>
      <trkpt lat="44.49266" lon="1.8449">
        <ele>128.4</ele>
        <time>2020-06-16T13:46:27Z</time>
      </trkpt>
      <trkpt lat="44.49276" lon="1.84477">
        <ele>128.8</ele>
        <time>2020-06-16T13:46:32Z</time>
      </trkpt>
      <trkpt lat="44.49279" lon="1.84474">
        <ele>129.2</ele>
        <time>2020-06-16T13:46:33Z</time>
      </trkpt>
      <trkpt lat="44.49281" lon="1.84472">
        <ele>129.6</ele>
        <time>2020-06-16T13:46:34Z</time>
      </trkpt>
      <trkpt lat="44.49284" lon="1.84469">
        <ele>130</ele>
        <time>2020-06-16T13:46:35Z</time>
      </trkpt>
      <trkpt lat="44.49285" lon="1.84467">
        <ele>130.4</ele>
        <time>2020-06-16T13:46:36Z</time>
      </trkpt>
      <trkpt lat="44.49294" lon="1.84455">
        <ele>130.8</ele>
        <time>2020-06-16T13:46:41Z</time>
      </trkpt>
      <trkpt lat="44.49295" lon="1.84453">
        <ele>131.2</ele>
        <time>2020-06-16T13:46:42Z</time>
      </trkpt>
      <trkpt lat="44.49297" lon="1.84451">
        <ele>131.6</ele>
        <time>2020-06-16T13:46:43Z</time>
      </trkpt>
      <trkpt lat="44.49299" lon="1.84449">
        <ele>132.2</ele>
        <time>2020-06-16T13:46:44Z</time>
      </trkpt>
      <trkpt lat="44.49301" lon="1.84447">
        <ele>132.6</ele>
        <time>2020-06-16T13:46:45Z</time>
      </trkpt>
      <trkpt lat="44.49307" lon="1.84439">
        <ele>133</ele>
        <time>2020-06-16T13:46:49Z</time>
      </trkpt>
      <trkpt lat="44.49308" lon="1.84436">
        <ele>133.4</ele>
        <time>2020-06-16T13:46:50Z</time>
      </trkpt>
      <trkpt lat="44.4931" lon="1.84434">
        <ele>133.8</ele>
        <time>2020-06-16T13:46:51Z</time>
      </trkpt>
      <trkpt lat="44.49311" lon="1.84431">
        <ele>134.2</ele>
        <time>2020-06-16T13:46:52Z</time>
      </trkpt>
      <trkpt lat="44.49313" lon="1.84429">
        <ele>134.6</ele>
        <time>2020-06-16T13:46:53Z</time>
      </trkpt>
      <trkpt lat="44.4932" lon="1.8442">
        <ele>134.6</ele>
        <time>2020-06-16T13:46:57Z</time>
      </trkpt>
      <trkpt lat="44.49321" lon="1.84419">
        <ele>135</ele>
        <time>2020-06-16T13:46:58Z</time>
      </trkpt>
      <trkpt lat="44.49323" lon="1.84418">
        <ele>135.4</ele>
        <time>2020-06-16T13:46:59Z</time>
      </trkpt>
      <trkpt lat="44.49325" lon="1.84416">
        <ele>135.8</ele>
        <time>2020-06-16T13:47:00Z</time>
      </trkpt>
      <trkpt lat="44.49327" lon="1.84415">
        <ele>136.8</ele>
        <time>2020-06-16T13:47:01Z</time>
      </trkpt>
      <trkpt lat="44.49332" lon="1.84409">
        <ele>136.8</ele>
        <time>2020-06-16T13:47:04Z</time>
      </trkpt>
      <trkpt lat="44.49335" lon="1.84405">
        <ele>137.2</ele>
        <time>2020-06-16T13:47:06Z</time>
      </trkpt>
      <trkpt lat="44.49337" lon="1.84403">
        <ele>137.6</ele>
        <time>2020-06-16T13:47:07Z</time>
      </trkpt>
      <trkpt lat="44.49338" lon="1.84401">
        <ele>138.2</ele>
        <time>2020-06-16T13:47:08Z</time>
      </trkpt>
      <trkpt lat="44.4934" lon="1.84399">
        <ele>138.6</ele>
        <time>2020-06-16T13:47:09Z</time>
      </trkpt>
      <trkpt lat="44.49341" lon="1.84397">
        <ele>139</ele>
        <time>2020-06-16T13:47:10Z</time>
      </trkpt>
      <trkpt lat="44.49347" lon="1.84388">
        <ele>139.4</ele>
        <time>2020-06-16T13:47:14Z</time>
      </trkpt>
      <trkpt lat="44.49349" lon="1.84386">
        <ele>139.8</ele>
        <time>2020-06-16T13:47:15Z</time>
      </trkpt>
      <trkpt lat="44.4935" lon="1.84384">
        <ele>140.4</ele>
        <time>2020-06-16T13:47:16Z</time>
      </trkpt>
      <trkpt lat="44.49351" lon="1.84381">
        <ele>140.8</ele>
        <time>2020-06-16T13:47:17Z</time>
      </trkpt>
      <trkpt lat="44.49352" lon="1.84379">
        <ele>141.2</ele>
        <time>2020-06-16T13:47:18Z</time>
      </trkpt>
      <trkpt lat="44.49354" lon="1.84375">
        <ele>141.2</ele>
        <time>2020-06-16T13:47:20Z</time>
      </trkpt>
      <trkpt lat="44.49357" lon="1.84371">
        <ele>141.6</ele>
        <time>2020-06-16T13:47:22Z</time>
      </trkpt>
      <trkpt lat="44.49358" lon="1.84369">
        <ele>142</ele>
        <time>2020-06-16T13:47:23Z</time>
      </trkpt>
      <trkpt lat="44.4936" lon="1.84367">
        <ele>142.4</ele>
        <time>2020-06-16T13:47:24Z</time>
      </trkpt>
      <trkpt lat="44.49361" lon="1.84365">
        <ele>142.8</ele>
        <time>2020-06-16T13:47:25Z</time>
      </trkpt>
      <trkpt lat="44.49362" lon="1.84363">
        <ele>143.2</ele>
        <time>2020-06-16T13:47:26Z</time>
      </trkpt>
      <trkpt lat="44.49365" lon="1.84358">
        <ele>143.6</ele>
        <time>2020-06-16T13:47:28Z</time>
      </trkpt>
      <trkpt lat="44.49366" lon="1.84356">
        <ele>144.2</ele>
        <time>2020-06-16T13:47:29Z</time>
      </trkpt>
      <trkpt lat="44.49367" lon="1.84354">
        <ele>144.6</ele>
        <time>2020-06-16T13:47:30Z</time>
      </trkpt>
      <trkpt lat="44.49368" lon="1.84352">
        <ele>145</ele>
        <time>2020-06-16T13:47:31Z</time>
      </trkpt>
      <trkpt lat="44.49369" lon="1.8435">
        <ele>145.4</ele>
        <time>2020-06-16T13:47:32Z</time>
      </trkpt>
      <trkpt lat="44.49372" lon="1.84343">
        <ele>145.4</ele>
        <time>2020-06-16T13:47:35Z</time>
      </trkpt>
      <trkpt lat="44.49374" lon="1.84341">
        <ele>145.8</ele>
        <time>2020-06-16T13:47:36Z</time>
      </trkpt>
      <trkpt lat="44.49375" lon="1.84339">
        <ele>146.2</ele>
        <time>2020-06-16T13:47:37Z</time>
      </trkpt>
      <trkpt lat="44.49376" lon="1.84336">
        <ele>146.8</ele>
        <time>2020-06-16T13:47:38Z</time>
      </trkpt>
      <trkpt lat="44.49377" lon="1.84334">
        <ele>147.2</ele>
        <time>2020-06-16T13:47:39Z</time>
      </trkpt>
      <trkpt lat="44.49378" lon="1.84332">
        <ele>147.6</ele>
        <time>2020-06-16T13:47:40Z</time>
      </trkpt>
      <trkpt lat="44.49381" lon="1.84324">
        <ele>147.6</ele>
        <time>2020-06-16T13:47:43Z</time>
      </trkpt>
      <trkpt lat="44.49383" lon="1.84322">
        <ele>148.2</ele>
        <time>2020-06-16T13:47:44Z</time>
      </trkpt>
      <trkpt lat="44.49384" lon="1.84319">
        <ele>148.6</ele>
        <time>2020-06-16T13:47:45Z</time>
      </trkpt>
      <trkpt lat="44.49385" lon="1.84317">
        <ele>149</ele>
        <time>2020-06-16T13:47:46Z</time>
      </trkpt>
      <trkpt lat="44.49386" lon="1.84314">
        <ele>149.6</ele>
        <time>2020-06-16T13:47:47Z</time>
      </trkpt>
      <trkpt lat="44.49387" lon="1.84312">
        <ele>150</ele>
        <time>2020-06-16T13:47:48Z</time>
      </trkpt>
      <trkpt lat="44.49391" lon="1.84307">
        <ele>150.8</ele>
        <time>2020-06-16T13:47:51Z</time>
      </trkpt>
      <trkpt lat="44.49391" lon="1.84304">
        <ele>151.4</ele>
        <time>2020-06-16T13:47:52Z</time>
      </trkpt>
      <trkpt lat="44.49392" lon="1.84302">
        <ele>151.8</ele>
        <time>2020-06-16T13:47:53Z</time>
      </trkpt>
      <trkpt lat="44.49393" lon="1.84299">
        <ele>152.2</ele>
        <time>2020-06-16T13:47:54Z</time>
      </trkpt>
      <trkpt lat="44.49397" lon="1.84293">
        <ele>152.6</ele>
        <time>2020-06-16T13:47:57Z</time>
      </trkpt>
      <trkpt lat="44.49398" lon="1.84291">
        <ele>153</ele>
        <time>2020-06-16T13:47:58Z</time>
      </trkpt>
      <trkpt lat="44.49399" lon="1.84289">
        <ele>153.4</ele>
        <time>2020-06-16T13:47:59Z</time>
      </trkpt>
      <trkpt lat="44.494" lon="1.84287">
        <ele>153.8</ele>
        <time>2020-06-16T13:48:00Z</time>
      </trkpt>
      <trkpt lat="44.494" lon="1.84285">
        <ele>154.2</ele>
        <time>2020-06-16T13:48:01Z</time>
      </trkpt>
      <trkpt lat="44.49403" lon="1.84278">
        <ele>154.6</ele>
        <time>2020-06-16T13:48:04Z</time>
      </trkpt>
      <trkpt lat="44.49404" lon="1.84276">
        <ele>155.2</ele>
        <time>2020-06-16T13:48:05Z</time>
      </trkpt>
      <trkpt lat="44.49406" lon="1.84275">
        <ele>155.6</ele>
        <time>2020-06-16T13:48:06Z</time>
      </trkpt>
      <trkpt lat="44.49407" lon="1.84273">
        <ele>156</ele>
        <time>2020-06-16T13:48:07Z</time>
      </trkpt>
      <trkpt lat="44.49408" lon="1.84271">
        <ele>156.4</ele>
        <time>2020-06-16T13:48:08Z</time>
      </trkpt>
      <trkpt lat="44.4941" lon="1.84267">
        <ele>156.4</ele>
        <time>2020-06-16T13:48:10Z</time>
      </trkpt>
      <trkpt lat="44.49411" lon="1.84265">
        <ele>156.8</ele>
        <time>2020-06-16T13:48:11Z</time>
      </trkpt>
      <trkpt lat="44.49412" lon="1.84263">
        <ele>157.2</ele>
        <time>2020-06-16T13:48:12Z</time>
      </trkpt>
      <trkpt lat="44.49413" lon="1.84261">
        <ele>157.6</ele>
        <time>2020-06-16T13:48:13Z</time>
      </trkpt>
      <trkpt lat="44.49413" lon="1.84259">
        <ele>158</ele>
        <time>2020-06-16T13:48:14Z</time>
      </trkpt>
      <trkpt lat="44.49414" lon="1.84257">
        <ele>158.4</ele>
        <time>2020-06-16T13:48:15Z</time>
      </trkpt>
      <trkpt lat="44.49416" lon="1.84254">
        <ele>158.8</ele>
        <time>2020-06-16T13:48:17Z</time>
      </trkpt>
      <trkpt lat="44.49417" lon="1.84252">
        <ele>159.2</ele>
        <time>2020-06-16T13:48:18Z</time>
      </trkpt>
      <trkpt lat="44.49418" lon="1.8425">
        <ele>159.6</ele>
        <time>2020-06-16T13:48:19Z</time>
      </trkpt>
      <trkpt lat="44.49419" lon="1.84248">
        <ele>160</ele>
        <time>2020-06-16T13:48:20Z</time>
      </trkpt>
      <trkpt lat="44.49421" lon="1.84246">
        <ele>160.4</ele>
        <time>2020-06-16T13:48:21Z</time>
      </trkpt>
      <trkpt lat="44.49424" lon="1.84239">
        <ele>160.8</ele>
        <time>2020-06-16T13:48:24Z</time>
      </trkpt>
      <trkpt lat="44.49425" lon="1.84237">
        <ele>161.4</ele>
        <time>2020-06-16T13:48:25Z</time>
      </trkpt>
      <trkpt lat="44.49426" lon="1.84235">
        <ele>161.8</ele>
        <time>2020-06-16T13:48:26Z</time>
      </trkpt>
      <trkpt lat="44.49427" lon="1.84232">
        <ele>162.2</ele>
        <time>2020-06-16T13:48:27Z</time>
      </trkpt>
      <trkpt lat="44.49428" lon="1.8423">
        <ele>162.6</ele>
        <time>2020-06-16T13:48:28Z</time>
      </trkpt>
      <trkpt lat="44.49432" lon="1.84225">
        <ele>163</ele>
        <time>2020-06-16T13:48:31Z</time>
      </trkpt>
      <trkpt lat="44.49433" lon="1.84222">
        <ele>163.4</ele>
        <time>2020-06-16T13:48:32Z</time>
      </trkpt>
      <trkpt lat="44.49434" lon="1.8422">
        <ele>164</ele>
        <time>2020-06-16T13:48:33Z</time>
      </trkpt>
      <trkpt lat="44.49435" lon="1.84218">
        <ele>164.4</ele>
        <time>2020-06-16T13:48:34Z</time>
      </trkpt>
      <trkpt lat="44.49435" lon="1.84216">
        <ele>164.8</ele>
        <time>2020-06-16T13:48:35Z</time>
      </trkpt>
      <trkpt lat="44.49438" lon="1.84208">
        <ele>165.2</ele>
        <time>2020-06-16T13:48:38Z</time>
      </trkpt>
      <trkpt lat="44.49439" lon="1.84206">
        <ele>165.8</ele>
        <time>2020-06-16T13:48:39Z</time>
      </trkpt>
      <trkpt lat="44.4944" lon="1.84204">
        <ele>166.6</ele>
        <time>2020-06-16T13:48:40Z</time>
      </trkpt>
      <trkpt lat="44.4944" lon="1.84202">
        <ele>167</ele>
        <time>2020-06-16T13:48:41Z</time>
      </trkpt>
      <trkpt lat="44.49443" lon="1.84195">
        <ele>167.4</ele>
        <time>2020-06-16T13:48:44Z</time>
      </trkpt>
      <trkpt lat="44.49444" lon="1.84193">
        <ele>168</ele>
        <time>2020-06-16T13:48:45Z</time>
      </trkpt>
      <trkpt lat="44.49445" lon="1.8419">
        <ele>168.4</ele>
        <time>2020-06-16T13:48:46Z</time>
      </trkpt>
      <trkpt lat="44.49445" lon="1.84188">
        <ele>168.8</ele>
        <time>2020-06-16T13:48:47Z</time>
      </trkpt>
      <trkpt lat="44.49446" lon="1.84185">
        <ele>169.2</ele>
        <time>2020-06-16T13:48:48Z</time>
      </trkpt>
      <trkpt lat="44.49449" lon="1.84175">
        <ele>169.6</ele>
        <time>2020-06-16T13:48:52Z</time>
      </trkpt>
      <trkpt lat="44.4945" lon="1.84173">
        <ele>170.2</ele>
        <time>2020-06-16T13:48:53Z</time>
      </trkpt>
      <trkpt lat="44.49451" lon="1.84171">
        <ele>170.6</ele>
        <time>2020-06-16T13:48:54Z</time>
      </trkpt>
      <trkpt lat="44.49451" lon="1.84168">
        <ele>171</ele>
        <time>2020-06-16T13:48:55Z</time>
      </trkpt>
      <trkpt lat="44.49452" lon="1.84166">
        <ele>171.4</ele>
        <time>2020-06-16T13:48:56Z</time>
      </trkpt>
      <trkpt lat="44.49454" lon="1.84157">
        <ele>172</ele>
        <time>2020-06-16T13:49:00Z</time>
      </trkpt>
      <trkpt lat="44.49454" lon="1.84155">
        <ele>172.4</ele>
        <time>2020-06-16T13:49:01Z</time>
      </trkpt>
      <trkpt lat="44.49455" lon="1.84153">
        <ele>172.8</ele>
        <time>2020-06-16T13:49:02Z</time>
      </trkpt>
      <trkpt lat="44.49456" lon="1.84151">
        <ele>173.2</ele>
        <time>2020-06-16T13:49:03Z</time>
      </trkpt>
      <trkpt lat="44.49457" lon="1.84149">
        <ele>173.6</ele>
        <time>2020-06-16T13:49:04Z</time>
      </trkpt>
      <trkpt lat="44.49459" lon="1.84141">
        <ele>174</ele>
        <time>2020-06-16T13:49:07Z</time>
      </trkpt>
      <trkpt lat="44.49459" lon="1.84138">
        <ele>174.6</ele>
        <time>2020-06-16T13:49:08Z</time>
      </trkpt>
      <trkpt lat="44.4946" lon="1.84136">
        <ele>175</ele>
        <time>2020-06-16T13:49:09Z</time>
      </trkpt>
      <trkpt lat="44.49461" lon="1.84133">
        <ele>175.4</ele>
        <time>2020-06-16T13:49:10Z</time>
      </trkpt>
      <trkpt lat="44.49461" lon="1.84131">
        <ele>175.8</ele>
        <time>2020-06-16T13:49:11Z</time>
      </trkpt>
      <trkpt lat="44.49464" lon="1.84119">
        <ele>176.4</ele>
        <time>2020-06-16T13:49:16Z</time>
      </trkpt>
      <trkpt lat="44.49465" lon="1.84116">
        <ele>176.8</ele>
        <time>2020-06-16T13:49:17Z</time>
      </trkpt>
      <trkpt lat="44.49465" lon="1.84113">
        <ele>177.2</ele>
        <time>2020-06-16T13:49:18Z</time>
      </trkpt>
      <trkpt lat="44.49466" lon="1.8411">
        <ele>177.6</ele>
        <time>2020-06-16T13:49:19Z</time>
      </trkpt>
      <trkpt lat="44.49466" lon="1.84107">
        <ele>178.2</ele>
        <time>2020-06-16T13:49:20Z</time>
      </trkpt>
      <trkpt lat="44.49468" lon="1.84099">
        <ele>178.2</ele>
        <time>2020-06-16T13:49:23Z</time>
      </trkpt>
      <trkpt lat="44.49469" lon="1.84094">
        <ele>178.6</ele>
        <time>2020-06-16T13:49:25Z</time>
      </trkpt>
      <trkpt lat="44.4947" lon="1.84091">
        <ele>179</ele>
        <time>2020-06-16T13:49:26Z</time>
      </trkpt>
      <trkpt lat="44.4947" lon="1.84088">
        <ele>179.4</ele>
        <time>2020-06-16T13:49:27Z</time>
      </trkpt>
      <trkpt lat="44.49471" lon="1.84085">
        <ele>179.8</ele>
        <time>2020-06-16T13:49:28Z</time>
      </trkpt>
      <trkpt lat="44.49471" lon="1.84083">
        <ele>180.2</ele>
        <time>2020-06-16T13:49:29Z</time>
      </trkpt>
      <trkpt lat="44.49473" lon="1.84077">
        <ele>180.2</ele>
        <time>2020-06-16T13:49:31Z</time>
      </trkpt>
      <trkpt lat="44.49473" lon="1.84071">
        <ele>180.6</ele>
        <time>2020-06-16T13:49:33Z</time>
      </trkpt>
      <trkpt lat="44.49474" lon="1.84069">
        <ele>181</ele>
        <time>2020-06-16T13:49:34Z</time>
      </trkpt>
      <trkpt lat="44.49475" lon="1.84067">
        <ele>181.4</ele>
        <time>2020-06-16T13:49:35Z</time>
      </trkpt>
      <trkpt lat="44.49475" lon="1.84064">
        <ele>181.8</ele>
        <time>2020-06-16T13:49:36Z</time>
      </trkpt>
      <trkpt lat="44.49476" lon="1.84061">
        <ele>182.2</ele>
        <time>2020-06-16T13:49:37Z</time>
      </trkpt>
      <trkpt lat="44.49476" lon="1.84058">
        <ele>182.2</ele>
        <time>2020-06-16T13:49:38Z</time>
      </trkpt>
      <trkpt lat="44.49479" lon="1.84044">
        <ele>182.8</ele>
        <time>2020-06-16T13:49:43Z</time>
      </trkpt>
      <trkpt lat="44.49479" lon="1.84041">
        <ele>183.2</ele>
        <time>2020-06-16T13:49:44Z</time>
      </trkpt>
      <trkpt lat="44.4948" lon="1.84038">
        <ele>183.6</ele>
        <time>2020-06-16T13:49:45Z</time>
      </trkpt>
      <trkpt lat="44.4948" lon="1.84034">
        <ele>184</ele>
        <time>2020-06-16T13:49:46Z</time>
      </trkpt>
      <trkpt lat="44.4948" lon="1.84031">
        <ele>184.4</ele>
        <time>2020-06-16T13:49:47Z</time>
      </trkpt>
      <trkpt lat="44.49481" lon="1.84018">
        <ele>184.8</ele>
        <time>2020-06-16T13:49:52Z</time>
      </trkpt>
      <trkpt lat="44.49481" lon="1.84015">
        <ele>185.8</ele>
        <time>2020-06-16T13:49:53Z</time>
      </trkpt>
      <trkpt lat="44.49481" lon="1.84012">
        <ele>186.2</ele>
        <time>2020-06-16T13:49:54Z</time>
      </trkpt>
      <trkpt lat="44.49481" lon="1.8401">
        <ele>186.6</ele>
        <time>2020-06-16T13:49:55Z</time>
      </trkpt>
      <trkpt lat="44.49481" lon="1.83998">
        <ele>187</ele>
        <time>2020-06-16T13:49:59Z</time>
      </trkpt>
      <trkpt lat="44.49481" lon="1.83995">
        <ele>187.4</ele>
        <time>2020-06-16T13:50:00Z</time>
      </trkpt>
      <trkpt lat="44.49481" lon="1.83992">
        <ele>187.8</ele>
        <time>2020-06-16T13:50:01Z</time>
      </trkpt>
      <trkpt lat="44.49481" lon="1.83989">
        <ele>188.2</ele>
        <time>2020-06-16T13:50:02Z</time>
      </trkpt>
      <trkpt lat="44.49481" lon="1.83986">
        <ele>188.8</ele>
        <time>2020-06-16T13:50:03Z</time>
      </trkpt>
      <trkpt lat="44.49482" lon="1.83974">
        <ele>189.2</ele>
        <time>2020-06-16T13:50:07Z</time>
      </trkpt>
      <trkpt lat="44.49482" lon="1.83972">
        <ele>189.6</ele>
        <time>2020-06-16T13:50:08Z</time>
      </trkpt>
      <trkpt lat="44.49482" lon="1.83969">
        <ele>190</ele>
        <time>2020-06-16T13:50:09Z</time>
      </trkpt>
      <trkpt lat="44.49482" lon="1.83966">
        <ele>190.4</ele>
        <time>2020-06-16T13:50:10Z</time>
      </trkpt>
      <trkpt lat="44.49482" lon="1.83963">
        <ele>191</ele>
        <time>2020-06-16T13:50:11Z</time>
      </trkpt>
      <trkpt lat="44.49481" lon="1.83952">
        <ele>191.4</ele>
        <time>2020-06-16T13:50:15Z</time>
      </trkpt>
      <trkpt lat="44.49481" lon="1.83948">
        <ele>191.8</ele>
        <time>2020-06-16T13:50:16Z</time>
      </trkpt>
      <trkpt lat="44.49481" lon="1.83945">
        <ele>192.6</ele>
        <time>2020-06-16T13:50:17Z</time>
      </trkpt>
      <trkpt lat="44.49481" lon="1.83942">
        <ele>193</ele>
        <time>2020-06-16T13:50:18Z</time>
      </trkpt>
      <trkpt lat="44.49481" lon="1.83924">
        <ele>193</ele>
        <time>2020-06-16T13:50:23Z</time>
      </trkpt>
      <trkpt lat="44.4948" lon="1.83921">
        <ele>193.4</ele>
        <time>2020-06-16T13:50:24Z</time>
      </trkpt>
      <trkpt lat="44.4948" lon="1.83917">
        <ele>193.8</ele>
        <time>2020-06-16T13:50:25Z</time>
      </trkpt>
      <trkpt lat="44.49479" lon="1.83914">
        <ele>194.2</ele>
        <time>2020-06-16T13:50:26Z</time>
      </trkpt>
      <trkpt lat="44.49479" lon="1.83911">
        <ele>194.8</ele>
        <time>2020-06-16T13:50:27Z</time>
      </trkpt>
      <trkpt lat="44.49478" lon="1.83908">
        <ele>195.2</ele>
        <time>2020-06-16T13:50:28Z</time>
      </trkpt>
      <trkpt lat="44.49477" lon="1.83903">
        <ele>195.2</ele>
        <time>2020-06-16T13:50:30Z</time>
      </trkpt>
      <trkpt lat="44.49474" lon="1.83891">
        <ele>195.6</ele>
        <time>2020-06-16T13:50:34Z</time>
      </trkpt>
      <trkpt lat="44.49473" lon="1.83888">
        <ele>196</ele>
        <time>2020-06-16T13:50:35Z</time>
      </trkpt>
      <trkpt lat="44.49473" lon="1.83885">
        <ele>196.4</ele>
        <time>2020-06-16T13:50:36Z</time>
      </trkpt>
      <trkpt lat="44.49472" lon="1.83882">
        <ele>196.8</ele>
        <time>2020-06-16T13:50:37Z</time>
      </trkpt>
      <trkpt lat="44.49471" lon="1.83879">
        <ele>197.2</ele>
        <time>2020-06-16T13:50:38Z</time>
      </trkpt>
      <trkpt lat="44.49467" lon="1.83865">
        <ele>197.6</ele>
        <time>2020-06-16T13:50:43Z</time>
      </trkpt>
      <trkpt lat="44.49466" lon="1.83862">
        <ele>198</ele>
        <time>2020-06-16T13:50:44Z</time>
      </trkpt>
      <trkpt lat="44.49466" lon="1.83859">
        <ele>198.6</ele>
        <time>2020-06-16T13:50:45Z</time>
      </trkpt>
      <trkpt lat="44.49465" lon="1.83856">
        <ele>199</ele>
        <time>2020-06-16T13:50:46Z</time>
      </trkpt>
      <trkpt lat="44.49464" lon="1.83854">
        <ele>199.4</ele>
        <time>2020-06-16T13:50:47Z</time>
      </trkpt>
      <trkpt lat="44.4946" lon="1.83846">
        <ele>199.4</ele>
        <time>2020-06-16T13:50:50Z</time>
      </trkpt>
      <trkpt lat="44.49457" lon="1.83841">
        <ele>199.8</ele>
        <time>2020-06-16T13:50:52Z</time>
      </trkpt>
      <trkpt lat="44.49456" lon="1.83838">
        <ele>200.2</ele>
        <time>2020-06-16T13:50:53Z</time>
      </trkpt>
      <trkpt lat="44.49454" lon="1.83836">
        <ele>200.8</ele>
        <time>2020-06-16T13:50:54Z</time>
      </trkpt>
      <trkpt lat="44.49453" lon="1.83834">
        <ele>201.2</ele>
        <time>2020-06-16T13:50:55Z</time>
      </trkpt>
      <trkpt lat="44.49452" lon="1.83831">
        <ele>201.6</ele>
        <time>2020-06-16T13:50:56Z</time>
      </trkpt>
      <trkpt lat="44.49445" lon="1.83821">
        <ele>202</ele>
        <time>2020-06-16T13:51:01Z</time>
      </trkpt>
      <trkpt lat="44.49443" lon="1.83819">
        <ele>202.4</ele>
        <time>2020-06-16T13:51:02Z</time>
      </trkpt>
      <trkpt lat="44.49442" lon="1.83817">
        <ele>202.8</ele>
        <time>2020-06-16T13:51:03Z</time>
      </trkpt>
      <trkpt lat="44.4944" lon="1.83815">
        <ele>203.4</ele>
        <time>2020-06-16T13:51:04Z</time>
      </trkpt>
      <trkpt lat="44.49439" lon="1.83813">
        <ele>203.8</ele>
        <time>2020-06-16T13:51:05Z</time>
      </trkpt>
      <trkpt lat="44.49437" lon="1.83808">
        <ele>203.8</ele>
        <time>2020-06-16T13:51:07Z</time>
      </trkpt>
      <trkpt lat="44.49434" lon="1.83804">
        <ele>204.2</ele>
        <time>2020-06-16T13:51:09Z</time>
      </trkpt>
      <trkpt lat="44.49433" lon="1.83801">
        <ele>204.6</ele>
        <time>2020-06-16T13:51:10Z</time>
      </trkpt>
      <trkpt lat="44.49433" lon="1.83799">
        <ele>205</ele>
        <time>2020-06-16T13:51:11Z</time>
      </trkpt>
      <trkpt lat="44.49432" lon="1.83796">
        <ele>205.4</ele>
        <time>2020-06-16T13:51:12Z</time>
      </trkpt>
      <trkpt lat="44.49431" lon="1.83793">
        <ele>205.8</ele>
        <time>2020-06-16T13:51:13Z</time>
      </trkpt>
      <trkpt lat="44.49429" lon="1.83787">
        <ele>205.8</ele>
        <time>2020-06-16T13:51:15Z</time>
      </trkpt>
      <trkpt lat="44.49428" lon="1.83784">
        <ele>206.4</ele>
        <time>2020-06-16T13:51:16Z</time>
      </trkpt>
      <trkpt lat="44.49428" lon="1.83781">
        <ele>206.8</ele>
        <time>2020-06-16T13:51:17Z</time>
      </trkpt>
      <trkpt lat="44.49427" lon="1.83778">
        <ele>207.2</ele>
        <time>2020-06-16T13:51:18Z</time>
      </trkpt>
      <trkpt lat="44.49426" lon="1.83776">
        <ele>207.6</ele>
        <time>2020-06-16T13:51:19Z</time>
      </trkpt>
      <trkpt lat="44.49426" lon="1.83773">
        <ele>208</ele>
        <time>2020-06-16T13:51:20Z</time>
      </trkpt>
      <trkpt lat="44.49425" lon="1.83764">
        <ele>208.4</ele>
        <time>2020-06-16T13:51:23Z</time>
      </trkpt>
      <trkpt lat="44.49425" lon="1.83761">
        <ele>208.8</ele>
        <time>2020-06-16T13:51:24Z</time>
      </trkpt>
      <trkpt lat="44.49426" lon="1.83758">
        <ele>209.4</ele>
        <time>2020-06-16T13:51:25Z</time>
      </trkpt>
      <trkpt lat="44.49426" lon="1.83756">
        <ele>209.8</ele>
        <time>2020-06-16T13:51:26Z</time>
      </trkpt>
      <trkpt lat="44.49427" lon="1.83753">
        <ele>210.2</ele>
        <time>2020-06-16T13:51:27Z</time>
      </trkpt>
      <trkpt lat="44.49429" lon="1.83748">
        <ele>210.6</ele>
        <time>2020-06-16T13:51:29Z</time>
      </trkpt>
      <trkpt lat="44.4943" lon="1.83745">
        <ele>211</ele>
        <time>2020-06-16T13:51:30Z</time>
      </trkpt>
      <trkpt lat="44.49432" lon="1.83743">
        <ele>211.8</ele>
        <time>2020-06-16T13:51:31Z</time>
      </trkpt>
      <trkpt lat="44.49433" lon="1.83741">
        <ele>212.2</ele>
        <time>2020-06-16T13:51:32Z</time>
      </trkpt>
      <trkpt lat="44.49435" lon="1.83739">
        <ele>212.8</ele>
        <time>2020-06-16T13:51:34Z</time>
      </trkpt>
      <trkpt lat="44.49437" lon="1.83737">
        <ele>213.2</ele>
        <time>2020-06-16T13:51:35Z</time>
      </trkpt>
      <trkpt lat="44.49438" lon="1.83735">
        <ele>213.6</ele>
        <time>2020-06-16T13:51:36Z</time>
      </trkpt>
      <trkpt lat="44.4944" lon="1.83734">
        <ele>214.2</ele>
        <time>2020-06-16T13:51:37Z</time>
      </trkpt>
      <trkpt lat="44.49441" lon="1.83733">
        <ele>214.6</ele>
        <time>2020-06-16T13:51:38Z</time>
      </trkpt>
      <trkpt lat="44.49446" lon="1.83729">
        <ele>215</ele>
        <time>2020-06-16T13:51:41Z</time>
      </trkpt>
      <trkpt lat="44.49448" lon="1.83728">
        <ele>215.4</ele>
        <time>2020-06-16T13:51:42Z</time>
      </trkpt>
      <trkpt lat="44.4945" lon="1.83727">
        <ele>215.8</ele>
        <time>2020-06-16T13:51:43Z</time>
      </trkpt>
      <trkpt lat="44.49452" lon="1.83725">
        <ele>216.4</ele>
        <time>2020-06-16T13:51:44Z</time>
      </trkpt>
      <trkpt lat="44.49454" lon="1.83724">
        <ele>216.8</ele>
        <time>2020-06-16T13:51:45Z</time>
      </trkpt>
      <trkpt lat="44.4946" lon="1.83719">
        <ele>217.2</ele>
        <time>2020-06-16T13:51:49Z</time>
      </trkpt>
      <trkpt lat="44.49462" lon="1.83718">
        <ele>217.6</ele>
        <time>2020-06-16T13:51:50Z</time>
      </trkpt>
      <trkpt lat="44.49463" lon="1.83718">
        <ele>218</ele>
        <time>2020-06-16T13:51:51Z</time>
      </trkpt>
      <trkpt lat="44.49465" lon="1.83717">
        <ele>218.4</ele>
        <time>2020-06-16T13:51:52Z</time>
      </trkpt>
      <trkpt lat="44.49466" lon="1.83715">
        <ele>218.8</ele>
        <time>2020-06-16T13:51:53Z</time>
      </trkpt>
      <trkpt lat="44.49473" lon="1.83709">
        <ele>218.8</ele>
        <time>2020-06-16T13:51:57Z</time>
      </trkpt>
      <trkpt lat="44.49474" lon="1.83708">
        <ele>219.2</ele>
        <time>2020-06-16T13:51:58Z</time>
      </trkpt>
      <trkpt lat="44.49476" lon="1.83706">
        <ele>219.6</ele>
        <time>2020-06-16T13:51:59Z</time>
      </trkpt>
      <trkpt lat="44.49477" lon="1.83705">
        <ele>220</ele>
        <time>2020-06-16T13:52:00Z</time>
      </trkpt>
      <trkpt lat="44.49479" lon="1.83704">
        <ele>220.4</ele>
        <time>2020-06-16T13:52:01Z</time>
      </trkpt>
      <trkpt lat="44.49481" lon="1.83702">
        <ele>220.8</ele>
        <time>2020-06-16T13:52:02Z</time>
      </trkpt>
      <trkpt lat="44.49484" lon="1.83699">
        <ele>220.8</ele>
        <time>2020-06-16T13:52:04Z</time>
      </trkpt>
      <trkpt lat="44.49492" lon="1.83694">
        <ele>221.2</ele>
        <time>2020-06-16T13:52:08Z</time>
      </trkpt>
      <trkpt lat="44.49494" lon="1.83693">
        <ele>221.6</ele>
        <time>2020-06-16T13:52:09Z</time>
      </trkpt>
      <trkpt lat="44.49496" lon="1.83692">
        <ele>222.2</ele>
        <time>2020-06-16T13:52:10Z</time>
      </trkpt>
      <trkpt lat="44.49498" lon="1.83691">
        <ele>222.6</ele>
        <time>2020-06-16T13:52:11Z</time>
      </trkpt>
      <trkpt lat="44.495" lon="1.83689">
        <ele>223</ele>
        <time>2020-06-16T13:52:12Z</time>
      </trkpt>
      <trkpt lat="44.49507" lon="1.83684">
        <ele>223.4</ele>
        <time>2020-06-16T13:52:16Z</time>
      </trkpt>
      <trkpt lat="44.49509" lon="1.83682">
        <ele>223.8</ele>
        <time>2020-06-16T13:52:17Z</time>
      </trkpt>
      <trkpt lat="44.4951" lon="1.83681">
        <ele>224.2</ele>
        <time>2020-06-16T13:52:18Z</time>
      </trkpt>
      <trkpt lat="44.49512" lon="1.83681">
        <ele>224.6</ele>
        <time>2020-06-16T13:52:19Z</time>
      </trkpt>
      <trkpt lat="44.49514" lon="1.8368">
        <ele>225</ele>
        <time>2020-06-16T13:52:20Z</time>
      </trkpt>
      <trkpt lat="44.49519" lon="1.8368">
        <ele>225.4</ele>
        <time>2020-06-16T13:52:23Z</time>
      </trkpt>
      <trkpt lat="44.49521" lon="1.8368">
        <ele>225.8</ele>
        <time>2020-06-16T13:52:24Z</time>
      </trkpt>
      <trkpt lat="44.49522" lon="1.8368">
        <ele>226.2</ele>
        <time>2020-06-16T13:52:25Z</time>
      </trkpt>
      <trkpt lat="44.49524" lon="1.8368">
        <ele>226.6</ele>
        <time>2020-06-16T13:52:26Z</time>
      </trkpt>
      <trkpt lat="44.49526" lon="1.8368">
        <ele>227.2</ele>
        <time>2020-06-16T13:52:27Z</time>
      </trkpt>
      <trkpt lat="44.49533" lon="1.83681">
        <ele>227.6</ele>
        <time>2020-06-16T13:52:31Z</time>
      </trkpt>
      <trkpt lat="44.49535" lon="1.83682">
        <ele>228</ele>
        <time>2020-06-16T13:52:32Z</time>
      </trkpt>
      <trkpt lat="44.49537" lon="1.83682">
        <ele>228.4</ele>
        <time>2020-06-16T13:52:33Z</time>
      </trkpt>
      <trkpt lat="44.49539" lon="1.83683">
        <ele>228.8</ele>
        <time>2020-06-16T13:52:34Z</time>
      </trkpt>
      <trkpt lat="44.49541" lon="1.83683">
        <ele>229.2</ele>
        <time>2020-06-16T13:52:35Z</time>
      </trkpt>
      <trkpt lat="44.49547" lon="1.83684">
        <ele>229.6</ele>
        <time>2020-06-16T13:52:38Z</time>
      </trkpt>
      <trkpt lat="44.49548" lon="1.83685">
        <ele>230</ele>
        <time>2020-06-16T13:52:39Z</time>
      </trkpt>
      <trkpt lat="44.4955" lon="1.83686">
        <ele>230.4</ele>
        <time>2020-06-16T13:52:40Z</time>
      </trkpt>
      <trkpt lat="44.49552" lon="1.83687">
        <ele>230.8</ele>
        <time>2020-06-16T13:52:41Z</time>
      </trkpt>
      <trkpt lat="44.49554" lon="1.83687">
        <ele>231.2</ele>
        <time>2020-06-16T13:52:42Z</time>
      </trkpt>
      <trkpt lat="44.49559" lon="1.83687">
        <ele>231.8</ele>
        <time>2020-06-16T13:52:45Z</time>
      </trkpt>
      <trkpt lat="44.49561" lon="1.83686">
        <ele>232.6</ele>
        <time>2020-06-16T13:52:46Z</time>
      </trkpt>
      <trkpt lat="44.49563" lon="1.83686">
        <ele>233</ele>
        <time>2020-06-16T13:52:47Z</time>
      </trkpt>
      <trkpt lat="44.49565" lon="1.83686">
        <ele>233.4</ele>
        <time>2020-06-16T13:52:48Z</time>
      </trkpt>
      <trkpt lat="44.49568" lon="1.83685">
        <ele>234</ele>
        <time>2020-06-16T13:52:50Z</time>
      </trkpt>
      <trkpt lat="44.4957" lon="1.83685">
        <ele>234.4</ele>
        <time>2020-06-16T13:52:51Z</time>
      </trkpt>
      <trkpt lat="44.49571" lon="1.83685">
        <ele>234.8</ele>
        <time>2020-06-16T13:52:52Z</time>
      </trkpt>
      <trkpt lat="44.49573" lon="1.83685">
        <ele>235.2</ele>
        <time>2020-06-16T13:52:53Z</time>
      </trkpt>
      <trkpt lat="44.49575" lon="1.83684">
        <ele>235.6</ele>
        <time>2020-06-16T13:52:54Z</time>
      </trkpt>
      <trkpt lat="44.4958" lon="1.83681">
        <ele>236</ele>
        <time>2020-06-16T13:52:57Z</time>
      </trkpt>
      <trkpt lat="44.49582" lon="1.8368">
        <ele>236.4</ele>
        <time>2020-06-16T13:52:58Z</time>
      </trkpt>
      <trkpt lat="44.49584" lon="1.83678">
        <ele>236.8</ele>
        <time>2020-06-16T13:52:59Z</time>
      </trkpt>
      <trkpt lat="44.49586" lon="1.83677">
        <ele>237.2</ele>
        <time>2020-06-16T13:53:00Z</time>
      </trkpt>
      <trkpt lat="44.49587" lon="1.83675">
        <ele>237.8</ele>
        <time>2020-06-16T13:53:01Z</time>
      </trkpt>
      <trkpt lat="44.49593" lon="1.83671">
        <ele>238.2</ele>
        <time>2020-06-16T13:53:04Z</time>
      </trkpt>
      <trkpt lat="44.49594" lon="1.83669">
        <ele>238.6</ele>
        <time>2020-06-16T13:53:05Z</time>
      </trkpt>
      <trkpt lat="44.49596" lon="1.83667">
        <ele>239</ele>
        <time>2020-06-16T13:53:06Z</time>
      </trkpt>
      <trkpt lat="44.49598" lon="1.83666">
        <ele>239.6</ele>
        <time>2020-06-16T13:53:07Z</time>
      </trkpt>
      <trkpt lat="44.49599" lon="1.83664">
        <ele>240</ele>
        <time>2020-06-16T13:53:08Z</time>
      </trkpt>
      <trkpt lat="44.49604" lon="1.83661">
        <ele>240.4</ele>
        <time>2020-06-16T13:53:11Z</time>
      </trkpt>
      <trkpt lat="44.49606" lon="1.83659">
        <ele>240.8</ele>
        <time>2020-06-16T13:53:12Z</time>
      </trkpt>
      <trkpt lat="44.49608" lon="1.83658">
        <ele>241.4</ele>
        <time>2020-06-16T13:53:13Z</time>
      </trkpt>
      <trkpt lat="44.4961" lon="1.83656">
        <ele>241.8</ele>
        <time>2020-06-16T13:53:14Z</time>
      </trkpt>
      <trkpt lat="44.49612" lon="1.83655">
        <ele>242.2</ele>
        <time>2020-06-16T13:53:15Z</time>
      </trkpt>
      <trkpt lat="44.49617" lon="1.83648">
        <ele>242.6</ele>
        <time>2020-06-16T13:53:19Z</time>
      </trkpt>
      <trkpt lat="44.49618" lon="1.83646">
        <ele>243</ele>
        <time>2020-06-16T13:53:20Z</time>
      </trkpt>
      <trkpt lat="44.49619" lon="1.83644">
        <ele>243.6</ele>
        <time>2020-06-16T13:53:21Z</time>
      </trkpt>
      <trkpt lat="44.4962" lon="1.83641">
        <ele>244</ele>
        <time>2020-06-16T13:53:22Z</time>
      </trkpt>
      <trkpt lat="44.49621" lon="1.83638">
        <ele>244.4</ele>
        <time>2020-06-16T13:53:23Z</time>
      </trkpt>
      <trkpt lat="44.49624" lon="1.83629">
        <ele>244.4</ele>
        <time>2020-06-16T13:53:26Z</time>
      </trkpt>
      <trkpt lat="44.49629" lon="1.83613">
        <ele>244.8</ele>
        <time>2020-06-16T13:53:31Z</time>
      </trkpt>
      <trkpt lat="44.4963" lon="1.8361">
        <ele>245.2</ele>
        <time>2020-06-16T13:53:32Z</time>
      </trkpt>
      <trkpt lat="44.49631" lon="1.83607">
        <ele>245.6</ele>
        <time>2020-06-16T13:53:33Z</time>
      </trkpt>
      <trkpt lat="44.49632" lon="1.83605">
        <ele>246</ele>
        <time>2020-06-16T13:53:34Z</time>
      </trkpt>
      <trkpt lat="44.49633" lon="1.83602">
        <ele>246.4</ele>
        <time>2020-06-16T13:53:35Z</time>
      </trkpt>
      <trkpt lat="44.49637" lon="1.83594">
        <ele>246.4</ele>
        <time>2020-06-16T13:53:38Z</time>
      </trkpt>
      <trkpt lat="44.49643" lon="1.8358">
        <ele>247</ele>
        <time>2020-06-16T13:53:44Z</time>
      </trkpt>
      <trkpt lat="44.49645" lon="1.83578">
        <ele>247.4</ele>
        <time>2020-06-16T13:53:45Z</time>
      </trkpt>
      <trkpt lat="44.49646" lon="1.83576">
        <ele>247.8</ele>
        <time>2020-06-16T13:53:46Z</time>
      </trkpt>
      <trkpt lat="44.49647" lon="1.83573">
        <ele>248.2</ele>
        <time>2020-06-16T13:53:47Z</time>
      </trkpt>
      <trkpt lat="44.49648" lon="1.83571">
        <ele>248.6</ele>
        <time>2020-06-16T13:53:48Z</time>
      </trkpt>
      <trkpt lat="44.49654" lon="1.8356">
        <ele>248.6</ele>
        <time>2020-06-16T13:53:52Z</time>
      </trkpt>
      <trkpt lat="44.49667" lon="1.83544">
        <ele>249</ele>
        <time>2020-06-16T13:53:58Z</time>
      </trkpt>
      <trkpt lat="44.49669" lon="1.83542">
        <ele>249.4</ele>
        <time>2020-06-16T13:53:59Z</time>
      </trkpt>
      <trkpt lat="44.49671" lon="1.8354">
        <ele>250.2</ele>
        <time>2020-06-16T13:54:00Z</time>
      </trkpt>
      <trkpt lat="44.49672" lon="1.83537">
        <ele>250.6</ele>
        <time>2020-06-16T13:54:01Z</time>
      </trkpt>
      <trkpt lat="44.49681" lon="1.83527">
        <ele>250.6</ele>
        <time>2020-06-16T13:54:05Z</time>
      </trkpt>
      <trkpt lat="44.49699" lon="1.83517">
        <ele>250.6</ele>
        <time>2020-06-16T13:54:11Z</time>
      </trkpt>
      <trkpt lat="44.49723" lon="1.83518">
        <ele>250.6</ele>
        <time>2020-06-16T13:54:18Z</time>
      </trkpt>
      <trkpt lat="44.4974" lon="1.83521">
        <ele>251.2</ele>
        <time>2020-06-16T13:54:23Z</time>
      </trkpt>
      <trkpt lat="44.49744" lon="1.83522">
        <ele>251.6</ele>
        <time>2020-06-16T13:54:24Z</time>
      </trkpt>
      <trkpt lat="44.49747" lon="1.83522">
        <ele>252.4</ele>
        <time>2020-06-16T13:54:25Z</time>
      </trkpt>
      <trkpt lat="44.49751" lon="1.83523">
        <ele>252.8</ele>
        <time>2020-06-16T13:54:26Z</time>
      </trkpt>
      <trkpt lat="44.49766" lon="1.83525">
        <ele>252.8</ele>
        <time>2020-06-16T13:54:31Z</time>
      </trkpt>
      <trkpt lat="44.49779" lon="1.83525">
        <ele>253.2</ele>
        <time>2020-06-16T13:54:35Z</time>
      </trkpt>
      <trkpt lat="44.49782" lon="1.83524">
        <ele>253.6</ele>
        <time>2020-06-16T13:54:36Z</time>
      </trkpt>
      <trkpt lat="44.49786" lon="1.83523">
        <ele>254</ele>
        <time>2020-06-16T13:54:37Z</time>
      </trkpt>
      <trkpt lat="44.49789" lon="1.83522">
        <ele>254.4</ele>
        <time>2020-06-16T13:54:38Z</time>
      </trkpt>
      <trkpt lat="44.49792" lon="1.83521">
        <ele>254.8</ele>
        <time>2020-06-16T13:54:39Z</time>
      </trkpt>
      <trkpt lat="44.4981" lon="1.83518">
        <ele>254.8</ele>
        <time>2020-06-16T13:54:44Z</time>
      </trkpt>
      <trkpt lat="44.49839" lon="1.83516">
        <ele>254.8</ele>
        <time>2020-06-16T13:54:50Z</time>
      </trkpt>
      <trkpt lat="44.49852" lon="1.83516">
        <ele>254.4</ele>
        <time>2020-06-16T13:54:52Z</time>
      </trkpt>
      <trkpt lat="44.49858" lon="1.83516">
        <ele>254</ele>
        <time>2020-06-16T13:54:53Z</time>
      </trkpt>
      <trkpt lat="44.49865" lon="1.83517">
        <ele>253.6</ele>
        <time>2020-06-16T13:54:54Z</time>
      </trkpt>
      <trkpt lat="44.49871" lon="1.83517">
        <ele>253.2</ele>
        <time>2020-06-16T13:54:55Z</time>
      </trkpt>
      <trkpt lat="44.49877" lon="1.83517">
        <ele>252.8</ele>
        <time>2020-06-16T13:54:56Z</time>
      </trkpt>
      <trkpt lat="44.49911" lon="1.83517">
        <ele>252.8</ele>
        <time>2020-06-16T13:55:02Z</time>
      </trkpt>
      <trkpt lat="44.49915" lon="1.83517">
        <ele>252.8</ele>
        <time>2020-06-16T13:55:03Z</time>
      </trkpt>
      <trkpt lat="44.49929" lon="1.83518">
        <ele>252.8</ele>
        <time>2020-06-16T13:55:06Z</time>
      </trkpt>
      <trkpt lat="44.49944" lon="1.83518">
        <ele>252.8</ele>
        <time>2020-06-16T13:55:09Z</time>
      </trkpt>
      <trkpt lat="44.49952" lon="1.83519">
        <ele>252.8</ele>
        <time>2020-06-16T13:55:11Z</time>
      </trkpt>
      <trkpt lat="44.49963" lon="1.83518">
        <ele>252.8</ele>
        <time>2020-06-16T13:55:14Z</time>
      </trkpt>
      <trkpt lat="44.49967" lon="1.83517">
        <ele>252.8</ele>
        <time>2020-06-16T13:55:15Z</time>
      </trkpt>
      <trkpt lat="44.49979" lon="1.83517">
        <ele>252.8</ele>
        <time>2020-06-16T13:55:18Z</time>
      </trkpt>
      <trkpt lat="44.49983" lon="1.83517">
        <ele>253.2</ele>
        <time>2020-06-16T13:55:19Z</time>
      </trkpt>
      <trkpt lat="44.49988" lon="1.83517">
        <ele>253.6</ele>
        <time>2020-06-16T13:55:20Z</time>
      </trkpt>
      <trkpt lat="44.49992" lon="1.83517">
        <ele>254</ele>
        <time>2020-06-16T13:55:21Z</time>
      </trkpt>
      <trkpt lat="44.49995" lon="1.83517">
        <ele>254.4</ele>
        <time>2020-06-16T13:55:22Z</time>
      </trkpt>
      <trkpt lat="44.49999" lon="1.83517">
        <ele>255</ele>
        <time>2020-06-16T13:55:23Z</time>
      </trkpt>
      <trkpt lat="44.50013" lon="1.83516">
        <ele>255.4</ele>
        <time>2020-06-16T13:55:27Z</time>
      </trkpt>
      <trkpt lat="44.50017" lon="1.83515">
        <ele>255.8</ele>
        <time>2020-06-16T13:55:28Z</time>
      </trkpt>
      <trkpt lat="44.5002" lon="1.83515">
        <ele>256.4</ele>
        <time>2020-06-16T13:55:29Z</time>
      </trkpt>
      <trkpt lat="44.50024" lon="1.83515">
        <ele>256.8</ele>
        <time>2020-06-16T13:55:30Z</time>
      </trkpt>
      <trkpt lat="44.50027" lon="1.83514">
        <ele>257.2</ele>
        <time>2020-06-16T13:55:31Z</time>
      </trkpt>
      <trkpt lat="44.5003" lon="1.83514">
        <ele>257.6</ele>
        <time>2020-06-16T13:55:32Z</time>
      </trkpt>
      <trkpt lat="44.50033" lon="1.83514">
        <ele>258.2</ele>
        <time>2020-06-16T13:55:33Z</time>
      </trkpt>
      <trkpt lat="44.50036" lon="1.83513">
        <ele>258.6</ele>
        <time>2020-06-16T13:55:34Z</time>
      </trkpt>
      <trkpt lat="44.50039" lon="1.83512">
        <ele>259</ele>
        <time>2020-06-16T13:55:35Z</time>
      </trkpt>
      <trkpt lat="44.50042" lon="1.83512">
        <ele>259.4</ele>
        <time>2020-06-16T13:55:36Z</time>
      </trkpt>
      <trkpt lat="44.50051" lon="1.83511">
        <ele>260.2</ele>
        <time>2020-06-16T13:55:39Z</time>
      </trkpt>
      <trkpt lat="44.50054" lon="1.83511">
        <ele>260.6</ele>
        <time>2020-06-16T13:55:40Z</time>
      </trkpt>
      <trkpt lat="44.50057" lon="1.8351">
        <ele>261</ele>
        <time>2020-06-16T13:55:41Z</time>
      </trkpt>
      <trkpt lat="44.5006" lon="1.8351">
        <ele>261.4</ele>
        <time>2020-06-16T13:55:42Z</time>
      </trkpt>
      <trkpt lat="44.50068" lon="1.83507">
        <ele>262</ele>
        <time>2020-06-16T13:55:45Z</time>
      </trkpt>
      <trkpt lat="44.5007" lon="1.83507">
        <ele>262.4</ele>
        <time>2020-06-16T13:55:46Z</time>
      </trkpt>
      <trkpt lat="44.50072" lon="1.83506">
        <ele>262.8</ele>
        <time>2020-06-16T13:55:47Z</time>
      </trkpt>
      <trkpt lat="44.50075" lon="1.83505">
        <ele>263.2</ele>
        <time>2020-06-16T13:55:48Z</time>
      </trkpt>
      <trkpt lat="44.50077" lon="1.83505">
        <ele>263.8</ele>
        <time>2020-06-16T13:55:49Z</time>
      </trkpt>
      <trkpt lat="44.50085" lon="1.83502">
        <ele>263.8</ele>
        <time>2020-06-16T13:55:52Z</time>
      </trkpt>
      <trkpt lat="44.50088" lon="1.83502">
        <ele>264.2</ele>
        <time>2020-06-16T13:55:53Z</time>
      </trkpt>
      <trkpt lat="44.50091" lon="1.83502">
        <ele>264.6</ele>
        <time>2020-06-16T13:55:54Z</time>
      </trkpt>
      <trkpt lat="44.50093" lon="1.83501">
        <ele>265</ele>
        <time>2020-06-16T13:55:55Z</time>
      </trkpt>
      <trkpt lat="44.50096" lon="1.83501">
        <ele>265.4</ele>
        <time>2020-06-16T13:55:56Z</time>
      </trkpt>
      <trkpt lat="44.50099" lon="1.83501">
        <ele>265.8</ele>
        <time>2020-06-16T13:55:57Z</time>
      </trkpt>
      <trkpt lat="44.50101" lon="1.83501">
        <ele>265.8</ele>
        <time>2020-06-16T13:55:58Z</time>
      </trkpt>
      <trkpt lat="44.50113" lon="1.83502">
        <ele>266.2</ele>
        <time>2020-06-16T13:56:02Z</time>
      </trkpt>
      <trkpt lat="44.50116" lon="1.83502">
        <ele>266.8</ele>
        <time>2020-06-16T13:56:03Z</time>
      </trkpt>
      <trkpt lat="44.50119" lon="1.83503">
        <ele>267.6</ele>
        <time>2020-06-16T13:56:04Z</time>
      </trkpt>
      <trkpt lat="44.50122" lon="1.83502">
        <ele>268</ele>
        <time>2020-06-16T13:56:05Z</time>
      </trkpt>
      <trkpt lat="44.50132" lon="1.83503">
        <ele>268</ele>
        <time>2020-06-16T13:56:09Z</time>
      </trkpt>
      <trkpt lat="44.5014" lon="1.83503">
        <ele>268.6</ele>
        <time>2020-06-16T13:56:12Z</time>
      </trkpt>
      <trkpt lat="44.50142" lon="1.83502">
        <ele>269</ele>
        <time>2020-06-16T13:56:13Z</time>
      </trkpt>
      <trkpt lat="44.50145" lon="1.83502">
        <ele>269.4</ele>
        <time>2020-06-16T13:56:14Z</time>
      </trkpt>
      <trkpt lat="44.50147" lon="1.83502">
        <ele>269.8</ele>
        <time>2020-06-16T13:56:15Z</time>
      </trkpt>
      <trkpt lat="44.50149" lon="1.83501">
        <ele>270.2</ele>
        <time>2020-06-16T13:56:16Z</time>
      </trkpt>
      <trkpt lat="44.50151" lon="1.83501">
        <ele>270.2</ele>
        <time>2020-06-16T13:56:17Z</time>
      </trkpt>
      <trkpt lat="44.50169" lon="1.835">
        <ele>270.2</ele>
        <time>2020-06-16T13:56:23Z</time>
      </trkpt>
      <trkpt lat="44.50192" lon="1.83495">
        <ele>270.2</ele>
        <time>2020-06-16T13:56:30Z</time>
      </trkpt>
      <trkpt lat="44.5021" lon="1.83483">
        <ele>270.2</ele>
        <time>2020-06-16T13:56:35Z</time>
      </trkpt>
      <trkpt lat="44.50214" lon="1.83481">
        <ele>270.2</ele>
        <time>2020-06-16T13:56:36Z</time>
      </trkpt>
      <trkpt lat="44.50241" lon="1.83463">
        <ele>270.2</ele>
        <time>2020-06-16T13:56:43Z</time>
      </trkpt>
      <trkpt lat="44.50252" lon="1.83456">
        <ele>270.2</ele>
        <time>2020-06-16T13:56:46Z</time>
      </trkpt>
      <trkpt lat="44.50265" lon="1.83451">
        <ele>270.2</ele>
        <time>2020-06-16T13:56:49Z</time>
      </trkpt>
      <trkpt lat="44.50276" lon="1.83444">
        <ele>270.6</ele>
        <time>2020-06-16T13:56:52Z</time>
      </trkpt>
      <trkpt lat="44.5028" lon="1.83442">
        <ele>271.4</ele>
        <time>2020-06-16T13:56:53Z</time>
      </trkpt>
      <trkpt lat="44.50284" lon="1.83439">
        <ele>271.8</ele>
        <time>2020-06-16T13:56:54Z</time>
      </trkpt>
      <trkpt lat="44.50287" lon="1.83436">
        <ele>272.2</ele>
        <time>2020-06-16T13:56:55Z</time>
      </trkpt>
      <trkpt lat="44.50306" lon="1.83427">
        <ele>272.2</ele>
        <time>2020-06-16T13:57:00Z</time>
      </trkpt>
      <trkpt lat="44.50309" lon="1.83425">
        <ele>272.8</ele>
        <time>2020-06-16T13:57:01Z</time>
      </trkpt>
      <trkpt lat="44.50313" lon="1.83424">
        <ele>273.2</ele>
        <time>2020-06-16T13:57:02Z</time>
      </trkpt>
      <trkpt lat="44.50316" lon="1.83422">
        <ele>273.6</ele>
        <time>2020-06-16T13:57:03Z</time>
      </trkpt>
      <trkpt lat="44.50319" lon="1.83419">
        <ele>274</ele>
        <time>2020-06-16T13:57:04Z</time>
      </trkpt>
      <trkpt lat="44.50322" lon="1.83417">
        <ele>274.4</ele>
        <time>2020-06-16T13:57:05Z</time>
      </trkpt>
      <trkpt lat="44.50324" lon="1.83415">
        <ele>274.4</ele>
        <time>2020-06-16T13:57:06Z</time>
      </trkpt>
      <trkpt lat="44.50327" lon="1.83412">
        <ele>275</ele>
        <time>2020-06-16T13:57:07Z</time>
      </trkpt>
      <trkpt lat="44.5033" lon="1.8341">
        <ele>275.4</ele>
        <time>2020-06-16T13:57:08Z</time>
      </trkpt>
      <trkpt lat="44.50332" lon="1.83408">
        <ele>275.8</ele>
        <time>2020-06-16T13:57:09Z</time>
      </trkpt>
      <trkpt lat="44.50335" lon="1.83407">
        <ele>276.2</ele>
        <time>2020-06-16T13:57:10Z</time>
      </trkpt>
      <trkpt lat="44.50338" lon="1.83405">
        <ele>276.6</ele>
        <time>2020-06-16T13:57:11Z</time>
      </trkpt>
      <trkpt lat="44.50346" lon="1.83401">
        <ele>277</ele>
        <time>2020-06-16T13:57:14Z</time>
      </trkpt>
      <trkpt lat="44.50349" lon="1.83401">
        <ele>277.6</ele>
        <time>2020-06-16T13:57:15Z</time>
      </trkpt>
      <trkpt lat="44.50351" lon="1.834">
        <ele>278</ele>
        <time>2020-06-16T13:57:16Z</time>
      </trkpt>
      <trkpt lat="44.50354" lon="1.83398">
        <ele>278.4</ele>
        <time>2020-06-16T13:57:17Z</time>
      </trkpt>
      <trkpt lat="44.50357" lon="1.83396">
        <ele>278.8</ele>
        <time>2020-06-16T13:57:18Z</time>
      </trkpt>
      <trkpt lat="44.50367" lon="1.8339">
        <ele>278.8</ele>
        <time>2020-06-16T13:57:22Z</time>
      </trkpt>
      <trkpt lat="44.5037" lon="1.83388">
        <ele>279.2</ele>
        <time>2020-06-16T13:57:23Z</time>
      </trkpt>
      <trkpt lat="44.50372" lon="1.83387">
        <ele>279.6</ele>
        <time>2020-06-16T13:57:24Z</time>
      </trkpt>
      <trkpt lat="44.50375" lon="1.83387">
        <ele>280</ele>
        <time>2020-06-16T13:57:25Z</time>
      </trkpt>
      <trkpt lat="44.50378" lon="1.83386">
        <ele>280.4</ele>
        <time>2020-06-16T13:57:26Z</time>
      </trkpt>
      <trkpt lat="44.5038" lon="1.83385">
        <ele>280.8</ele>
        <time>2020-06-16T13:57:27Z</time>
      </trkpt>
      <trkpt lat="44.50386" lon="1.83382">
        <ele>280.8</ele>
        <time>2020-06-16T13:57:29Z</time>
      </trkpt>
      <trkpt lat="44.50403" lon="1.83372">
        <ele>280.8</ele>
        <time>2020-06-16T13:57:35Z</time>
      </trkpt>
      <trkpt lat="44.50422" lon="1.83362">
        <ele>280.8</ele>
        <time>2020-06-16T13:57:42Z</time>
      </trkpt>
      <trkpt lat="44.50425" lon="1.8336">
        <ele>281.2</ele>
        <time>2020-06-16T13:57:43Z</time>
      </trkpt>
      <trkpt lat="44.50428" lon="1.83359">
        <ele>281.6</ele>
        <time>2020-06-16T13:57:44Z</time>
      </trkpt>
      <trkpt lat="44.50432" lon="1.83357">
        <ele>282</ele>
        <time>2020-06-16T13:57:45Z</time>
      </trkpt>
      <trkpt lat="44.50435" lon="1.83356">
        <ele>282.4</ele>
        <time>2020-06-16T13:57:46Z</time>
      </trkpt>
      <trkpt lat="44.50438" lon="1.83354">
        <ele>283</ele>
        <time>2020-06-16T13:57:47Z</time>
      </trkpt>
      <trkpt lat="44.50447" lon="1.8335">
        <ele>283</ele>
        <time>2020-06-16T13:57:50Z</time>
      </trkpt>
      <trkpt lat="44.5045" lon="1.83348">
        <ele>283.4</ele>
        <time>2020-06-16T13:57:51Z</time>
      </trkpt>
      <trkpt lat="44.50453" lon="1.83347">
        <ele>283.8</ele>
        <time>2020-06-16T13:57:52Z</time>
      </trkpt>
      <trkpt lat="44.50455" lon="1.83345">
        <ele>284.2</ele>
        <time>2020-06-16T13:57:53Z</time>
      </trkpt>
      <trkpt lat="44.50458" lon="1.83343">
        <ele>284.6</ele>
        <time>2020-06-16T13:57:54Z</time>
      </trkpt>
      <trkpt lat="44.50461" lon="1.83341">
        <ele>285</ele>
        <time>2020-06-16T13:57:55Z</time>
      </trkpt>
      <trkpt lat="44.50463" lon="1.8334">
        <ele>285</ele>
        <time>2020-06-16T13:57:56Z</time>
      </trkpt>
      <trkpt lat="44.50471" lon="1.83333">
        <ele>285.4</ele>
        <time>2020-06-16T13:57:59Z</time>
      </trkpt>
      <trkpt lat="44.50473" lon="1.83331">
        <ele>285.8</ele>
        <time>2020-06-16T13:58:00Z</time>
      </trkpt>
      <trkpt lat="44.50476" lon="1.83328">
        <ele>286.2</ele>
        <time>2020-06-16T13:58:01Z</time>
      </trkpt>
      <trkpt lat="44.50478" lon="1.83326">
        <ele>286.8</ele>
        <time>2020-06-16T13:58:02Z</time>
      </trkpt>
      <trkpt lat="44.50481" lon="1.83324">
        <ele>287.2</ele>
        <time>2020-06-16T13:58:03Z</time>
      </trkpt>
      <trkpt lat="44.50494" lon="1.83314">
        <ele>287.6</ele>
        <time>2020-06-16T13:58:08Z</time>
      </trkpt>
      <trkpt lat="44.50496" lon="1.83312">
        <ele>288</ele>
        <time>2020-06-16T13:58:09Z</time>
      </trkpt>
      <trkpt lat="44.50499" lon="1.83311">
        <ele>288.4</ele>
        <time>2020-06-16T13:58:10Z</time>
      </trkpt>
      <trkpt lat="44.50501" lon="1.83309">
        <ele>288.8</ele>
        <time>2020-06-16T13:58:11Z</time>
      </trkpt>
      <trkpt lat="44.50504" lon="1.83307">
        <ele>289.2</ele>
        <time>2020-06-16T13:58:12Z</time>
      </trkpt>
      <trkpt lat="44.50511" lon="1.83301">
        <ele>289.2</ele>
        <time>2020-06-16T13:58:15Z</time>
      </trkpt>
      <trkpt lat="44.50523" lon="1.83295">
        <ele>289.6</ele>
        <time>2020-06-16T13:58:20Z</time>
      </trkpt>
      <trkpt lat="44.50526" lon="1.83293">
        <ele>290</ele>
        <time>2020-06-16T13:58:21Z</time>
      </trkpt>
      <trkpt lat="44.50529" lon="1.83292">
        <ele>290.4</ele>
        <time>2020-06-16T13:58:22Z</time>
      </trkpt>
      <trkpt lat="44.50531" lon="1.8329">
        <ele>290.8</ele>
        <time>2020-06-16T13:58:23Z</time>
      </trkpt>
      <trkpt lat="44.50534" lon="1.83288">
        <ele>291.2</ele>
        <time>2020-06-16T13:58:24Z</time>
      </trkpt>
      <trkpt lat="44.50537" lon="1.83288">
        <ele>291.2</ele>
        <time>2020-06-16T13:58:25Z</time>
      </trkpt>
      <trkpt lat="44.5055" lon="1.83281">
        <ele>291.2</ele>
        <time>2020-06-16T13:58:30Z</time>
      </trkpt>
      <trkpt lat="44.50555" lon="1.83277">
        <ele>291.8</ele>
        <time>2020-06-16T13:58:32Z</time>
      </trkpt>
      <trkpt lat="44.50558" lon="1.83275">
        <ele>292.2</ele>
        <time>2020-06-16T13:58:33Z</time>
      </trkpt>
      <trkpt lat="44.50561" lon="1.83274">
        <ele>292.6</ele>
        <time>2020-06-16T13:58:34Z</time>
      </trkpt>
      <trkpt lat="44.50563" lon="1.83273">
        <ele>293</ele>
        <time>2020-06-16T13:58:35Z</time>
      </trkpt>
      <trkpt lat="44.50566" lon="1.83272">
        <ele>293.4</ele>
        <time>2020-06-16T13:58:36Z</time>
      </trkpt>
      <trkpt lat="44.50568" lon="1.8327">
        <ele>293.4</ele>
        <time>2020-06-16T13:58:37Z</time>
      </trkpt>
      <trkpt lat="44.50583" lon="1.83263">
        <ele>293.8</ele>
        <time>2020-06-16T13:58:43Z</time>
      </trkpt>
      <trkpt lat="44.50585" lon="1.83262">
        <ele>294.2</ele>
        <time>2020-06-16T13:58:44Z</time>
      </trkpt>
      <trkpt lat="44.50587" lon="1.83262">
        <ele>294.6</ele>
        <time>2020-06-16T13:58:45Z</time>
      </trkpt>
      <trkpt lat="44.50589" lon="1.83262">
        <ele>295.2</ele>
        <time>2020-06-16T13:58:46Z</time>
      </trkpt>
      <trkpt lat="44.50591" lon="1.83262">
        <ele>295.6</ele>
        <time>2020-06-16T13:58:47Z</time>
      </trkpt>
      <trkpt lat="44.50595" lon="1.83261">
        <ele>295.6</ele>
        <time>2020-06-16T13:58:49Z</time>
      </trkpt>
      <trkpt lat="44.506" lon="1.83259">
        <ele>296</ele>
        <time>2020-06-16T13:58:51Z</time>
      </trkpt>
      <trkpt lat="44.50602" lon="1.83258">
        <ele>296.4</ele>
        <time>2020-06-16T13:58:52Z</time>
      </trkpt>
      <trkpt lat="44.50605" lon="1.83255">
        <ele>296.8</ele>
        <time>2020-06-16T13:58:53Z</time>
      </trkpt>
      <trkpt lat="44.50607" lon="1.83254">
        <ele>297.4</ele>
        <time>2020-06-16T13:58:54Z</time>
      </trkpt>
      <trkpt lat="44.5061" lon="1.83251">
        <ele>297.8</ele>
        <time>2020-06-16T13:58:55Z</time>
      </trkpt>
      <trkpt lat="44.50618" lon="1.83245">
        <ele>298.2</ele>
        <time>2020-06-16T13:58:58Z</time>
      </trkpt>
      <trkpt lat="44.5062" lon="1.83244">
        <ele>298.6</ele>
        <time>2020-06-16T13:58:59Z</time>
      </trkpt>
      <trkpt lat="44.50622" lon="1.83243">
        <ele>299</ele>
        <time>2020-06-16T13:59:00Z</time>
      </trkpt>
      <trkpt lat="44.50625" lon="1.83241">
        <ele>299.6</ele>
        <time>2020-06-16T13:59:01Z</time>
      </trkpt>
      <trkpt lat="44.50627" lon="1.8324">
        <ele>300</ele>
        <time>2020-06-16T13:59:02Z</time>
      </trkpt>
      <trkpt lat="44.50633" lon="1.8324">
        <ele>300.4</ele>
        <time>2020-06-16T13:59:05Z</time>
      </trkpt>
      <trkpt lat="44.50635" lon="1.83239">
        <ele>301</ele>
        <time>2020-06-16T13:59:06Z</time>
      </trkpt>
      <trkpt lat="44.50637" lon="1.83238">
        <ele>301.4</ele>
        <time>2020-06-16T13:59:07Z</time>
      </trkpt>
      <trkpt lat="44.50639" lon="1.83238">
        <ele>301.8</ele>
        <time>2020-06-16T13:59:08Z</time>
      </trkpt>
      <trkpt lat="44.50642" lon="1.83237">
        <ele>302.2</ele>
        <time>2020-06-16T13:59:09Z</time>
      </trkpt>
      <trkpt lat="44.50647" lon="1.83235">
        <ele>302.2</ele>
        <time>2020-06-16T13:59:12Z</time>
      </trkpt>
      <trkpt lat="44.50652" lon="1.83233">
        <ele>302.8</ele>
        <time>2020-06-16T13:59:14Z</time>
      </trkpt>
      <trkpt lat="44.50653" lon="1.83233">
        <ele>303.2</ele>
        <time>2020-06-16T13:59:15Z</time>
      </trkpt>
      <trkpt lat="44.50655" lon="1.83232">
        <ele>303.6</ele>
        <time>2020-06-16T13:59:16Z</time>
      </trkpt>
      <trkpt lat="44.50657" lon="1.83231">
        <ele>304</ele>
        <time>2020-06-16T13:59:17Z</time>
      </trkpt>
      <trkpt lat="44.50659" lon="1.8323">
        <ele>304.4</ele>
        <time>2020-06-16T13:59:18Z</time>
      </trkpt>
      <trkpt lat="44.50668" lon="1.83226">
        <ele>304.8</ele>
        <time>2020-06-16T13:59:22Z</time>
      </trkpt>
      <trkpt lat="44.5067" lon="1.83225">
        <ele>305.2</ele>
        <time>2020-06-16T13:59:23Z</time>
      </trkpt>
      <trkpt lat="44.50672" lon="1.83224">
        <ele>305.6</ele>
        <time>2020-06-16T13:59:24Z</time>
      </trkpt>
      <trkpt lat="44.50674" lon="1.83223">
        <ele>306</ele>
        <time>2020-06-16T13:59:25Z</time>
      </trkpt>
      <trkpt lat="44.50676" lon="1.83222">
        <ele>306.4</ele>
        <time>2020-06-16T13:59:26Z</time>
      </trkpt>
      <trkpt lat="44.50686" lon="1.83218">
        <ele>306.4</ele>
        <time>2020-06-16T13:59:31Z</time>
      </trkpt>
      <trkpt lat="44.50688" lon="1.83217">
        <ele>306.8</ele>
        <time>2020-06-16T13:59:32Z</time>
      </trkpt>
      <trkpt lat="44.5069" lon="1.83217">
        <ele>307.2</ele>
        <time>2020-06-16T13:59:33Z</time>
      </trkpt>
      <trkpt lat="44.50693" lon="1.83216">
        <ele>307.8</ele>
        <time>2020-06-16T13:59:34Z</time>
      </trkpt>
      <trkpt lat="44.50694" lon="1.83215">
        <ele>308.2</ele>
        <time>2020-06-16T13:59:35Z</time>
      </trkpt>
      <trkpt lat="44.50696" lon="1.83214">
        <ele>308.6</ele>
        <time>2020-06-16T13:59:36Z</time>
      </trkpt>
      <trkpt lat="44.50698" lon="1.83213">
        <ele>308.6</ele>
        <time>2020-06-16T13:59:37Z</time>
      </trkpt>
      <trkpt lat="44.50707" lon="1.83209">
        <ele>309</ele>
        <time>2020-06-16T13:59:42Z</time>
      </trkpt>
      <trkpt lat="44.50708" lon="1.83209">
        <ele>309.4</ele>
        <time>2020-06-16T13:59:43Z</time>
      </trkpt>
      <trkpt lat="44.5071" lon="1.83208">
        <ele>310</ele>
        <time>2020-06-16T13:59:44Z</time>
      </trkpt>
      <trkpt lat="44.50711" lon="1.83208">
        <ele>310.8</ele>
        <time>2020-06-16T13:59:45Z</time>
      </trkpt>
      <trkpt lat="44.50716" lon="1.83207">
        <ele>310.8</ele>
        <time>2020-06-16T13:59:49Z</time>
      </trkpt>
      <trkpt lat="44.50717" lon="1.83207">
        <ele>311.2</ele>
        <time>2020-06-16T13:59:50Z</time>
      </trkpt>
      <trkpt lat="44.50719" lon="1.83207">
        <ele>311.6</ele>
        <time>2020-06-16T13:59:51Z</time>
      </trkpt>
      <trkpt lat="44.5072" lon="1.83206">
        <ele>312</ele>
        <time>2020-06-16T13:59:52Z</time>
      </trkpt>
      <trkpt lat="44.50721" lon="1.83205">
        <ele>312.4</ele>
        <time>2020-06-16T13:59:53Z</time>
      </trkpt>
      <trkpt lat="44.50723" lon="1.83205">
        <ele>312.8</ele>
        <time>2020-06-16T13:59:54Z</time>
      </trkpt>
      <trkpt lat="44.50729" lon="1.83203">
        <ele>313.4</ele>
        <time>2020-06-16T13:59:59Z</time>
      </trkpt>
      <trkpt lat="44.50731" lon="1.83203">
        <ele>313.8</ele>
        <time>2020-06-16T14:00:00Z</time>
      </trkpt>
      <trkpt lat="44.50732" lon="1.83203">
        <ele>314.2</ele>
        <time>2020-06-16T14:00:01Z</time>
      </trkpt>
      <trkpt lat="44.50734" lon="1.83202">
        <ele>314.6</ele>
        <time>2020-06-16T14:00:02Z</time>
      </trkpt>
      <trkpt lat="44.50735" lon="1.83202">
        <ele>315</ele>
        <time>2020-06-16T14:00:03Z</time>
      </trkpt>
      <trkpt lat="44.50739" lon="1.832">
        <ele>315.4</ele>
        <time>2020-06-16T14:00:06Z</time>
      </trkpt>
      <trkpt lat="44.5074" lon="1.832">
        <ele>315.8</ele>
        <time>2020-06-16T14:00:07Z</time>
      </trkpt>
      <trkpt lat="44.50741" lon="1.832">
        <ele>316.2</ele>
        <time>2020-06-16T14:00:08Z</time>
      </trkpt>
      <trkpt lat="44.50742" lon="1.832">
        <ele>316.6</ele>
        <time>2020-06-16T14:00:09Z</time>
      </trkpt>
      <trkpt lat="44.50743" lon="1.832">
        <ele>317</ele>
        <time>2020-06-16T14:00:10Z</time>
      </trkpt>
      <trkpt lat="44.50747" lon="1.83196">
        <ele>317.4</ele>
        <time>2020-06-16T14:00:13Z</time>
      </trkpt>
      <trkpt lat="44.50749" lon="1.83196">
        <ele>318</ele>
        <time>2020-06-16T14:00:14Z</time>
      </trkpt>
      <trkpt lat="44.5075" lon="1.83195">
        <ele>318.4</ele>
        <time>2020-06-16T14:00:15Z</time>
      </trkpt>
      <trkpt lat="44.50751" lon="1.83193">
        <ele>318.8</ele>
        <time>2020-06-16T14:00:16Z</time>
      </trkpt>
      <trkpt lat="44.50753" lon="1.83192">
        <ele>319.2</ele>
        <time>2020-06-16T14:00:17Z</time>
      </trkpt>
      <trkpt lat="44.50759" lon="1.83186">
        <ele>319.6</ele>
        <time>2020-06-16T14:00:21Z</time>
      </trkpt>
      <trkpt lat="44.5076" lon="1.83186">
        <ele>320</ele>
        <time>2020-06-16T14:00:22Z</time>
      </trkpt>
      <trkpt lat="44.50762" lon="1.83185">
        <ele>320.6</ele>
        <time>2020-06-16T14:00:23Z</time>
      </trkpt>
      <trkpt lat="44.50764" lon="1.83183">
        <ele>321</ele>
        <time>2020-06-16T14:00:24Z</time>
      </trkpt>
      <trkpt lat="44.50765" lon="1.83183">
        <ele>321.4</ele>
        <time>2020-06-16T14:00:25Z</time>
      </trkpt>
      <trkpt lat="44.50771" lon="1.83178">
        <ele>322</ele>
        <time>2020-06-16T14:00:29Z</time>
      </trkpt>
      <trkpt lat="44.50773" lon="1.83178">
        <ele>322.4</ele>
        <time>2020-06-16T14:00:30Z</time>
      </trkpt>
      <trkpt lat="44.50774" lon="1.83176">
        <ele>322.8</ele>
        <time>2020-06-16T14:00:31Z</time>
      </trkpt>
      <trkpt lat="44.50776" lon="1.83175">
        <ele>323.2</ele>
        <time>2020-06-16T14:00:32Z</time>
      </trkpt>
      <trkpt lat="44.50778" lon="1.83174">
        <ele>323.6</ele>
        <time>2020-06-16T14:00:33Z</time>
      </trkpt>
      <trkpt lat="44.50783" lon="1.83171">
        <ele>324</ele>
        <time>2020-06-16T14:00:36Z</time>
      </trkpt>
      <trkpt lat="44.50784" lon="1.83169">
        <ele>324.4</ele>
        <time>2020-06-16T14:00:37Z</time>
      </trkpt>
      <trkpt lat="44.50786" lon="1.83168">
        <ele>324.8</ele>
        <time>2020-06-16T14:00:38Z</time>
      </trkpt>
      <trkpt lat="44.50787" lon="1.83167">
        <ele>325.2</ele>
        <time>2020-06-16T14:00:39Z</time>
      </trkpt>
      <trkpt lat="44.50789" lon="1.83165">
        <ele>325.6</ele>
        <time>2020-06-16T14:00:40Z</time>
      </trkpt>
      <trkpt lat="44.50794" lon="1.8316">
        <ele>326.2</ele>
        <time>2020-06-16T14:00:44Z</time>
      </trkpt>
      <trkpt lat="44.50796" lon="1.83159">
        <ele>326.6</ele>
        <time>2020-06-16T14:00:45Z</time>
      </trkpt>
      <trkpt lat="44.50797" lon="1.83157">
        <ele>327</ele>
        <time>2020-06-16T14:00:46Z</time>
      </trkpt>
      <trkpt lat="44.50798" lon="1.83155">
        <ele>327.6</ele>
        <time>2020-06-16T14:00:47Z</time>
      </trkpt>
      <trkpt lat="44.50799" lon="1.83154">
        <ele>328</ele>
        <time>2020-06-16T14:00:48Z</time>
      </trkpt>
      <trkpt lat="44.50804" lon="1.83147">
        <ele>328</ele>
        <time>2020-06-16T14:00:52Z</time>
      </trkpt>
      <trkpt lat="44.50809" lon="1.83142">
        <ele>328.4</ele>
        <time>2020-06-16T14:00:56Z</time>
      </trkpt>
      <trkpt lat="44.5081" lon="1.83141">
        <ele>328.8</ele>
        <time>2020-06-16T14:00:57Z</time>
      </trkpt>
      <trkpt lat="44.50811" lon="1.8314">
        <ele>329.4</ele>
        <time>2020-06-16T14:00:58Z</time>
      </trkpt>
      <trkpt lat="44.50812" lon="1.83138">
        <ele>329.8</ele>
        <time>2020-06-16T14:00:59Z</time>
      </trkpt>
      <trkpt lat="44.50813" lon="1.83137">
        <ele>330.2</ele>
        <time>2020-06-16T14:01:00Z</time>
      </trkpt>
      <trkpt lat="44.50818" lon="1.83128">
        <ele>330.2</ele>
        <time>2020-06-16T14:01:05Z</time>
      </trkpt>
      <trkpt lat="44.50827" lon="1.83118">
        <ele>330.2</ele>
        <time>2020-06-16T14:01:10Z</time>
      </trkpt>
      <trkpt lat="44.50837" lon="1.8311">
        <ele>330.2</ele>
        <time>2020-06-16T14:01:13Z</time>
      </trkpt>
      <trkpt lat="44.50846" lon="1.83104">
        <ele>330.2</ele>
        <time>2020-06-16T14:01:15Z</time>
      </trkpt>
      <trkpt lat="44.50852" lon="1.83101">
        <ele>329.6</ele>
        <time>2020-06-16T14:01:16Z</time>
      </trkpt>
      <trkpt lat="44.50859" lon="1.83097">
        <ele>329.2</ele>
        <time>2020-06-16T14:01:17Z</time>
      </trkpt>
      <trkpt lat="44.50869" lon="1.83092">
        <ele>328.8</ele>
        <time>2020-06-16T14:01:18Z</time>
      </trkpt>
      <trkpt lat="44.50878" lon="1.83089">
        <ele>328</ele>
        <time>2020-06-16T14:01:19Z</time>
      </trkpt>
      <trkpt lat="44.50887" lon="1.83085">
        <ele>327.4</ele>
        <time>2020-06-16T14:01:20Z</time>
      </trkpt>
      <trkpt lat="44.50894" lon="1.83081">
        <ele>326.6</ele>
        <time>2020-06-16T14:01:21Z</time>
      </trkpt>
      <trkpt lat="44.50903" lon="1.83078">
        <ele>325.8</ele>
        <time>2020-06-16T14:01:22Z</time>
      </trkpt>
      <trkpt lat="44.50912" lon="1.83073">
        <ele>324.8</ele>
        <time>2020-06-16T14:01:23Z</time>
      </trkpt>
      <trkpt lat="44.50921" lon="1.83067">
        <ele>323.4</ele>
        <time>2020-06-16T14:01:24Z</time>
      </trkpt>
      <trkpt lat="44.50928" lon="1.8306">
        <ele>322.6</ele>
        <time>2020-06-16T14:01:25Z</time>
      </trkpt>
      <trkpt lat="44.50936" lon="1.83053">
        <ele>321.8</ele>
        <time>2020-06-16T14:01:26Z</time>
      </trkpt>
      <trkpt lat="44.50944" lon="1.83045">
        <ele>321.2</ele>
        <time>2020-06-16T14:01:27Z</time>
      </trkpt>
      <trkpt lat="44.50951" lon="1.83037">
        <ele>320.6</ele>
        <time>2020-06-16T14:01:28Z</time>
      </trkpt>
      <trkpt lat="44.50957" lon="1.8303">
        <ele>320</ele>
        <time>2020-06-16T14:01:29Z</time>
      </trkpt>
      <trkpt lat="44.50963" lon="1.83023">
        <ele>319.2</ele>
        <time>2020-06-16T14:01:30Z</time>
      </trkpt>
      <trkpt lat="44.50969" lon="1.83017">
        <ele>318.6</ele>
        <time>2020-06-16T14:01:31Z</time>
      </trkpt>
      <trkpt lat="44.50995" lon="1.82993">
        <ele>318.2</ele>
        <time>2020-06-16T14:01:35Z</time>
      </trkpt>
      <trkpt lat="44.51002" lon="1.82987">
        <ele>317.8</ele>
        <time>2020-06-16T14:01:36Z</time>
      </trkpt>
      <trkpt lat="44.51009" lon="1.8298">
        <ele>317.4</ele>
        <time>2020-06-16T14:01:37Z</time>
      </trkpt>
      <trkpt lat="44.51016" lon="1.82974">
        <ele>317</ele>
        <time>2020-06-16T14:01:38Z</time>
      </trkpt>
      <trkpt lat="44.51023" lon="1.82967">
        <ele>316.6</ele>
        <time>2020-06-16T14:01:39Z</time>
      </trkpt>
      <trkpt lat="44.51031" lon="1.82961">
        <ele>316.2</ele>
        <time>2020-06-16T14:01:40Z</time>
      </trkpt>
      <trkpt lat="44.51038" lon="1.82955">
        <ele>315.8</ele>
        <time>2020-06-16T14:01:41Z</time>
      </trkpt>
      <trkpt lat="44.51044" lon="1.8295">
        <ele>315.4</ele>
        <time>2020-06-16T14:01:42Z</time>
      </trkpt>
      <trkpt lat="44.51051" lon="1.82945">
        <ele>315</ele>
        <time>2020-06-16T14:01:43Z</time>
      </trkpt>
      <trkpt lat="44.51058" lon="1.82942">
        <ele>314.4</ele>
        <time>2020-06-16T14:01:44Z</time>
      </trkpt>
      <trkpt lat="44.51065" lon="1.8294">
        <ele>313.8</ele>
        <time>2020-06-16T14:01:45Z</time>
      </trkpt>
      <trkpt lat="44.51074" lon="1.82937">
        <ele>313.4</ele>
        <time>2020-06-16T14:01:46Z</time>
      </trkpt>
      <trkpt lat="44.51082" lon="1.82933">
        <ele>312.6</ele>
        <time>2020-06-16T14:01:47Z</time>
      </trkpt>
      <trkpt lat="44.51089" lon="1.82928">
        <ele>312</ele>
        <time>2020-06-16T14:01:48Z</time>
      </trkpt>
      <trkpt lat="44.51097" lon="1.82922">
        <ele>310.8</ele>
        <time>2020-06-16T14:01:49Z</time>
      </trkpt>
      <trkpt lat="44.51106" lon="1.82917">
        <ele>310.2</ele>
        <time>2020-06-16T14:01:50Z</time>
      </trkpt>
      <trkpt lat="44.51115" lon="1.82911">
        <ele>309.6</ele>
        <time>2020-06-16T14:01:51Z</time>
      </trkpt>
      <trkpt lat="44.51123" lon="1.82906">
        <ele>309</ele>
        <time>2020-06-16T14:01:52Z</time>
      </trkpt>
      <trkpt lat="44.51132" lon="1.82902">
        <ele>308.2</ele>
        <time>2020-06-16T14:01:53Z</time>
      </trkpt>
      <trkpt lat="44.5114" lon="1.82898">
        <ele>307.6</ele>
        <time>2020-06-16T14:01:54Z</time>
      </trkpt>
      <trkpt lat="44.5115" lon="1.829">
        <ele>306.8</ele>
        <time>2020-06-16T14:01:55Z</time>
      </trkpt>
      <trkpt lat="44.51159" lon="1.82903">
        <ele>306.2</ele>
        <time>2020-06-16T14:01:56Z</time>
      </trkpt>
      <trkpt lat="44.51168" lon="1.82905">
        <ele>305.4</ele>
        <time>2020-06-16T14:01:57Z</time>
      </trkpt>
      <trkpt lat="44.51176" lon="1.82905">
        <ele>304.8</ele>
        <time>2020-06-16T14:01:58Z</time>
      </trkpt>
      <trkpt lat="44.51184" lon="1.82903">
        <ele>304</ele>
        <time>2020-06-16T14:01:59Z</time>
      </trkpt>
      <trkpt lat="44.51191" lon="1.82899">
        <ele>303.4</ele>
        <time>2020-06-16T14:02:00Z</time>
      </trkpt>
      <trkpt lat="44.51197" lon="1.82893">
        <ele>303.4</ele>
        <time>2020-06-16T14:02:01Z</time>
      </trkpt>
      <trkpt lat="44.51204" lon="1.82883">
        <ele>302.8</ele>
        <time>2020-06-16T14:02:02Z</time>
      </trkpt>
      <trkpt lat="44.51212" lon="1.82875">
        <ele>302.4</ele>
        <time>2020-06-16T14:02:03Z</time>
      </trkpt>
      <trkpt lat="44.5122" lon="1.82869">
        <ele>302</ele>
        <time>2020-06-16T14:02:04Z</time>
      </trkpt>
      <trkpt lat="44.51229" lon="1.82866">
        <ele>301.6</ele>
        <time>2020-06-16T14:02:05Z</time>
      </trkpt>
      <trkpt lat="44.51237" lon="1.82865">
        <ele>301</ele>
        <time>2020-06-16T14:02:06Z</time>
      </trkpt>
      <trkpt lat="44.51246" lon="1.82866">
        <ele>300.6</ele>
        <time>2020-06-16T14:02:07Z</time>
      </trkpt>
      <trkpt lat="44.51255" lon="1.82868">
        <ele>300.2</ele>
        <time>2020-06-16T14:02:08Z</time>
      </trkpt>
      <trkpt lat="44.51263" lon="1.82871">
        <ele>299.8</ele>
        <time>2020-06-16T14:02:09Z</time>
      </trkpt>
      <trkpt lat="44.51272" lon="1.82874">
        <ele>299.2</ele>
        <time>2020-06-16T14:02:10Z</time>
      </trkpt>
      <trkpt lat="44.51281" lon="1.82878">
        <ele>298.6</ele>
        <time>2020-06-16T14:02:11Z</time>
      </trkpt>
      <trkpt lat="44.51291" lon="1.82884">
        <ele>297.8</ele>
        <time>2020-06-16T14:02:12Z</time>
      </trkpt>
      <trkpt lat="44.51301" lon="1.82889">
        <ele>297</ele>
        <time>2020-06-16T14:02:13Z</time>
      </trkpt>
      <trkpt lat="44.5131" lon="1.82894">
        <ele>295.4</ele>
        <time>2020-06-16T14:02:14Z</time>
      </trkpt>
      <trkpt lat="44.51318" lon="1.82895">
        <ele>294.6</ele>
        <time>2020-06-16T14:02:15Z</time>
      </trkpt>
      <trkpt lat="44.51326" lon="1.82892">
        <ele>293.8</ele>
        <time>2020-06-16T14:02:16Z</time>
      </trkpt>
      <trkpt lat="44.51334" lon="1.82889">
        <ele>293</ele>
        <time>2020-06-16T14:02:17Z</time>
      </trkpt>
      <trkpt lat="44.5134" lon="1.82884">
        <ele>292.2</ele>
        <time>2020-06-16T14:02:18Z</time>
      </trkpt>
      <trkpt lat="44.51352" lon="1.82872">
        <ele>292.2</ele>
        <time>2020-06-16T14:02:21Z</time>
      </trkpt>
      <trkpt lat="44.51354" lon="1.8287">
        <ele>292.2</ele>
        <time>2020-06-16T14:02:22Z</time>
      </trkpt>
      <trkpt lat="44.51357" lon="1.82868">
        <ele>292.6</ele>
        <time>2020-06-16T14:02:25Z</time>
      </trkpt>
      <trkpt lat="44.51358" lon="1.8287">
        <ele>293.2</ele>
        <time>2020-06-16T14:02:26Z</time>
      </trkpt>
      <trkpt lat="44.5136" lon="1.82873">
        <ele>293.6</ele>
        <time>2020-06-16T14:02:27Z</time>
      </trkpt>
      <trkpt lat="44.51362" lon="1.82875">
        <ele>294</ele>
        <time>2020-06-16T14:02:28Z</time>
      </trkpt>
      <trkpt lat="44.51364" lon="1.82877">
        <ele>294.4</ele>
        <time>2020-06-16T14:02:29Z</time>
      </trkpt>
      <trkpt lat="44.51372" lon="1.8289">
        <ele>294.8</ele>
        <time>2020-06-16T14:02:34Z</time>
      </trkpt>
      <trkpt lat="44.51373" lon="1.82893">
        <ele>295.2</ele>
        <time>2020-06-16T14:02:35Z</time>
      </trkpt>
      <trkpt lat="44.51374" lon="1.82896">
        <ele>295.6</ele>
        <time>2020-06-16T14:02:36Z</time>
      </trkpt>
      <trkpt lat="44.51376" lon="1.82899">
        <ele>296</ele>
        <time>2020-06-16T14:02:37Z</time>
      </trkpt>
      <trkpt lat="44.51377" lon="1.82902">
        <ele>296.4</ele>
        <time>2020-06-16T14:02:38Z</time>
      </trkpt>
      <trkpt lat="44.51383" lon="1.82915">
        <ele>296.4</ele>
        <time>2020-06-16T14:02:42Z</time>
      </trkpt>
      <trkpt lat="44.51384" lon="1.82918">
        <ele>296.4</ele>
        <time>2020-06-16T14:02:43Z</time>
      </trkpt>
      <trkpt lat="44.51391" lon="1.82929">
        <ele>296.8</ele>
        <time>2020-06-16T14:02:47Z</time>
      </trkpt>
      <trkpt lat="44.51392" lon="1.82933">
        <ele>297.2</ele>
        <time>2020-06-16T14:02:48Z</time>
      </trkpt>
      <trkpt lat="44.51393" lon="1.82936">
        <ele>297.6</ele>
        <time>2020-06-16T14:02:49Z</time>
      </trkpt>
      <trkpt lat="44.51394" lon="1.82939">
        <ele>298.2</ele>
        <time>2020-06-16T14:02:50Z</time>
      </trkpt>
      <trkpt lat="44.51395" lon="1.82942">
        <ele>298.6</ele>
        <time>2020-06-16T14:02:51Z</time>
      </trkpt>
      <trkpt lat="44.51396" lon="1.82953">
        <ele>298.6</ele>
        <time>2020-06-16T14:02:54Z</time>
      </trkpt>
      <trkpt lat="44.51399" lon="1.82965">
        <ele>299</ele>
        <time>2020-06-16T14:02:58Z</time>
      </trkpt>
      <trkpt lat="44.514" lon="1.82968">
        <ele>299.4</ele>
        <time>2020-06-16T14:02:59Z</time>
      </trkpt>
      <trkpt lat="44.51401" lon="1.82972">
        <ele>299.8</ele>
        <time>2020-06-16T14:03:00Z</time>
      </trkpt>
      <trkpt lat="44.51402" lon="1.82976">
        <ele>300.2</ele>
        <time>2020-06-16T14:03:01Z</time>
      </trkpt>
      <trkpt lat="44.51403" lon="1.82979">
        <ele>300.6</ele>
        <time>2020-06-16T14:03:02Z</time>
      </trkpt>
      <trkpt lat="44.51408" lon="1.8299">
        <ele>301</ele>
        <time>2020-06-16T14:03:06Z</time>
      </trkpt>
      <trkpt lat="44.51408" lon="1.82992">
        <ele>301.4</ele>
        <time>2020-06-16T14:03:07Z</time>
      </trkpt>
      <trkpt lat="44.51409" lon="1.82994">
        <ele>301.8</ele>
        <time>2020-06-16T14:03:08Z</time>
      </trkpt>
      <trkpt lat="44.51409" lon="1.82997">
        <ele>302.2</ele>
        <time>2020-06-16T14:03:09Z</time>
      </trkpt>
      <trkpt lat="44.5141" lon="1.82999">
        <ele>302.6</ele>
        <time>2020-06-16T14:03:10Z</time>
      </trkpt>
      <trkpt lat="44.51411" lon="1.83003">
        <ele>302.6</ele>
        <time>2020-06-16T14:03:11Z</time>
      </trkpt>
      <trkpt lat="44.51416" lon="1.83016">
        <ele>302.6</ele>
        <time>2020-06-16T14:03:16Z</time>
      </trkpt>
      <trkpt lat="44.51416" lon="1.83018">
        <ele>303</ele>
        <time>2020-06-16T14:03:17Z</time>
      </trkpt>
      <trkpt lat="44.51417" lon="1.8302">
        <ele>303.4</ele>
        <time>2020-06-16T14:03:18Z</time>
      </trkpt>
      <trkpt lat="44.51418" lon="1.83022">
        <ele>304</ele>
        <time>2020-06-16T14:03:19Z</time>
      </trkpt>
      <trkpt lat="44.51418" lon="1.83024">
        <ele>304.4</ele>
        <time>2020-06-16T14:03:20Z</time>
      </trkpt>
      <trkpt lat="44.51419" lon="1.83026">
        <ele>304.8</ele>
        <time>2020-06-16T14:03:21Z</time>
      </trkpt>
      <trkpt lat="44.51419" lon="1.83028">
        <ele>304.8</ele>
        <time>2020-06-16T14:03:22Z</time>
      </trkpt>
      <trkpt lat="44.51419" lon="1.83033">
        <ele>305.2</ele>
        <time>2020-06-16T14:03:24Z</time>
      </trkpt>
      <trkpt lat="44.51419" lon="1.83037">
        <ele>305.6</ele>
        <time>2020-06-16T14:03:25Z</time>
      </trkpt>
      <trkpt lat="44.51419" lon="1.8304">
        <ele>306</ele>
        <time>2020-06-16T14:03:26Z</time>
      </trkpt>
      <trkpt lat="44.51419" lon="1.83042">
        <ele>306.4</ele>
        <time>2020-06-16T14:03:27Z</time>
      </trkpt>
      <trkpt lat="44.51419" lon="1.83044">
        <ele>306.8</ele>
        <time>2020-06-16T14:03:28Z</time>
      </trkpt>
      <trkpt lat="44.51421" lon="1.83052">
        <ele>307.2</ele>
        <time>2020-06-16T14:03:31Z</time>
      </trkpt>
      <trkpt lat="44.51421" lon="1.83055">
        <ele>307.6</ele>
        <time>2020-06-16T14:03:32Z</time>
      </trkpt>
      <trkpt lat="44.51422" lon="1.83057">
        <ele>308</ele>
        <time>2020-06-16T14:03:33Z</time>
      </trkpt>
      <trkpt lat="44.51423" lon="1.83059">
        <ele>308.6</ele>
        <time>2020-06-16T14:03:34Z</time>
      </trkpt>
      <trkpt lat="44.51423" lon="1.83061">
        <ele>309</ele>
        <time>2020-06-16T14:03:35Z</time>
      </trkpt>
      <trkpt lat="44.51424" lon="1.83065">
        <ele>309</ele>
        <time>2020-06-16T14:03:37Z</time>
      </trkpt>
      <trkpt lat="44.51424" lon="1.83071">
        <ele>309.4</ele>
        <time>2020-06-16T14:03:39Z</time>
      </trkpt>
      <trkpt lat="44.51424" lon="1.83075">
        <ele>309.8</ele>
        <time>2020-06-16T14:03:40Z</time>
      </trkpt>
      <trkpt lat="44.51424" lon="1.83077">
        <ele>310.2</ele>
        <time>2020-06-16T14:03:41Z</time>
      </trkpt>
      <trkpt lat="44.51424" lon="1.8308">
        <ele>310.6</ele>
        <time>2020-06-16T14:03:42Z</time>
      </trkpt>
      <trkpt lat="44.51424" lon="1.83082">
        <ele>311</ele>
        <time>2020-06-16T14:03:43Z</time>
      </trkpt>
      <trkpt lat="44.51427" lon="1.83088">
        <ele>311.4</ele>
        <time>2020-06-16T14:03:46Z</time>
      </trkpt>
      <trkpt lat="44.51427" lon="1.83089">
        <ele>311.8</ele>
        <time>2020-06-16T14:03:47Z</time>
      </trkpt>
      <trkpt lat="44.51428" lon="1.83091">
        <ele>312.2</ele>
        <time>2020-06-16T14:03:48Z</time>
      </trkpt>
      <trkpt lat="44.51428" lon="1.83093">
        <ele>312.6</ele>
        <time>2020-06-16T14:03:49Z</time>
      </trkpt>
      <trkpt lat="44.51429" lon="1.83095">
        <ele>313</ele>
        <time>2020-06-16T14:03:50Z</time>
      </trkpt>
      <trkpt lat="44.5143" lon="1.83102">
        <ele>313.6</ele>
        <time>2020-06-16T14:03:53Z</time>
      </trkpt>
      <trkpt lat="44.5143" lon="1.83105">
        <ele>314</ele>
        <time>2020-06-16T14:03:54Z</time>
      </trkpt>
      <trkpt lat="44.51431" lon="1.83107">
        <ele>314.4</ele>
        <time>2020-06-16T14:03:55Z</time>
      </trkpt>
      <trkpt lat="44.51431" lon="1.8311">
        <ele>314.8</ele>
        <time>2020-06-16T14:03:56Z</time>
      </trkpt>
      <trkpt lat="44.51431" lon="1.83112">
        <ele>315.2</ele>
        <time>2020-06-16T14:03:57Z</time>
      </trkpt>
      <trkpt lat="44.51432" lon="1.83119">
        <ele>315.2</ele>
        <time>2020-06-16T14:04:00Z</time>
      </trkpt>
      <trkpt lat="44.51433" lon="1.83119">
        <ele>315.6</ele>
        <time>2020-06-16T14:04:01Z</time>
      </trkpt>
      <trkpt lat="44.51433" lon="1.83121">
        <ele>316</ele>
        <time>2020-06-16T14:04:02Z</time>
      </trkpt>
      <trkpt lat="44.51433" lon="1.83122">
        <ele>316.6</ele>
        <time>2020-06-16T14:04:03Z</time>
      </trkpt>
      <trkpt lat="44.51434" lon="1.83124">
        <ele>317</ele>
        <time>2020-06-16T14:04:04Z</time>
      </trkpt>
      <trkpt lat="44.51435" lon="1.83126">
        <ele>317.4</ele>
        <time>2020-06-16T14:04:05Z</time>
      </trkpt>
      <trkpt lat="44.51437" lon="1.83134">
        <ele>317.8</ele>
        <time>2020-06-16T14:04:09Z</time>
      </trkpt>
      <trkpt lat="44.51437" lon="1.83136">
        <ele>318.2</ele>
        <time>2020-06-16T14:04:10Z</time>
      </trkpt>
      <trkpt lat="44.51438" lon="1.83138">
        <ele>318.6</ele>
        <time>2020-06-16T14:04:11Z</time>
      </trkpt>
      <trkpt lat="44.51439" lon="1.83139">
        <ele>319</ele>
        <time>2020-06-16T14:04:12Z</time>
      </trkpt>
      <trkpt lat="44.51439" lon="1.8314">
        <ele>319.4</ele>
        <time>2020-06-16T14:04:13Z</time>
      </trkpt>
      <trkpt lat="44.51442" lon="1.83146">
        <ele>319.4</ele>
        <time>2020-06-16T14:04:16Z</time>
      </trkpt>
      <trkpt lat="44.51443" lon="1.83147">
        <ele>319.8</ele>
        <time>2020-06-16T14:04:17Z</time>
      </trkpt>
      <trkpt lat="44.51444" lon="1.83149">
        <ele>320.8</ele>
        <time>2020-06-16T14:04:18Z</time>
      </trkpt>
      <trkpt lat="44.51444" lon="1.8315">
        <ele>321.2</ele>
        <time>2020-06-16T14:04:19Z</time>
      </trkpt>
      <trkpt lat="44.51446" lon="1.83153">
        <ele>321.6</ele>
        <time>2020-06-16T14:04:20Z</time>
      </trkpt>
      <trkpt lat="44.51446" lon="1.83155">
        <ele>321.6</ele>
        <time>2020-06-16T14:04:21Z</time>
      </trkpt>
      <trkpt lat="44.51447" lon="1.8316">
        <ele>322</ele>
        <time>2020-06-16T14:04:24Z</time>
      </trkpt>
      <trkpt lat="44.51447" lon="1.83162">
        <ele>322.4</ele>
        <time>2020-06-16T14:04:25Z</time>
      </trkpt>
      <trkpt lat="44.51448" lon="1.83163">
        <ele>322.8</ele>
        <time>2020-06-16T14:04:26Z</time>
      </trkpt>
      <trkpt lat="44.51449" lon="1.83165">
        <ele>323.2</ele>
        <time>2020-06-16T14:04:27Z</time>
      </trkpt>
      <trkpt lat="44.51449" lon="1.83167">
        <ele>323.6</ele>
        <time>2020-06-16T14:04:28Z</time>
      </trkpt>
      <trkpt lat="44.51451" lon="1.83175">
        <ele>324</ele>
        <time>2020-06-16T14:04:33Z</time>
      </trkpt>
      <trkpt lat="44.51451" lon="1.83176">
        <ele>324.4</ele>
        <time>2020-06-16T14:04:34Z</time>
      </trkpt>
      <trkpt lat="44.51452" lon="1.83179">
        <ele>324.8</ele>
        <time>2020-06-16T14:04:35Z</time>
      </trkpt>
      <trkpt lat="44.51452" lon="1.83181">
        <ele>325.2</ele>
        <time>2020-06-16T14:04:36Z</time>
      </trkpt>
      <trkpt lat="44.51452" lon="1.83184">
        <ele>325.6</ele>
        <time>2020-06-16T14:04:37Z</time>
      </trkpt>
      <trkpt lat="44.51454" lon="1.83194">
        <ele>325.6</ele>
        <time>2020-06-16T14:04:41Z</time>
      </trkpt>
      <trkpt lat="44.51455" lon="1.83196">
        <ele>326</ele>
        <time>2020-06-16T14:04:42Z</time>
      </trkpt>
      <trkpt lat="44.51455" lon="1.83198">
        <ele>326.8</ele>
        <time>2020-06-16T14:04:43Z</time>
      </trkpt>
      <trkpt lat="44.51456" lon="1.83199">
        <ele>327.2</ele>
        <time>2020-06-16T14:04:44Z</time>
      </trkpt>
      <trkpt lat="44.51456" lon="1.83201">
        <ele>327.6</ele>
        <time>2020-06-16T14:04:45Z</time>
      </trkpt>
      <trkpt lat="44.51457" lon="1.83204">
        <ele>327.6</ele>
        <time>2020-06-16T14:04:47Z</time>
      </trkpt>
      <trkpt lat="44.5146" lon="1.8321">
        <ele>328</ele>
        <time>2020-06-16T14:04:51Z</time>
      </trkpt>
      <trkpt lat="44.51461" lon="1.83212">
        <ele>328.4</ele>
        <time>2020-06-16T14:04:52Z</time>
      </trkpt>
      <trkpt lat="44.51462" lon="1.83213">
        <ele>328.8</ele>
        <time>2020-06-16T14:04:53Z</time>
      </trkpt>
      <trkpt lat="44.51463" lon="1.83215">
        <ele>329.2</ele>
        <time>2020-06-16T14:04:54Z</time>
      </trkpt>
      <trkpt lat="44.51464" lon="1.83217">
        <ele>329.6</ele>
        <time>2020-06-16T14:04:55Z</time>
      </trkpt>
      <trkpt lat="44.51467" lon="1.83226">
        <ele>329.6</ele>
        <time>2020-06-16T14:05:00Z</time>
      </trkpt>
      <trkpt lat="44.51468" lon="1.83228">
        <ele>330.2</ele>
        <time>2020-06-16T14:05:01Z</time>
      </trkpt>
      <trkpt lat="44.51469" lon="1.83229">
        <ele>330.6</ele>
        <time>2020-06-16T14:05:02Z</time>
      </trkpt>
      <trkpt lat="44.51469" lon="1.83231">
        <ele>331</ele>
        <time>2020-06-16T14:05:03Z</time>
      </trkpt>
      <trkpt lat="44.5147" lon="1.83233">
        <ele>331.4</ele>
        <time>2020-06-16T14:05:04Z</time>
      </trkpt>
      <trkpt lat="44.51471" lon="1.83235">
        <ele>331.8</ele>
        <time>2020-06-16T14:05:05Z</time>
      </trkpt>
      <trkpt lat="44.51472" lon="1.83239">
        <ele>331.8</ele>
        <time>2020-06-16T14:05:07Z</time>
      </trkpt>
      <trkpt lat="44.51473" lon="1.83242">
        <ele>332.2</ele>
        <time>2020-06-16T14:05:10Z</time>
      </trkpt>
      <trkpt lat="44.51474" lon="1.83244">
        <ele>332.6</ele>
        <time>2020-06-16T14:05:11Z</time>
      </trkpt>
      <trkpt lat="44.51475" lon="1.83246">
        <ele>333.2</ele>
        <time>2020-06-16T14:05:12Z</time>
      </trkpt>
      <trkpt lat="44.51476" lon="1.83248">
        <ele>333.6</ele>
        <time>2020-06-16T14:05:13Z</time>
      </trkpt>
      <trkpt lat="44.51477" lon="1.8325">
        <ele>334</ele>
        <time>2020-06-16T14:05:14Z</time>
      </trkpt>
      <trkpt lat="44.51477" lon="1.83252">
        <ele>334</ele>
        <time>2020-06-16T14:05:15Z</time>
      </trkpt>
      <trkpt lat="44.51479" lon="1.83261">
        <ele>334</ele>
        <time>2020-06-16T14:05:19Z</time>
      </trkpt>
      <trkpt lat="44.51481" lon="1.83265">
        <ele>334.4</ele>
        <time>2020-06-16T14:05:21Z</time>
      </trkpt>
      <trkpt lat="44.51482" lon="1.83267">
        <ele>334.8</ele>
        <time>2020-06-16T14:05:22Z</time>
      </trkpt>
      <trkpt lat="44.51483" lon="1.83269">
        <ele>335.2</ele>
        <time>2020-06-16T14:05:23Z</time>
      </trkpt>
      <trkpt lat="44.51485" lon="1.83271">
        <ele>335.6</ele>
        <time>2020-06-16T14:05:24Z</time>
      </trkpt>
      <trkpt lat="44.51486" lon="1.83274">
        <ele>336</ele>
        <time>2020-06-16T14:05:25Z</time>
      </trkpt>
      <trkpt lat="44.51491" lon="1.83286">
        <ele>336</ele>
        <time>2020-06-16T14:05:30Z</time>
      </trkpt>
      <trkpt lat="44.51496" lon="1.83303">
        <ele>336.4</ele>
        <time>2020-06-16T14:05:36Z</time>
      </trkpt>
      <trkpt lat="44.51496" lon="1.83306">
        <ele>336.8</ele>
        <time>2020-06-16T14:05:37Z</time>
      </trkpt>
      <trkpt lat="44.51497" lon="1.83308">
        <ele>337.2</ele>
        <time>2020-06-16T14:05:38Z</time>
      </trkpt>
      <trkpt lat="44.51498" lon="1.8331">
        <ele>337.6</ele>
        <time>2020-06-16T14:05:39Z</time>
      </trkpt>
      <trkpt lat="44.51499" lon="1.83311">
        <ele>338</ele>
        <time>2020-06-16T14:05:40Z</time>
      </trkpt>
      <trkpt lat="44.515" lon="1.83313">
        <ele>338</ele>
        <time>2020-06-16T14:05:41Z</time>
      </trkpt>
      <trkpt lat="44.51509" lon="1.83333">
        <ele>338</ele>
        <time>2020-06-16T14:05:48Z</time>
      </trkpt>
      <trkpt lat="44.51514" lon="1.83351">
        <ele>338</ele>
        <time>2020-06-16T14:05:53Z</time>
      </trkpt>
      <trkpt lat="44.51515" lon="1.83353">
        <ele>338.4</ele>
        <time>2020-06-16T14:05:54Z</time>
      </trkpt>
      <trkpt lat="44.51516" lon="1.83356">
        <ele>338.8</ele>
        <time>2020-06-16T14:05:55Z</time>
      </trkpt>
      <trkpt lat="44.51517" lon="1.83358">
        <ele>339.2</ele>
        <time>2020-06-16T14:05:56Z</time>
      </trkpt>
      <trkpt lat="44.51519" lon="1.83361">
        <ele>340</ele>
        <time>2020-06-16T14:05:57Z</time>
      </trkpt>
      <trkpt lat="44.5152" lon="1.83364">
        <ele>340</ele>
        <time>2020-06-16T14:05:58Z</time>
      </trkpt>
      <trkpt lat="44.51531" lon="1.83391">
        <ele>340</ele>
        <time>2020-06-16T14:06:05Z</time>
      </trkpt>
      <trkpt lat="44.51543" lon="1.83414">
        <ele>340</ele>
        <time>2020-06-16T14:06:11Z</time>
      </trkpt>
      <trkpt lat="44.51547" lon="1.83422">
        <ele>340.4</ele>
        <time>2020-06-16T14:06:13Z</time>
      </trkpt>
      <trkpt lat="44.51548" lon="1.83425">
        <ele>341</ele>
        <time>2020-06-16T14:06:14Z</time>
      </trkpt>
      <trkpt lat="44.5155" lon="1.83429">
        <ele>341.4</ele>
        <time>2020-06-16T14:06:15Z</time>
      </trkpt>
      <trkpt lat="44.51551" lon="1.83433">
        <ele>341.8</ele>
        <time>2020-06-16T14:06:16Z</time>
      </trkpt>
      <trkpt lat="44.51552" lon="1.83437">
        <ele>342.2</ele>
        <time>2020-06-16T14:06:17Z</time>
      </trkpt>
      <trkpt lat="44.51559" lon="1.83465">
        <ele>342.2</ele>
        <time>2020-06-16T14:06:23Z</time>
      </trkpt>
      <trkpt lat="44.51566" lon="1.83494">
        <ele>342.2</ele>
        <time>2020-06-16T14:06:28Z</time>
      </trkpt>
      <trkpt lat="44.51575" lon="1.83525">
        <ele>342.2</ele>
        <time>2020-06-16T14:06:34Z</time>
      </trkpt>
      <trkpt lat="44.51584" lon="1.83537">
        <ele>342.2</ele>
        <time>2020-06-16T14:06:38Z</time>
      </trkpt>
      <trkpt lat="44.51603" lon="1.8355">
        <ele>342.2</ele>
        <time>2020-06-16T14:06:44Z</time>
      </trkpt>
      <trkpt lat="44.51625" lon="1.83572">
        <ele>342.2</ele>
        <time>2020-06-16T14:06:50Z</time>
      </trkpt>
      <trkpt lat="44.51621" lon="1.83584">
        <ele>342.2</ele>
        <time>2020-06-16T14:06:53Z</time>
      </trkpt>
      <trkpt lat="44.51612" lon="1.83579">
        <ele>342.2</ele>
        <time>2020-06-16T14:06:56Z</time>
      </trkpt>
      <trkpt lat="44.51597" lon="1.83577">
        <ele>342.2</ele>
        <time>2020-06-16T14:07:01Z</time>
      </trkpt>
      <trkpt lat="44.51594" lon="1.83577">
        <ele>342.6</ele>
        <time>2020-06-16T14:07:02Z</time>
      </trkpt>
      <trkpt lat="44.51591" lon="1.83578">
        <ele>343</ele>
        <time>2020-06-16T14:07:03Z</time>
      </trkpt>
      <trkpt lat="44.51589" lon="1.83578">
        <ele>343.4</ele>
        <time>2020-06-16T14:07:04Z</time>
      </trkpt>
      <trkpt lat="44.51587" lon="1.83578">
        <ele>343.8</ele>
        <time>2020-06-16T14:07:05Z</time>
      </trkpt>
      <trkpt lat="44.51585" lon="1.83579">
        <ele>344.2</ele>
        <time>2020-06-16T14:07:06Z</time>
      </trkpt>
      <trkpt lat="44.51583" lon="1.8358">
        <ele>344.2</ele>
        <time>2020-06-16T14:07:07Z</time>
      </trkpt>
      <trkpt lat="44.51582" lon="1.83582">
        <ele>344.2</ele>
        <time>2020-06-16T14:07:08Z</time>
      </trkpt>
      <trkpt lat="44.51578" lon="1.83588">
        <ele>344.2</ele>
        <time>2020-06-16T14:07:11Z</time>
      </trkpt>
      <trkpt lat="44.51577" lon="1.83591">
        <ele>344.6</ele>
        <time>2020-06-16T14:07:12Z</time>
      </trkpt>
      <trkpt lat="44.51577" lon="1.83594">
        <ele>345</ele>
        <time>2020-06-16T14:07:13Z</time>
      </trkpt>
      <trkpt lat="44.51576" lon="1.83597">
        <ele>345.4</ele>
        <time>2020-06-16T14:07:14Z</time>
      </trkpt>
      <trkpt lat="44.51575" lon="1.836">
        <ele>346</ele>
        <time>2020-06-16T14:07:15Z</time>
      </trkpt>
      <trkpt lat="44.51574" lon="1.83603">
        <ele>346.4</ele>
        <time>2020-06-16T14:07:16Z</time>
      </trkpt>
      <trkpt lat="44.51571" lon="1.83618">
        <ele>346.8</ele>
        <time>2020-06-16T14:07:21Z</time>
      </trkpt>
      <trkpt lat="44.51571" lon="1.83621">
        <ele>347.2</ele>
        <time>2020-06-16T14:07:22Z</time>
      </trkpt>
      <trkpt lat="44.5157" lon="1.83624">
        <ele>347.6</ele>
        <time>2020-06-16T14:07:23Z</time>
      </trkpt>
      <trkpt lat="44.5157" lon="1.83628">
        <ele>348</ele>
        <time>2020-06-16T14:07:24Z</time>
      </trkpt>
      <trkpt lat="44.5157" lon="1.83631">
        <ele>348.4</ele>
        <time>2020-06-16T14:07:25Z</time>
      </trkpt>
      <trkpt lat="44.51569" lon="1.83644">
        <ele>348.4</ele>
        <time>2020-06-16T14:07:29Z</time>
      </trkpt>
      <trkpt lat="44.5157" lon="1.83651">
        <ele>348.8</ele>
        <time>2020-06-16T14:07:31Z</time>
      </trkpt>
      <trkpt lat="44.51571" lon="1.83654">
        <ele>349.2</ele>
        <time>2020-06-16T14:07:32Z</time>
      </trkpt>
      <trkpt lat="44.51572" lon="1.83659">
        <ele>349.6</ele>
        <time>2020-06-16T14:07:33Z</time>
      </trkpt>
      <trkpt lat="44.51573" lon="1.83664">
        <ele>350</ele>
        <time>2020-06-16T14:07:34Z</time>
      </trkpt>
      <trkpt lat="44.51573" lon="1.83669">
        <ele>350.4</ele>
        <time>2020-06-16T14:07:35Z</time>
      </trkpt>
      <trkpt lat="44.51572" lon="1.83674">
        <ele>350.4</ele>
        <time>2020-06-16T14:07:36Z</time>
      </trkpt>
      <trkpt lat="44.51574" lon="1.83682">
        <ele>350.4</ele>
        <time>2020-06-16T14:07:38Z</time>
      </trkpt>
      <trkpt lat="44.51584" lon="1.8371">
        <ele>350.4</ele>
        <time>2020-06-16T14:07:44Z</time>
      </trkpt>
      <trkpt lat="44.51596" lon="1.8374">
        <ele>350.4</ele>
        <time>2020-06-16T14:07:50Z</time>
      </trkpt>
      <trkpt lat="44.51605" lon="1.83764">
        <ele>350.4</ele>
        <time>2020-06-16T14:07:55Z</time>
      </trkpt>
      <trkpt lat="44.51618" lon="1.83798">
        <ele>350.4</ele>
        <time>2020-06-16T14:08:02Z</time>
      </trkpt>
      <trkpt lat="44.51625" lon="1.83831">
        <ele>350.4</ele>
        <time>2020-06-16T14:08:08Z</time>
      </trkpt>
      <trkpt lat="44.51628" lon="1.83849">
        <ele>350.8</ele>
        <time>2020-06-16T14:08:12Z</time>
      </trkpt>
      <trkpt lat="44.51629" lon="1.83854">
        <ele>351.2</ele>
        <time>2020-06-16T14:08:13Z</time>
      </trkpt>
      <trkpt lat="44.5163" lon="1.83859">
        <ele>351.6</ele>
        <time>2020-06-16T14:08:14Z</time>
      </trkpt>
      <trkpt lat="44.5163" lon="1.83865">
        <ele>352</ele>
        <time>2020-06-16T14:08:15Z</time>
      </trkpt>
      <trkpt lat="44.51631" lon="1.83871">
        <ele>352.4</ele>
        <time>2020-06-16T14:08:16Z</time>
      </trkpt>
      <trkpt lat="44.51632" lon="1.83882">
        <ele>352.4</ele>
        <time>2020-06-16T14:08:18Z</time>
      </trkpt>
      <trkpt lat="44.51636" lon="1.8392">
        <ele>352.4</ele>
        <time>2020-06-16T14:08:25Z</time>
      </trkpt>
      <trkpt lat="44.51639" lon="1.83947">
        <ele>352.8</ele>
        <time>2020-06-16T14:08:30Z</time>
      </trkpt>
      <trkpt lat="44.51639" lon="1.83952">
        <ele>353.2</ele>
        <time>2020-06-16T14:08:31Z</time>
      </trkpt>
      <trkpt lat="44.5164" lon="1.83957">
        <ele>353.6</ele>
        <time>2020-06-16T14:08:32Z</time>
      </trkpt>
      <trkpt lat="44.51641" lon="1.83963">
        <ele>354</ele>
        <time>2020-06-16T14:08:33Z</time>
      </trkpt>
      <trkpt lat="44.51642" lon="1.83968">
        <ele>354.4</ele>
        <time>2020-06-16T14:08:34Z</time>
      </trkpt>
      <trkpt lat="44.51642" lon="1.83979">
        <ele>354.4</ele>
        <time>2020-06-16T14:08:36Z</time>
      </trkpt>
      <trkpt lat="44.51649" lon="1.84009">
        <ele>354.4</ele>
        <time>2020-06-16T14:08:42Z</time>
      </trkpt>
      <trkpt lat="44.51667" lon="1.84032">
        <ele>354.4</ele>
        <time>2020-06-16T14:08:48Z</time>
      </trkpt>
      <trkpt lat="44.51681" lon="1.84052">
        <ele>354.8</ele>
        <time>2020-06-16T14:08:53Z</time>
      </trkpt>
      <trkpt lat="44.51685" lon="1.84056">
        <ele>355.2</ele>
        <time>2020-06-16T14:08:54Z</time>
      </trkpt>
      <trkpt lat="44.51687" lon="1.8406">
        <ele>355.6</ele>
        <time>2020-06-16T14:08:55Z</time>
      </trkpt>
      <trkpt lat="44.5169" lon="1.84064">
        <ele>356</ele>
        <time>2020-06-16T14:08:56Z</time>
      </trkpt>
      <trkpt lat="44.51693" lon="1.84068">
        <ele>356.4</ele>
        <time>2020-06-16T14:08:57Z</time>
      </trkpt>
      <trkpt lat="44.51701" lon="1.84081">
        <ele>356.4</ele>
        <time>2020-06-16T14:09:00Z</time>
      </trkpt>
      <trkpt lat="44.51713" lon="1.84097">
        <ele>356.4</ele>
        <time>2020-06-16T14:09:04Z</time>
      </trkpt>
      <trkpt lat="44.51722" lon="1.84109">
        <ele>356.4</ele>
        <time>2020-06-16T14:09:07Z</time>
      </trkpt>
      <trkpt lat="44.51741" lon="1.84136">
        <ele>356.4</ele>
        <time>2020-06-16T14:09:14Z</time>
      </trkpt>
      <trkpt lat="44.51743" lon="1.8414">
        <ele>356.8</ele>
        <time>2020-06-16T14:09:15Z</time>
      </trkpt>
      <trkpt lat="44.51747" lon="1.84144">
        <ele>357.2</ele>
        <time>2020-06-16T14:09:16Z</time>
      </trkpt>
      <trkpt lat="44.51749" lon="1.84147">
        <ele>357.6</ele>
        <time>2020-06-16T14:09:17Z</time>
      </trkpt>
      <trkpt lat="44.51752" lon="1.84151">
        <ele>358</ele>
        <time>2020-06-16T14:09:18Z</time>
      </trkpt>
      <trkpt lat="44.51754" lon="1.84155">
        <ele>358.4</ele>
        <time>2020-06-16T14:09:19Z</time>
      </trkpt>
      <trkpt lat="44.51756" lon="1.84159">
        <ele>358.4</ele>
        <time>2020-06-16T14:09:20Z</time>
      </trkpt>
      <trkpt lat="44.51766" lon="1.84173">
        <ele>359</ele>
        <time>2020-06-16T14:09:24Z</time>
      </trkpt>
      <trkpt lat="44.51769" lon="1.84176">
        <ele>359.4</ele>
        <time>2020-06-16T14:09:25Z</time>
      </trkpt>
      <trkpt lat="44.51771" lon="1.84179">
        <ele>359.8</ele>
        <time>2020-06-16T14:09:26Z</time>
      </trkpt>
      <trkpt lat="44.51774" lon="1.84182">
        <ele>360.2</ele>
        <time>2020-06-16T14:09:27Z</time>
      </trkpt>
      <trkpt lat="44.51776" lon="1.84185">
        <ele>360.6</ele>
        <time>2020-06-16T14:09:28Z</time>
      </trkpt>
      <trkpt lat="44.51781" lon="1.84191">
        <ele>361</ele>
        <time>2020-06-16T14:09:30Z</time>
      </trkpt>
      <trkpt lat="44.51784" lon="1.84193">
        <ele>361.4</ele>
        <time>2020-06-16T14:09:31Z</time>
      </trkpt>
      <trkpt lat="44.51786" lon="1.84196">
        <ele>361.8</ele>
        <time>2020-06-16T14:09:32Z</time>
      </trkpt>
      <trkpt lat="44.51788" lon="1.84199">
        <ele>362.2</ele>
        <time>2020-06-16T14:09:33Z</time>
      </trkpt>
      <trkpt lat="44.51791" lon="1.84202">
        <ele>362.8</ele>
        <time>2020-06-16T14:09:34Z</time>
      </trkpt>
      <trkpt lat="44.51798" lon="1.84213">
        <ele>363.2</ele>
        <time>2020-06-16T14:09:37Z</time>
      </trkpt>
      <trkpt lat="44.51799" lon="1.84216">
        <ele>363.6</ele>
        <time>2020-06-16T14:09:38Z</time>
      </trkpt>
      <trkpt lat="44.51801" lon="1.84218">
        <ele>364.4</ele>
        <time>2020-06-16T14:09:39Z</time>
      </trkpt>
      <trkpt lat="44.51803" lon="1.8422">
        <ele>364.8</ele>
        <time>2020-06-16T14:09:40Z</time>
      </trkpt>
      <trkpt lat="44.51809" lon="1.84224">
        <ele>364.8</ele>
        <time>2020-06-16T14:09:43Z</time>
      </trkpt>
      <trkpt lat="44.5182" lon="1.84233">
        <ele>364.8</ele>
        <time>2020-06-16T14:09:48Z</time>
      </trkpt>
      <trkpt lat="44.51838" lon="1.84247">
        <ele>364.8</ele>
        <time>2020-06-16T14:09:53Z</time>
      </trkpt>
      <trkpt lat="44.51849" lon="1.84255">
        <ele>364.8</ele>
        <time>2020-06-16T14:09:58Z</time>
      </trkpt>
      <trkpt lat="44.51851" lon="1.84256">
        <ele>364.8</ele>
        <time>2020-06-16T14:10:03Z</time>
      </trkpt>
      <trkpt lat="44.51854" lon="1.84262">
        <ele>364.8</ele>
        <time>2020-06-16T14:10:10Z</time>
      </trkpt>
      <trkpt lat="44.51862" lon="1.84274">
        <ele>364.4</ele>
        <time>2020-06-16T14:10:12Z</time>
      </trkpt>
      <trkpt lat="44.51867" lon="1.84279">
        <ele>364</ele>
        <time>2020-06-16T14:10:13Z</time>
      </trkpt>
      <trkpt lat="44.51871" lon="1.84285">
        <ele>363.6</ele>
        <time>2020-06-16T14:10:14Z</time>
      </trkpt>
      <trkpt lat="44.51876" lon="1.84291">
        <ele>363.2</ele>
        <time>2020-06-16T14:10:15Z</time>
      </trkpt>
      <trkpt lat="44.51881" lon="1.84297">
        <ele>362.8</ele>
        <time>2020-06-16T14:10:16Z</time>
      </trkpt>
      <trkpt lat="44.51891" lon="1.84308">
        <ele>362.4</ele>
        <time>2020-06-16T14:10:18Z</time>
      </trkpt>
      <trkpt lat="44.51895" lon="1.84313">
        <ele>362</ele>
        <time>2020-06-16T14:10:19Z</time>
      </trkpt>
      <trkpt lat="44.519" lon="1.84318">
        <ele>361.6</ele>
        <time>2020-06-16T14:10:20Z</time>
      </trkpt>
      <trkpt lat="44.51904" lon="1.84323">
        <ele>361.2</ele>
        <time>2020-06-16T14:10:21Z</time>
      </trkpt>
      <trkpt lat="44.51909" lon="1.84328">
        <ele>360.8</ele>
        <time>2020-06-16T14:10:22Z</time>
      </trkpt>
      <trkpt lat="44.51935" lon="1.8436">
        <ele>360.8</ele>
        <time>2020-06-16T14:10:28Z</time>
      </trkpt>
      <trkpt lat="44.51951" lon="1.84382">
        <ele>360.8</ele>
        <time>2020-06-16T14:10:32Z</time>
      </trkpt>
      <trkpt lat="44.5196" lon="1.84391">
        <ele>360.8</ele>
        <time>2020-06-16T14:10:34Z</time>
      </trkpt>
      <trkpt lat="44.5198" lon="1.84417">
        <ele>360.8</ele>
        <time>2020-06-16T14:10:39Z</time>
      </trkpt>
      <trkpt lat="44.5199" lon="1.84431">
        <ele>360.8</ele>
        <time>2020-06-16T14:10:42Z</time>
      </trkpt>
      <trkpt lat="44.51997" lon="1.84439">
        <ele>360.8</ele>
        <time>2020-06-16T14:10:44Z</time>
      </trkpt>
      <trkpt lat="44.52" lon="1.84444">
        <ele>360.8</ele>
        <time>2020-06-16T14:10:45Z</time>
      </trkpt>
      <trkpt lat="44.52014" lon="1.84463">
        <ele>360.8</ele>
        <time>2020-06-16T14:10:49Z</time>
      </trkpt>
      <trkpt lat="44.52026" lon="1.84476">
        <ele>360.8</ele>
        <time>2020-06-16T14:10:52Z</time>
      </trkpt>
      <trkpt lat="44.52037" lon="1.84486">
        <ele>360.8</ele>
        <time>2020-06-16T14:10:54Z</time>
      </trkpt>
      <trkpt lat="44.52042" lon="1.84492">
        <ele>360.2</ele>
        <time>2020-06-16T14:10:55Z</time>
      </trkpt>
      <trkpt lat="44.52047" lon="1.84498">
        <ele>359.6</ele>
        <time>2020-06-16T14:10:56Z</time>
      </trkpt>
      <trkpt lat="44.52053" lon="1.84506">
        <ele>359</ele>
        <time>2020-06-16T14:10:57Z</time>
      </trkpt>
      <trkpt lat="44.52057" lon="1.84513">
        <ele>358.2</ele>
        <time>2020-06-16T14:10:58Z</time>
      </trkpt>
      <trkpt lat="44.52061" lon="1.84519">
        <ele>357.6</ele>
        <time>2020-06-16T14:10:59Z</time>
      </trkpt>
      <trkpt lat="44.52065" lon="1.84526">
        <ele>356.8</ele>
        <time>2020-06-16T14:11:00Z</time>
      </trkpt>
      <trkpt lat="44.52069" lon="1.84532">
        <ele>356.2</ele>
        <time>2020-06-16T14:11:01Z</time>
      </trkpt>
      <trkpt lat="44.52077" lon="1.84546">
        <ele>356.2</ele>
        <time>2020-06-16T14:11:03Z</time>
      </trkpt>
      <trkpt lat="44.52081" lon="1.84552">
        <ele>355.6</ele>
        <time>2020-06-16T14:11:04Z</time>
      </trkpt>
      <trkpt lat="44.52085" lon="1.84559">
        <ele>355.2</ele>
        <time>2020-06-16T14:11:05Z</time>
      </trkpt>
      <trkpt lat="44.52089" lon="1.84566">
        <ele>354.8</ele>
        <time>2020-06-16T14:11:06Z</time>
      </trkpt>
      <trkpt lat="44.52093" lon="1.84574">
        <ele>354.4</ele>
        <time>2020-06-16T14:11:07Z</time>
      </trkpt>
      <trkpt lat="44.52097" lon="1.84581">
        <ele>353.8</ele>
        <time>2020-06-16T14:11:08Z</time>
      </trkpt>
      <trkpt lat="44.52101" lon="1.84589">
        <ele>353.8</ele>
        <time>2020-06-16T14:11:09Z</time>
      </trkpt>
      <trkpt lat="44.52123" lon="1.8463">
        <ele>353.8</ele>
        <time>2020-06-16T14:11:15Z</time>
      </trkpt>
      <trkpt lat="44.52135" lon="1.84661">
        <ele>353.8</ele>
        <time>2020-06-16T14:11:20Z</time>
      </trkpt>
      <trkpt lat="44.52137" lon="1.84667">
        <ele>353.8</ele>
        <time>2020-06-16T14:11:21Z</time>
      </trkpt>
      <trkpt lat="44.52133" lon="1.84686">
        <ele>353.8</ele>
        <time>2020-06-16T14:11:24Z</time>
      </trkpt>
      <trkpt lat="44.52117" lon="1.84708">
        <ele>353.4</ele>
        <time>2020-06-16T14:11:27Z</time>
      </trkpt>
      <trkpt lat="44.52109" lon="1.84717">
        <ele>352.8</ele>
        <time>2020-06-16T14:11:28Z</time>
      </trkpt>
      <trkpt lat="44.52101" lon="1.84726">
        <ele>351.8</ele>
        <time>2020-06-16T14:11:29Z</time>
      </trkpt>
      <trkpt lat="44.52093" lon="1.84736">
        <ele>350.8</ele>
        <time>2020-06-16T14:11:30Z</time>
      </trkpt>
      <trkpt lat="44.52083" lon="1.84745">
        <ele>349.6</ele>
        <time>2020-06-16T14:11:31Z</time>
      </trkpt>
      <trkpt lat="44.52073" lon="1.84755">
        <ele>348.4</ele>
        <time>2020-06-16T14:11:32Z</time>
      </trkpt>
      <trkpt lat="44.52062" lon="1.84765">
        <ele>347</ele>
        <time>2020-06-16T14:11:33Z</time>
      </trkpt>
      <trkpt lat="44.52051" lon="1.84775">
        <ele>345.6</ele>
        <time>2020-06-16T14:11:34Z</time>
      </trkpt>
      <trkpt lat="44.52041" lon="1.84785">
        <ele>344.2</ele>
        <time>2020-06-16T14:11:35Z</time>
      </trkpt>
      <trkpt lat="44.52031" lon="1.84794">
        <ele>342.8</ele>
        <time>2020-06-16T14:11:36Z</time>
      </trkpt>
      <trkpt lat="44.52025" lon="1.84804">
        <ele>341.2</ele>
        <time>2020-06-16T14:11:37Z</time>
      </trkpt>
      <trkpt lat="44.52019" lon="1.84813">
        <ele>339.8</ele>
        <time>2020-06-16T14:11:38Z</time>
      </trkpt>
      <trkpt lat="44.52013" lon="1.84824">
        <ele>339.2</ele>
        <time>2020-06-16T14:11:39Z</time>
      </trkpt>
      <trkpt lat="44.52008" lon="1.84833">
        <ele>338.4</ele>
        <time>2020-06-16T14:11:40Z</time>
      </trkpt>
      <trkpt lat="44.52005" lon="1.84844">
        <ele>337.8</ele>
        <time>2020-06-16T14:11:41Z</time>
      </trkpt>
      <trkpt lat="44.52003" lon="1.84855">
        <ele>337</ele>
        <time>2020-06-16T14:11:42Z</time>
      </trkpt>
      <trkpt lat="44.52002" lon="1.84866">
        <ele>335.8</ele>
        <time>2020-06-16T14:11:43Z</time>
      </trkpt>
      <trkpt lat="44.52001" lon="1.84878">
        <ele>335.4</ele>
        <time>2020-06-16T14:11:44Z</time>
      </trkpt>
      <trkpt lat="44.52001" lon="1.8489">
        <ele>335</ele>
        <time>2020-06-16T14:11:45Z</time>
      </trkpt>
      <trkpt lat="44.52" lon="1.84902">
        <ele>334.4</ele>
        <time>2020-06-16T14:11:46Z</time>
      </trkpt>
      <trkpt lat="44.52" lon="1.84914">
        <ele>333.8</ele>
        <time>2020-06-16T14:11:47Z</time>
      </trkpt>
      <trkpt lat="44.51999" lon="1.84925">
        <ele>333.2</ele>
        <time>2020-06-16T14:11:48Z</time>
      </trkpt>
      <trkpt lat="44.51997" lon="1.84936">
        <ele>332.8</ele>
        <time>2020-06-16T14:11:49Z</time>
      </trkpt>
      <trkpt lat="44.51996" lon="1.84948">
        <ele>332</ele>
        <time>2020-06-16T14:11:50Z</time>
      </trkpt>
      <trkpt lat="44.51994" lon="1.84961">
        <ele>331.4</ele>
        <time>2020-06-16T14:11:51Z</time>
      </trkpt>
      <trkpt lat="44.51992" lon="1.84973">
        <ele>330.8</ele>
        <time>2020-06-16T14:11:52Z</time>
      </trkpt>
      <trkpt lat="44.5199" lon="1.84985">
        <ele>330</ele>
        <time>2020-06-16T14:11:53Z</time>
      </trkpt>
      <trkpt lat="44.51987" lon="1.84998">
        <ele>329.2</ele>
        <time>2020-06-16T14:11:54Z</time>
      </trkpt>
      <trkpt lat="44.51984" lon="1.85011">
        <ele>328.6</ele>
        <time>2020-06-16T14:11:55Z</time>
      </trkpt>
      <trkpt lat="44.5198" lon="1.85024">
        <ele>327.8</ele>
        <time>2020-06-16T14:11:56Z</time>
      </trkpt>
      <trkpt lat="44.51976" lon="1.85037">
        <ele>327</ele>
        <time>2020-06-16T14:11:57Z</time>
      </trkpt>
      <trkpt lat="44.51972" lon="1.85049">
        <ele>326.6</ele>
        <time>2020-06-16T14:11:58Z</time>
      </trkpt>
      <trkpt lat="44.51968" lon="1.85062">
        <ele>326.2</ele>
        <time>2020-06-16T14:11:59Z</time>
      </trkpt>
      <trkpt lat="44.51964" lon="1.85075">
        <ele>325.6</ele>
        <time>2020-06-16T14:12:00Z</time>
      </trkpt>
      <trkpt lat="44.5196" lon="1.85086">
        <ele>325.2</ele>
        <time>2020-06-16T14:12:01Z</time>
      </trkpt>
      <trkpt lat="44.51956" lon="1.85096">
        <ele>324.6</ele>
        <time>2020-06-16T14:12:02Z</time>
      </trkpt>
      <trkpt lat="44.51952" lon="1.85108">
        <ele>324.2</ele>
        <time>2020-06-16T14:12:03Z</time>
      </trkpt>
      <trkpt lat="44.51948" lon="1.85118">
        <ele>323.6</ele>
        <time>2020-06-16T14:12:04Z</time>
      </trkpt>
      <trkpt lat="44.51944" lon="1.85128">
        <ele>323</ele>
        <time>2020-06-16T14:12:05Z</time>
      </trkpt>
      <trkpt lat="44.51937" lon="1.85138">
        <ele>322.6</ele>
        <time>2020-06-16T14:12:06Z</time>
      </trkpt>
      <trkpt lat="44.51932" lon="1.85148">
        <ele>322</ele>
        <time>2020-06-16T14:12:07Z</time>
      </trkpt>
      <trkpt lat="44.51926" lon="1.85157">
        <ele>321</ele>
        <time>2020-06-16T14:12:08Z</time>
      </trkpt>
      <trkpt lat="44.51922" lon="1.85166">
        <ele>320.4</ele>
        <time>2020-06-16T14:12:09Z</time>
      </trkpt>
      <trkpt lat="44.51901" lon="1.85197">
        <ele>320.4</ele>
        <time>2020-06-16T14:12:13Z</time>
      </trkpt>
      <trkpt lat="44.51895" lon="1.85203">
        <ele>320.4</ele>
        <time>2020-06-16T14:12:14Z</time>
      </trkpt>
      <trkpt lat="44.51863" lon="1.85235">
        <ele>320.8</ele>
        <time>2020-06-16T14:12:20Z</time>
      </trkpt>
      <trkpt lat="44.51859" lon="1.8524">
        <ele>321.2</ele>
        <time>2020-06-16T14:12:21Z</time>
      </trkpt>
      <trkpt lat="44.51855" lon="1.85245">
        <ele>321.6</ele>
        <time>2020-06-16T14:12:22Z</time>
      </trkpt>
      <trkpt lat="44.51851" lon="1.8525">
        <ele>322</ele>
        <time>2020-06-16T14:12:23Z</time>
      </trkpt>
      <trkpt lat="44.51847" lon="1.85255">
        <ele>322.6</ele>
        <time>2020-06-16T14:12:24Z</time>
      </trkpt>
      <trkpt lat="44.51839" lon="1.85264">
        <ele>322.6</ele>
        <time>2020-06-16T14:12:26Z</time>
      </trkpt>
      <trkpt lat="44.51835" lon="1.85268">
        <ele>322.6</ele>
        <time>2020-06-16T14:12:27Z</time>
      </trkpt>
      <trkpt lat="44.51817" lon="1.85282">
        <ele>322.6</ele>
        <time>2020-06-16T14:12:33Z</time>
      </trkpt>
      <trkpt lat="44.51814" lon="1.85282">
        <ele>323</ele>
        <time>2020-06-16T14:12:35Z</time>
      </trkpt>
      <trkpt lat="44.51813" lon="1.85283">
        <ele>323.4</ele>
        <time>2020-06-16T14:12:36Z</time>
      </trkpt>
      <trkpt lat="44.51812" lon="1.85286">
        <ele>323.8</ele>
        <time>2020-06-16T14:12:37Z</time>
      </trkpt>
      <trkpt lat="44.51811" lon="1.85289">
        <ele>324.2</ele>
        <time>2020-06-16T14:12:38Z</time>
      </trkpt>
      <trkpt lat="44.51809" lon="1.85292">
        <ele>324.6</ele>
        <time>2020-06-16T14:12:39Z</time>
      </trkpt>
      <trkpt lat="44.51804" lon="1.85298">
        <ele>324.6</ele>
        <time>2020-06-16T14:12:41Z</time>
      </trkpt>
      <trkpt lat="44.51787" lon="1.8531">
        <ele>324.6</ele>
        <time>2020-06-16T14:12:46Z</time>
      </trkpt>
      <trkpt lat="44.51768" lon="1.85329">
        <ele>324.6</ele>
        <time>2020-06-16T14:12:51Z</time>
      </trkpt>
      <trkpt lat="44.51763" lon="1.85332">
        <ele>324.6</ele>
        <time>2020-06-16T14:12:52Z</time>
      </trkpt>
      <trkpt lat="44.51758" lon="1.85335">
        <ele>324.6</ele>
        <time>2020-06-16T14:12:53Z</time>
      </trkpt>
      <trkpt lat="44.51733" lon="1.8535">
        <ele>324</ele>
        <time>2020-06-16T14:12:57Z</time>
      </trkpt>
      <trkpt lat="44.51726" lon="1.85355">
        <ele>323.6</ele>
        <time>2020-06-16T14:12:58Z</time>
      </trkpt>
      <trkpt lat="44.5172" lon="1.8536">
        <ele>323.2</ele>
        <time>2020-06-16T14:12:59Z</time>
      </trkpt>
      <trkpt lat="44.51713" lon="1.85365">
        <ele>322.8</ele>
        <time>2020-06-16T14:13:00Z</time>
      </trkpt>
      <trkpt lat="44.51707" lon="1.8537">
        <ele>322.2</ele>
        <time>2020-06-16T14:13:01Z</time>
      </trkpt>
      <trkpt lat="44.51703" lon="1.85376">
        <ele>321.6</ele>
        <time>2020-06-16T14:13:02Z</time>
      </trkpt>
      <trkpt lat="44.51701" lon="1.85382">
        <ele>321.2</ele>
        <time>2020-06-16T14:13:03Z</time>
      </trkpt>
      <trkpt lat="44.51699" lon="1.85387">
        <ele>320.4</ele>
        <time>2020-06-16T14:13:04Z</time>
      </trkpt>
      <trkpt lat="44.51699" lon="1.85394">
        <ele>319.8</ele>
        <time>2020-06-16T14:13:05Z</time>
      </trkpt>
      <trkpt lat="44.517" lon="1.85401">
        <ele>319.2</ele>
        <time>2020-06-16T14:13:06Z</time>
      </trkpt>
      <trkpt lat="44.51701" lon="1.85409">
        <ele>318.4</ele>
        <time>2020-06-16T14:13:07Z</time>
      </trkpt>
      <trkpt lat="44.51703" lon="1.85416">
        <ele>317.8</ele>
        <time>2020-06-16T14:13:08Z</time>
      </trkpt>
      <trkpt lat="44.51705" lon="1.85424">
        <ele>317.8</ele>
        <time>2020-06-16T14:13:09Z</time>
      </trkpt>
      <trkpt lat="44.51707" lon="1.85443">
        <ele>317.8</ele>
        <time>2020-06-16T14:13:11Z</time>
      </trkpt>
      <trkpt lat="44.51707" lon="1.85469">
        <ele>317.8</ele>
        <time>2020-06-16T14:13:14Z</time>
      </trkpt>
      <trkpt lat="44.51706" lon="1.85478">
        <ele>317.4</ele>
        <time>2020-06-16T14:13:15Z</time>
      </trkpt>
      <trkpt lat="44.51706" lon="1.85487">
        <ele>317</ele>
        <time>2020-06-16T14:13:16Z</time>
      </trkpt>
      <trkpt lat="44.51705" lon="1.85496">
        <ele>316.4</ele>
        <time>2020-06-16T14:13:17Z</time>
      </trkpt>
      <trkpt lat="44.51705" lon="1.85505">
        <ele>316</ele>
        <time>2020-06-16T14:13:18Z</time>
      </trkpt>
      <trkpt lat="44.51704" lon="1.85513">
        <ele>315.6</ele>
        <time>2020-06-16T14:13:19Z</time>
      </trkpt>
      <trkpt lat="44.51702" lon="1.85521">
        <ele>315.6</ele>
        <time>2020-06-16T14:13:20Z</time>
      </trkpt>
      <trkpt lat="44.51699" lon="1.85529">
        <ele>315.6</ele>
        <time>2020-06-16T14:13:21Z</time>
      </trkpt>
      <trkpt lat="44.51688" lon="1.85551">
        <ele>315</ele>
        <time>2020-06-16T14:13:24Z</time>
      </trkpt>
      <trkpt lat="44.51681" lon="1.85554">
        <ele>314.6</ele>
        <time>2020-06-16T14:13:25Z</time>
      </trkpt>
      <trkpt lat="44.51674" lon="1.85555">
        <ele>314.2</ele>
        <time>2020-06-16T14:13:26Z</time>
      </trkpt>
      <trkpt lat="44.51666" lon="1.85557">
        <ele>313.6</ele>
        <time>2020-06-16T14:13:27Z</time>
      </trkpt>
      <trkpt lat="44.51658" lon="1.8556">
        <ele>313.2</ele>
        <time>2020-06-16T14:13:28Z</time>
      </trkpt>
      <trkpt lat="44.51652" lon="1.85564">
        <ele>312.6</ele>
        <time>2020-06-16T14:13:29Z</time>
      </trkpt>
      <trkpt lat="44.51648" lon="1.85567">
        <ele>312</ele>
        <time>2020-06-16T14:13:30Z</time>
      </trkpt>
      <trkpt lat="44.51644" lon="1.85571">
        <ele>311.2</ele>
        <time>2020-06-16T14:13:31Z</time>
      </trkpt>
      <trkpt lat="44.51642" lon="1.85578">
        <ele>310.4</ele>
        <time>2020-06-16T14:13:32Z</time>
      </trkpt>
      <trkpt lat="44.51643" lon="1.85586">
        <ele>309.8</ele>
        <time>2020-06-16T14:13:33Z</time>
      </trkpt>
      <trkpt lat="44.51645" lon="1.85594">
        <ele>309</ele>
        <time>2020-06-16T14:13:34Z</time>
      </trkpt>
      <trkpt lat="44.51647" lon="1.85602">
        <ele>308.2</ele>
        <time>2020-06-16T14:13:35Z</time>
      </trkpt>
      <trkpt lat="44.51652" lon="1.85617">
        <ele>308.2</ele>
        <time>2020-06-16T14:13:37Z</time>
      </trkpt>
      <trkpt lat="44.51654" lon="1.85625">
        <ele>307.8</ele>
        <time>2020-06-16T14:13:38Z</time>
      </trkpt>
      <trkpt lat="44.51656" lon="1.85634">
        <ele>307.4</ele>
        <time>2020-06-16T14:13:39Z</time>
      </trkpt>
      <trkpt lat="44.51657" lon="1.85642">
        <ele>307</ele>
        <time>2020-06-16T14:13:40Z</time>
      </trkpt>
      <trkpt lat="44.51658" lon="1.8565">
        <ele>306.6</ele>
        <time>2020-06-16T14:13:41Z</time>
      </trkpt>
      <trkpt lat="44.51658" lon="1.85659">
        <ele>306</ele>
        <time>2020-06-16T14:13:42Z</time>
      </trkpt>
      <trkpt lat="44.51659" lon="1.85697">
        <ele>306</ele>
        <time>2020-06-16T14:13:47Z</time>
      </trkpt>
      <trkpt lat="44.51658" lon="1.85704">
        <ele>306</ele>
        <time>2020-06-16T14:13:48Z</time>
      </trkpt>
      <trkpt lat="44.51649" lon="1.85724">
        <ele>306</ele>
        <time>2020-06-16T14:13:51Z</time>
      </trkpt>
      <trkpt lat="44.51644" lon="1.85738">
        <ele>306</ele>
        <time>2020-06-16T14:13:53Z</time>
      </trkpt>
      <trkpt lat="44.51641" lon="1.85761">
        <ele>306</ele>
        <time>2020-06-16T14:13:56Z</time>
      </trkpt>
      <trkpt lat="44.51641" lon="1.85776">
        <ele>306</ele>
        <time>2020-06-16T14:13:58Z</time>
      </trkpt>
      <trkpt lat="44.51642" lon="1.85798">
        <ele>306</ele>
        <time>2020-06-16T14:14:01Z</time>
      </trkpt>
      <trkpt lat="44.51642" lon="1.85805">
        <ele>306</ele>
        <time>2020-06-16T14:14:02Z</time>
      </trkpt>
      <trkpt lat="44.51642" lon="1.85819">
        <ele>306</ele>
        <time>2020-06-16T14:14:04Z</time>
      </trkpt>
      <trkpt lat="44.5164" lon="1.8583">
        <ele>306</ele>
        <time>2020-06-16T14:14:06Z</time>
      </trkpt>
      <trkpt lat="44.51633" lon="1.85831">
        <ele>306</ele>
        <time>2020-06-16T14:14:08Z</time>
      </trkpt>
      <trkpt lat="44.51622" lon="1.8582">
        <ele>306</ele>
        <time>2020-06-16T14:14:11Z</time>
      </trkpt>
      <trkpt lat="44.51613" lon="1.85811">
        <ele>306</ele>
        <time>2020-06-16T14:14:13Z</time>
      </trkpt>
      <trkpt lat="44.51607" lon="1.85807">
        <ele>305.6</ele>
        <time>2020-06-16T14:14:14Z</time>
      </trkpt>
      <trkpt lat="44.51601" lon="1.85804">
        <ele>305</ele>
        <time>2020-06-16T14:14:15Z</time>
      </trkpt>
      <trkpt lat="44.51595" lon="1.858">
        <ele>304.6</ele>
        <time>2020-06-16T14:14:16Z</time>
      </trkpt>
      <trkpt lat="44.51589" lon="1.85797">
        <ele>304</ele>
        <time>2020-06-16T14:14:17Z</time>
      </trkpt>
      <trkpt lat="44.51584" lon="1.85793">
        <ele>303.2</ele>
        <time>2020-06-16T14:14:18Z</time>
      </trkpt>
      <trkpt lat="44.51577" lon="1.85791">
        <ele>302.4</ele>
        <time>2020-06-16T14:14:19Z</time>
      </trkpt>
      <trkpt lat="44.5157" lon="1.85791">
        <ele>301.6</ele>
        <time>2020-06-16T14:14:20Z</time>
      </trkpt>
      <trkpt lat="44.51563" lon="1.85793">
        <ele>300.6</ele>
        <time>2020-06-16T14:14:21Z</time>
      </trkpt>
      <trkpt lat="44.51556" lon="1.85795">
        <ele>299.6</ele>
        <time>2020-06-16T14:14:22Z</time>
      </trkpt>
      <trkpt lat="44.5155" lon="1.85795">
        <ele>298.8</ele>
        <time>2020-06-16T14:14:23Z</time>
      </trkpt>
      <trkpt lat="44.51544" lon="1.85795">
        <ele>297.8</ele>
        <time>2020-06-16T14:14:24Z</time>
      </trkpt>
      <trkpt lat="44.51537" lon="1.85794">
        <ele>296.8</ele>
        <time>2020-06-16T14:14:25Z</time>
      </trkpt>
      <trkpt lat="44.51532" lon="1.85792">
        <ele>295.8</ele>
        <time>2020-06-16T14:14:26Z</time>
      </trkpt>
      <trkpt lat="44.51527" lon="1.85788">
        <ele>294.8</ele>
        <time>2020-06-16T14:14:27Z</time>
      </trkpt>
      <trkpt lat="44.51523" lon="1.85783">
        <ele>293.8</ele>
        <time>2020-06-16T14:14:28Z</time>
      </trkpt>
      <trkpt lat="44.51521" lon="1.85774">
        <ele>292.8</ele>
        <time>2020-06-16T14:14:29Z</time>
      </trkpt>
      <trkpt lat="44.51516" lon="1.85766">
        <ele>292</ele>
        <time>2020-06-16T14:14:30Z</time>
      </trkpt>
      <trkpt lat="44.51509" lon="1.8576">
        <ele>291</ele>
        <time>2020-06-16T14:14:31Z</time>
      </trkpt>
      <trkpt lat="44.51502" lon="1.85755">
        <ele>290.2</ele>
        <time>2020-06-16T14:14:32Z</time>
      </trkpt>
      <trkpt lat="44.51495" lon="1.85749">
        <ele>289.4</ele>
        <time>2020-06-16T14:14:33Z</time>
      </trkpt>
      <trkpt lat="44.51488" lon="1.85746">
        <ele>288.6</ele>
        <time>2020-06-16T14:14:34Z</time>
      </trkpt>
      <trkpt lat="44.51482" lon="1.85744">
        <ele>287.8</ele>
        <time>2020-06-16T14:14:35Z</time>
      </trkpt>
      <trkpt lat="44.51477" lon="1.85744">
        <ele>286.8</ele>
        <time>2020-06-16T14:14:36Z</time>
      </trkpt>
      <trkpt lat="44.51466" lon="1.85744">
        <ele>286.8</ele>
        <time>2020-06-16T14:14:38Z</time>
      </trkpt>
      <trkpt lat="44.51461" lon="1.85745">
        <ele>286.8</ele>
        <time>2020-06-16T14:14:39Z</time>
      </trkpt>
      <trkpt lat="44.51445" lon="1.85748">
        <ele>286.8</ele>
        <time>2020-06-16T14:14:42Z</time>
      </trkpt>
      <trkpt lat="44.51435" lon="1.85751">
        <ele>286.8</ele>
        <time>2020-06-16T14:14:44Z</time>
      </trkpt>
      <trkpt lat="44.51422" lon="1.85754">
        <ele>287.2</ele>
        <time>2020-06-16T14:14:47Z</time>
      </trkpt>
      <trkpt lat="44.51417" lon="1.85755">
        <ele>287.6</ele>
        <time>2020-06-16T14:14:48Z</time>
      </trkpt>
      <trkpt lat="44.51413" lon="1.85757">
        <ele>288</ele>
        <time>2020-06-16T14:14:49Z</time>
      </trkpt>
      <trkpt lat="44.51408" lon="1.85758">
        <ele>288.6</ele>
        <time>2020-06-16T14:14:50Z</time>
      </trkpt>
      <trkpt lat="44.51404" lon="1.8576">
        <ele>289</ele>
        <time>2020-06-16T14:14:51Z</time>
      </trkpt>
      <trkpt lat="44.51392" lon="1.85763">
        <ele>289.4</ele>
        <time>2020-06-16T14:14:54Z</time>
      </trkpt>
      <trkpt lat="44.51387" lon="1.85761">
        <ele>289.8</ele>
        <time>2020-06-16T14:14:55Z</time>
      </trkpt>
      <trkpt lat="44.51382" lon="1.8576">
        <ele>290.2</ele>
        <time>2020-06-16T14:14:56Z</time>
      </trkpt>
      <trkpt lat="44.51378" lon="1.8576">
        <ele>290.6</ele>
        <time>2020-06-16T14:14:57Z</time>
      </trkpt>
      <trkpt lat="44.51374" lon="1.85759">
        <ele>291</ele>
        <time>2020-06-16T14:14:58Z</time>
      </trkpt>
      <trkpt lat="44.51371" lon="1.85758">
        <ele>291.6</ele>
        <time>2020-06-16T14:14:59Z</time>
      </trkpt>
      <trkpt lat="44.51369" lon="1.85757">
        <ele>292</ele>
        <time>2020-06-16T14:15:00Z</time>
      </trkpt>
      <trkpt lat="44.51367" lon="1.85755">
        <ele>292.6</ele>
        <time>2020-06-16T14:15:01Z</time>
      </trkpt>
      <trkpt lat="44.51365" lon="1.85753">
        <ele>293.6</ele>
        <time>2020-06-16T14:15:02Z</time>
      </trkpt>
      <trkpt lat="44.51361" lon="1.85751">
        <ele>294</ele>
        <time>2020-06-16T14:15:04Z</time>
      </trkpt>
      <trkpt lat="44.51359" lon="1.85749">
        <ele>294.4</ele>
        <time>2020-06-16T14:15:05Z</time>
      </trkpt>
      <trkpt lat="44.51356" lon="1.85747">
        <ele>294.8</ele>
        <time>2020-06-16T14:15:06Z</time>
      </trkpt>
      <trkpt lat="44.51356" lon="1.85739">
        <ele>295.2</ele>
        <time>2020-06-16T14:15:07Z</time>
      </trkpt>
      <trkpt lat="44.51356" lon="1.85731">
        <ele>295.6</ele>
        <time>2020-06-16T14:15:08Z</time>
      </trkpt>
      <trkpt lat="44.51353" lon="1.85699">
        <ele>295.6</ele>
        <time>2020-06-16T14:15:13Z</time>
      </trkpt>
      <trkpt lat="44.51342" lon="1.85671">
        <ele>295.6</ele>
        <time>2020-06-16T14:15:18Z</time>
      </trkpt>
      <trkpt lat="44.51327" lon="1.85658">
        <ele>295.6</ele>
        <time>2020-06-16T14:15:23Z</time>
      </trkpt>
      <trkpt lat="44.51323" lon="1.85655">
        <ele>295.6</ele>
        <time>2020-06-16T14:15:24Z</time>
      </trkpt>
      <trkpt lat="44.51312" lon="1.85645">
        <ele>295.6</ele>
        <time>2020-06-16T14:15:27Z</time>
      </trkpt>
      <trkpt lat="44.51291" lon="1.85635">
        <ele>296</ele>
        <time>2020-06-16T14:15:32Z</time>
      </trkpt>
      <trkpt lat="44.51287" lon="1.85634">
        <ele>296.4</ele>
        <time>2020-06-16T14:15:33Z</time>
      </trkpt>
      <trkpt lat="44.51281" lon="1.85632">
        <ele>296.8</ele>
        <time>2020-06-16T14:15:34Z</time>
      </trkpt>
      <trkpt lat="44.51277" lon="1.85631">
        <ele>297.2</ele>
        <time>2020-06-16T14:15:35Z</time>
      </trkpt>
      <trkpt lat="44.51272" lon="1.85631">
        <ele>297.6</ele>
        <time>2020-06-16T14:15:36Z</time>
      </trkpt>
      <trkpt lat="44.51259" lon="1.85633">
        <ele>297.6</ele>
        <time>2020-06-16T14:15:39Z</time>
      </trkpt>
      <trkpt lat="44.51245" lon="1.85636">
        <ele>298.2</ele>
        <time>2020-06-16T14:15:42Z</time>
      </trkpt>
      <trkpt lat="44.51241" lon="1.85638">
        <ele>298.6</ele>
        <time>2020-06-16T14:15:43Z</time>
      </trkpt>
      <trkpt lat="44.51237" lon="1.8564">
        <ele>299</ele>
        <time>2020-06-16T14:15:44Z</time>
      </trkpt>
      <trkpt lat="44.51233" lon="1.85642">
        <ele>299.4</ele>
        <time>2020-06-16T14:15:45Z</time>
      </trkpt>
      <trkpt lat="44.51229" lon="1.85643">
        <ele>299.8</ele>
        <time>2020-06-16T14:15:46Z</time>
      </trkpt>
      <trkpt lat="44.51213" lon="1.85645">
        <ele>299.8</ele>
        <time>2020-06-16T14:15:50Z</time>
      </trkpt>
      <trkpt lat="44.51209" lon="1.85646">
        <ele>300.4</ele>
        <time>2020-06-16T14:15:51Z</time>
      </trkpt>
      <trkpt lat="44.51205" lon="1.85647">
        <ele>300.8</ele>
        <time>2020-06-16T14:15:52Z</time>
      </trkpt>
      <trkpt lat="44.51202" lon="1.85648">
        <ele>301.2</ele>
        <time>2020-06-16T14:15:53Z</time>
      </trkpt>
      <trkpt lat="44.51198" lon="1.85649">
        <ele>301.6</ele>
        <time>2020-06-16T14:15:54Z</time>
      </trkpt>
      <trkpt lat="44.51193" lon="1.8565">
        <ele>302</ele>
        <time>2020-06-16T14:15:55Z</time>
      </trkpt>
      <trkpt lat="44.51185" lon="1.85653">
        <ele>302</ele>
        <time>2020-06-16T14:15:57Z</time>
      </trkpt>
      <trkpt lat="44.51152" lon="1.85659">
        <ele>302</ele>
        <time>2020-06-16T14:16:04Z</time>
      </trkpt>
      <trkpt lat="44.51123" lon="1.85668">
        <ele>302</ele>
        <time>2020-06-16T14:16:10Z</time>
      </trkpt>
      <trkpt lat="44.511" lon="1.8568">
        <ele>302</ele>
        <time>2020-06-16T14:16:15Z</time>
      </trkpt>
      <trkpt lat="44.5109" lon="1.85688">
        <ele>302</ele>
        <time>2020-06-16T14:16:17Z</time>
      </trkpt>
      <trkpt lat="44.51079" lon="1.85697">
        <ele>301.6</ele>
        <time>2020-06-16T14:16:19Z</time>
      </trkpt>
      <trkpt lat="44.51074" lon="1.85702">
        <ele>301.2</ele>
        <time>2020-06-16T14:16:20Z</time>
      </trkpt>
      <trkpt lat="44.51068" lon="1.85708">
        <ele>300.8</ele>
        <time>2020-06-16T14:16:21Z</time>
      </trkpt>
      <trkpt lat="44.51062" lon="1.85715">
        <ele>300.2</ele>
        <time>2020-06-16T14:16:22Z</time>
      </trkpt>
      <trkpt lat="44.51056" lon="1.85722">
        <ele>299.8</ele>
        <time>2020-06-16T14:16:23Z</time>
      </trkpt>
      <trkpt lat="44.51051" lon="1.85729">
        <ele>299.4</ele>
        <time>2020-06-16T14:16:24Z</time>
      </trkpt>
      <trkpt lat="44.51046" lon="1.85738">
        <ele>299</ele>
        <time>2020-06-16T14:16:25Z</time>
      </trkpt>
      <trkpt lat="44.51042" lon="1.85747">
        <ele>298.4</ele>
        <time>2020-06-16T14:16:26Z</time>
      </trkpt>
      <trkpt lat="44.51037" lon="1.85756">
        <ele>298</ele>
        <time>2020-06-16T14:16:27Z</time>
      </trkpt>
      <trkpt lat="44.51033" lon="1.85765">
        <ele>297.6</ele>
        <time>2020-06-16T14:16:28Z</time>
      </trkpt>
      <trkpt lat="44.51024" lon="1.85789">
        <ele>297.6</ele>
        <time>2020-06-16T14:16:31Z</time>
      </trkpt>
      <trkpt lat="44.51021" lon="1.85797">
        <ele>297.6</ele>
        <time>2020-06-16T14:16:32Z</time>
      </trkpt>
      <trkpt lat="44.5101" lon="1.85831">
        <ele>297.6</ele>
        <time>2020-06-16T14:16:37Z</time>
      </trkpt>
      <trkpt lat="44.51" lon="1.85855">
        <ele>298.4</ele>
        <time>2020-06-16T14:16:41Z</time>
      </trkpt>
      <trkpt lat="44.50998" lon="1.8586">
        <ele>298.8</ele>
        <time>2020-06-16T14:16:42Z</time>
      </trkpt>
      <trkpt lat="44.50996" lon="1.85866">
        <ele>299.4</ele>
        <time>2020-06-16T14:16:43Z</time>
      </trkpt>
      <trkpt lat="44.50994" lon="1.85871">
        <ele>299.8</ele>
        <time>2020-06-16T14:16:44Z</time>
      </trkpt>
      <trkpt lat="44.50987" lon="1.85888">
        <ele>300.2</ele>
        <time>2020-06-16T14:16:47Z</time>
      </trkpt>
      <trkpt lat="44.50984" lon="1.85894">
        <ele>300.6</ele>
        <time>2020-06-16T14:16:48Z</time>
      </trkpt>
      <trkpt lat="44.50981" lon="1.859">
        <ele>301.2</ele>
        <time>2020-06-16T14:16:49Z</time>
      </trkpt>
      <trkpt lat="44.50979" lon="1.85905">
        <ele>301.6</ele>
        <time>2020-06-16T14:16:50Z</time>
      </trkpt>
      <trkpt lat="44.50976" lon="1.85911">
        <ele>302</ele>
        <time>2020-06-16T14:16:51Z</time>
      </trkpt>
      <trkpt lat="44.50972" lon="1.85921">
        <ele>302</ele>
        <time>2020-06-16T14:16:53Z</time>
      </trkpt>
      <trkpt lat="44.50969" lon="1.85931">
        <ele>302.4</ele>
        <time>2020-06-16T14:16:55Z</time>
      </trkpt>
      <trkpt lat="44.50967" lon="1.85936">
        <ele>302.8</ele>
        <time>2020-06-16T14:16:56Z</time>
      </trkpt>
      <trkpt lat="44.50965" lon="1.85941">
        <ele>303.4</ele>
        <time>2020-06-16T14:16:57Z</time>
      </trkpt>
      <trkpt lat="44.50964" lon="1.85945">
        <ele>303.8</ele>
        <time>2020-06-16T14:16:58Z</time>
      </trkpt>
      <trkpt lat="44.50962" lon="1.8595">
        <ele>304.2</ele>
        <time>2020-06-16T14:16:59Z</time>
      </trkpt>
      <trkpt lat="44.50955" lon="1.85975">
        <ele>304.2</ele>
        <time>2020-06-16T14:17:04Z</time>
      </trkpt>
      <trkpt lat="44.50953" lon="1.8598">
        <ele>304.2</ele>
        <time>2020-06-16T14:17:05Z</time>
      </trkpt>
      <trkpt lat="44.50945" lon="1.86004">
        <ele>304.2</ele>
        <time>2020-06-16T14:17:09Z</time>
      </trkpt>
      <trkpt lat="44.50937" lon="1.86026">
        <ele>304.2</ele>
        <time>2020-06-16T14:17:12Z</time>
      </trkpt>
      <trkpt lat="44.5093" lon="1.8605">
        <ele>304.2</ele>
        <time>2020-06-16T14:17:15Z</time>
      </trkpt>
      <trkpt lat="44.50928" lon="1.86058">
        <ele>304.2</ele>
        <time>2020-06-16T14:17:16Z</time>
      </trkpt>
      <trkpt lat="44.50924" lon="1.86082">
        <ele>303.8</ele>
        <time>2020-06-16T14:17:19Z</time>
      </trkpt>
      <trkpt lat="44.50922" lon="1.86089">
        <ele>303.2</ele>
        <time>2020-06-16T14:17:20Z</time>
      </trkpt>
      <trkpt lat="44.5092" lon="1.86097">
        <ele>302.8</ele>
        <time>2020-06-16T14:17:21Z</time>
      </trkpt>
      <trkpt lat="44.50918" lon="1.86103">
        <ele>302.4</ele>
        <time>2020-06-16T14:17:22Z</time>
      </trkpt>
      <trkpt lat="44.50916" lon="1.8611">
        <ele>302</ele>
        <time>2020-06-16T14:17:23Z</time>
      </trkpt>
      <trkpt lat="44.5091" lon="1.86137">
        <ele>302</ele>
        <time>2020-06-16T14:17:27Z</time>
      </trkpt>
      <trkpt lat="44.50895" lon="1.86189">
        <ele>302.4</ele>
        <time>2020-06-16T14:17:35Z</time>
      </trkpt>
      <trkpt lat="44.50894" lon="1.86196">
        <ele>302.8</ele>
        <time>2020-06-16T14:17:36Z</time>
      </trkpt>
      <trkpt lat="44.50892" lon="1.86203">
        <ele>303.2</ele>
        <time>2020-06-16T14:17:37Z</time>
      </trkpt>
      <trkpt lat="44.5089" lon="1.8621">
        <ele>303.6</ele>
        <time>2020-06-16T14:17:38Z</time>
      </trkpt>
      <trkpt lat="44.50888" lon="1.86217">
        <ele>304.2</ele>
        <time>2020-06-16T14:17:39Z</time>
      </trkpt>
      <trkpt lat="44.50884" lon="1.8623">
        <ele>304.6</ele>
        <time>2020-06-16T14:17:41Z</time>
      </trkpt>
      <trkpt lat="44.50883" lon="1.86237">
        <ele>305</ele>
        <time>2020-06-16T14:17:42Z</time>
      </trkpt>
      <trkpt lat="44.50881" lon="1.86243">
        <ele>305.4</ele>
        <time>2020-06-16T14:17:43Z</time>
      </trkpt>
      <trkpt lat="44.5088" lon="1.86249">
        <ele>305.8</ele>
        <time>2020-06-16T14:17:44Z</time>
      </trkpt>
      <trkpt lat="44.50878" lon="1.86254">
        <ele>306.2</ele>
        <time>2020-06-16T14:17:45Z</time>
      </trkpt>
      <trkpt lat="44.50874" lon="1.8627">
        <ele>306.6</ele>
        <time>2020-06-16T14:17:48Z</time>
      </trkpt>
      <trkpt lat="44.50872" lon="1.86276">
        <ele>307</ele>
        <time>2020-06-16T14:17:49Z</time>
      </trkpt>
      <trkpt lat="44.50871" lon="1.86281">
        <ele>307.4</ele>
        <time>2020-06-16T14:17:50Z</time>
      </trkpt>
      <trkpt lat="44.50869" lon="1.86286">
        <ele>307.8</ele>
        <time>2020-06-16T14:17:51Z</time>
      </trkpt>
      <trkpt lat="44.50867" lon="1.86291">
        <ele>308.2</ele>
        <time>2020-06-16T14:17:52Z</time>
      </trkpt>
      <trkpt lat="44.50864" lon="1.86301">
        <ele>308.2</ele>
        <time>2020-06-16T14:17:54Z</time>
      </trkpt>
      <trkpt lat="44.50863" lon="1.86306">
        <ele>308.6</ele>
        <time>2020-06-16T14:17:55Z</time>
      </trkpt>
      <trkpt lat="44.50861" lon="1.86311">
        <ele>309</ele>
        <time>2020-06-16T14:17:56Z</time>
      </trkpt>
      <trkpt lat="44.50859" lon="1.86316">
        <ele>309.4</ele>
        <time>2020-06-16T14:17:57Z</time>
      </trkpt>
      <trkpt lat="44.50858" lon="1.86321">
        <ele>309.8</ele>
        <time>2020-06-16T14:17:58Z</time>
      </trkpt>
      <trkpt lat="44.50856" lon="1.86325">
        <ele>310.2</ele>
        <time>2020-06-16T14:17:59Z</time>
      </trkpt>
      <trkpt lat="44.50851" lon="1.8634">
        <ele>310.2</ele>
        <time>2020-06-16T14:18:02Z</time>
      </trkpt>
      <trkpt lat="44.50842" lon="1.86368">
        <ele>310.2</ele>
        <time>2020-06-16T14:18:08Z</time>
      </trkpt>
      <trkpt lat="44.50839" lon="1.86377">
        <ele>310.6</ele>
        <time>2020-06-16T14:18:10Z</time>
      </trkpt>
      <trkpt lat="44.50837" lon="1.86382">
        <ele>311</ele>
        <time>2020-06-16T14:18:11Z</time>
      </trkpt>
      <trkpt lat="44.50836" lon="1.86386">
        <ele>311.4</ele>
        <time>2020-06-16T14:18:12Z</time>
      </trkpt>
      <trkpt lat="44.50834" lon="1.86391">
        <ele>311.8</ele>
        <time>2020-06-16T14:18:13Z</time>
      </trkpt>
      <trkpt lat="44.50832" lon="1.86395">
        <ele>312.2</ele>
        <time>2020-06-16T14:18:14Z</time>
      </trkpt>
      <trkpt lat="44.5083" lon="1.86398">
        <ele>312.2</ele>
        <time>2020-06-16T14:18:15Z</time>
      </trkpt>
      <trkpt lat="44.50814" lon="1.86417">
        <ele>312.2</ele>
        <time>2020-06-16T14:18:20Z</time>
      </trkpt>
      <trkpt lat="44.50793" lon="1.86433">
        <ele>312.2</ele>
        <time>2020-06-16T14:18:25Z</time>
      </trkpt>
      <trkpt lat="44.50786" lon="1.86442">
        <ele>311.8</ele>
        <time>2020-06-16T14:18:27Z</time>
      </trkpt>
      <trkpt lat="44.50782" lon="1.86447">
        <ele>311.4</ele>
        <time>2020-06-16T14:18:28Z</time>
      </trkpt>
      <trkpt lat="44.50778" lon="1.86451">
        <ele>311</ele>
        <time>2020-06-16T14:18:29Z</time>
      </trkpt>
      <trkpt lat="44.50774" lon="1.86455">
        <ele>310.6</ele>
        <time>2020-06-16T14:18:30Z</time>
      </trkpt>
      <trkpt lat="44.5077" lon="1.86458">
        <ele>310</ele>
        <time>2020-06-16T14:18:31Z</time>
      </trkpt>
      <trkpt lat="44.50767" lon="1.8646">
        <ele>310</ele>
        <time>2020-06-16T14:18:32Z</time>
      </trkpt>
      <trkpt lat="44.50755" lon="1.86462">
        <ele>310</ele>
        <time>2020-06-16T14:18:36Z</time>
      </trkpt>
      <trkpt lat="44.5074" lon="1.86453">
        <ele>310</ele>
        <time>2020-06-16T14:18:40Z</time>
      </trkpt>
      <trkpt lat="44.50736" lon="1.8645">
        <ele>310</ele>
        <time>2020-06-16T14:18:41Z</time>
      </trkpt>
      <trkpt lat="44.5072" lon="1.86435">
        <ele>310</ele>
        <time>2020-06-16T14:18:45Z</time>
      </trkpt>
      <trkpt lat="44.50715" lon="1.86428">
        <ele>310</ele>
        <time>2020-06-16T14:18:47Z</time>
      </trkpt>
      <trkpt lat="44.50713" lon="1.86424">
        <ele>309.6</ele>
        <time>2020-06-16T14:18:48Z</time>
      </trkpt>
      <trkpt lat="44.50712" lon="1.86422">
        <ele>309.2</ele>
        <time>2020-06-16T14:18:49Z</time>
      </trkpt>
      <trkpt lat="44.50711" lon="1.86419">
        <ele>308.8</ele>
        <time>2020-06-16T14:18:50Z</time>
      </trkpt>
      <trkpt lat="44.5071" lon="1.86418">
        <ele>308.4</ele>
        <time>2020-06-16T14:18:51Z</time>
      </trkpt>
      <trkpt lat="44.5071" lon="1.86417">
        <ele>308</ele>
        <time>2020-06-16T14:18:52Z</time>
      </trkpt>
      <trkpt lat="44.5071" lon="1.86417">
        <ele>308</ele>
        <time>2020-06-16T14:18:56Z</time>
      </trkpt>
      <trkpt lat="44.50702" lon="1.86421">
        <ele>308</ele>
        <time>2020-06-16T14:18:59Z</time>
      </trkpt>
      <trkpt lat="44.50691" lon="1.8643">
        <ele>308</ele>
        <time>2020-06-16T14:19:03Z</time>
      </trkpt>
      <trkpt lat="44.50689" lon="1.86431">
        <ele>308.4</ele>
        <time>2020-06-16T14:19:04Z</time>
      </trkpt>
      <trkpt lat="44.50687" lon="1.86433">
        <ele>309</ele>
        <time>2020-06-16T14:19:05Z</time>
      </trkpt>
      <trkpt lat="44.50685" lon="1.86435">
        <ele>309.4</ele>
        <time>2020-06-16T14:19:06Z</time>
      </trkpt>
      <trkpt lat="44.50683" lon="1.86436">
        <ele>310</ele>
        <time>2020-06-16T14:19:07Z</time>
      </trkpt>
      <trkpt lat="44.50682" lon="1.86437">
        <ele>310.4</ele>
        <time>2020-06-16T14:19:08Z</time>
      </trkpt>
      <trkpt lat="44.5068" lon="1.86439">
        <ele>310.8</ele>
        <time>2020-06-16T14:19:09Z</time>
      </trkpt>
      <trkpt lat="44.50678" lon="1.8644">
        <ele>311.2</ele>
        <time>2020-06-16T14:19:10Z</time>
      </trkpt>
      <trkpt lat="44.50675" lon="1.86441">
        <ele>311.6</ele>
        <time>2020-06-16T14:19:11Z</time>
      </trkpt>
      <trkpt lat="44.50673" lon="1.86441">
        <ele>312.2</ele>
        <time>2020-06-16T14:19:12Z</time>
      </trkpt>
      <trkpt lat="44.50671" lon="1.86442">
        <ele>312.6</ele>
        <time>2020-06-16T14:19:13Z</time>
      </trkpt>
      <trkpt lat="44.50669" lon="1.86441">
        <ele>312.6</ele>
        <time>2020-06-16T14:19:14Z</time>
      </trkpt>
      <trkpt lat="44.50668" lon="1.86441">
        <ele>313</ele>
        <time>2020-06-16T14:19:15Z</time>
      </trkpt>
      <trkpt lat="44.50665" lon="1.86441">
        <ele>313.4</ele>
        <time>2020-06-16T14:19:16Z</time>
      </trkpt>
      <trkpt lat="44.50663" lon="1.8644">
        <ele>313.8</ele>
        <time>2020-06-16T14:19:17Z</time>
      </trkpt>
      <trkpt lat="44.50661" lon="1.86439">
        <ele>314.2</ele>
        <time>2020-06-16T14:19:18Z</time>
      </trkpt>
      <trkpt lat="44.50659" lon="1.86439">
        <ele>314.6</ele>
        <time>2020-06-16T14:19:19Z</time>
      </trkpt>
      <trkpt lat="44.50655" lon="1.86436">
        <ele>314.6</ele>
        <time>2020-06-16T14:19:21Z</time>
      </trkpt>
      <trkpt lat="44.50651" lon="1.86428">
        <ele>314.6</ele>
        <time>2020-06-16T14:19:24Z</time>
      </trkpt>
      <trkpt lat="44.50648" lon="1.86423">
        <ele>315</ele>
        <time>2020-06-16T14:19:26Z</time>
      </trkpt>
      <trkpt lat="44.50647" lon="1.86421">
        <ele>315.4</ele>
        <time>2020-06-16T14:19:27Z</time>
      </trkpt>
      <trkpt lat="44.50646" lon="1.86418">
        <ele>315.8</ele>
        <time>2020-06-16T14:19:28Z</time>
      </trkpt>
      <trkpt lat="44.50644" lon="1.86416">
        <ele>316.2</ele>
        <time>2020-06-16T14:19:29Z</time>
      </trkpt>
      <trkpt lat="44.50642" lon="1.86414">
        <ele>316.6</ele>
        <time>2020-06-16T14:19:30Z</time>
      </trkpt>
      <trkpt lat="44.5064" lon="1.86411">
        <ele>316.6</ele>
        <time>2020-06-16T14:19:31Z</time>
      </trkpt>
      <trkpt lat="44.50627" lon="1.864">
        <ele>316.6</ele>
        <time>2020-06-16T14:19:38Z</time>
      </trkpt>
      <trkpt lat="44.50626" lon="1.86398">
        <ele>317</ele>
        <time>2020-06-16T14:19:39Z</time>
      </trkpt>
      <trkpt lat="44.50624" lon="1.86395">
        <ele>317.4</ele>
        <time>2020-06-16T14:19:40Z</time>
      </trkpt>
      <trkpt lat="44.50623" lon="1.86393">
        <ele>318</ele>
        <time>2020-06-16T14:19:41Z</time>
      </trkpt>
      <trkpt lat="44.50621" lon="1.86392">
        <ele>318.4</ele>
        <time>2020-06-16T14:19:42Z</time>
      </trkpt>
      <trkpt lat="44.5062" lon="1.8639">
        <ele>318.8</ele>
        <time>2020-06-16T14:19:43Z</time>
      </trkpt>
      <trkpt lat="44.50618" lon="1.86388">
        <ele>318.8</ele>
        <time>2020-06-16T14:19:44Z</time>
      </trkpt>
      <trkpt lat="44.50608" lon="1.86376">
        <ele>318.8</ele>
        <time>2020-06-16T14:19:50Z</time>
      </trkpt>
      <trkpt lat="44.50589" lon="1.86365">
        <ele>318.8</ele>
        <time>2020-06-16T14:19:56Z</time>
      </trkpt>
      <trkpt lat="44.50563" lon="1.86353">
        <ele>319.2</ele>
        <time>2020-06-16T14:20:03Z</time>
      </trkpt>
      <trkpt lat="44.5056" lon="1.86352">
        <ele>319.6</ele>
        <time>2020-06-16T14:20:04Z</time>
      </trkpt>
      <trkpt lat="44.50556" lon="1.8635">
        <ele>320</ele>
        <time>2020-06-16T14:20:05Z</time>
      </trkpt>
      <trkpt lat="44.50552" lon="1.86349">
        <ele>320.4</ele>
        <time>2020-06-16T14:20:06Z</time>
      </trkpt>
      <trkpt lat="44.50548" lon="1.86348">
        <ele>320.8</ele>
        <time>2020-06-16T14:20:07Z</time>
      </trkpt>
      <trkpt lat="44.50542" lon="1.86346">
        <ele>320.8</ele>
        <time>2020-06-16T14:20:09Z</time>
      </trkpt>
      <trkpt lat="44.50526" lon="1.86342">
        <ele>320.8</ele>
        <time>2020-06-16T14:20:13Z</time>
      </trkpt>
      <trkpt lat="44.50512" lon="1.86336">
        <ele>320.8</ele>
        <time>2020-06-16T14:20:17Z</time>
      </trkpt>
      <trkpt lat="44.50487" lon="1.8633">
        <ele>320.8</ele>
        <time>2020-06-16T14:20:24Z</time>
      </trkpt>
      <trkpt lat="44.50464" lon="1.86327">
        <ele>320.8</ele>
        <time>2020-06-16T14:20:30Z</time>
      </trkpt>
      <trkpt lat="44.50456" lon="1.86328">
        <ele>321.2</ele>
        <time>2020-06-16T14:20:32Z</time>
      </trkpt>
      <trkpt lat="44.50451" lon="1.86329">
        <ele>321.6</ele>
        <time>2020-06-16T14:20:33Z</time>
      </trkpt>
      <trkpt lat="44.50447" lon="1.86329">
        <ele>322</ele>
        <time>2020-06-16T14:20:34Z</time>
      </trkpt>
      <trkpt lat="44.50443" lon="1.8633">
        <ele>322.4</ele>
        <time>2020-06-16T14:20:35Z</time>
      </trkpt>
      <trkpt lat="44.50438" lon="1.86331">
        <ele>322.8</ele>
        <time>2020-06-16T14:20:36Z</time>
      </trkpt>
      <trkpt lat="44.50417" lon="1.86332">
        <ele>322.8</ele>
        <time>2020-06-16T14:20:41Z</time>
      </trkpt>
      <trkpt lat="44.5039" lon="1.86332">
        <ele>322.8</ele>
        <time>2020-06-16T14:20:47Z</time>
      </trkpt>
      <trkpt lat="44.50381" lon="1.86332">
        <ele>322.8</ele>
        <time>2020-06-16T14:20:49Z</time>
      </trkpt>
      <trkpt lat="44.50365" lon="1.8633">
        <ele>322.8</ele>
        <time>2020-06-16T14:20:52Z</time>
      </trkpt>
      <trkpt lat="44.50326" lon="1.86327">
        <ele>322.8</ele>
        <time>2020-06-16T14:20:59Z</time>
      </trkpt>
      <trkpt lat="44.50298" lon="1.86327">
        <ele>322.8</ele>
        <time>2020-06-16T14:21:04Z</time>
      </trkpt>
      <trkpt lat="44.50288" lon="1.86326">
        <ele>322.8</ele>
        <time>2020-06-16T14:21:06Z</time>
      </trkpt>
      <trkpt lat="44.50252" lon="1.86324">
        <ele>322.8</ele>
        <time>2020-06-16T14:21:13Z</time>
      </trkpt>
      <trkpt lat="44.50219" lon="1.86318">
        <ele>322.8</ele>
        <time>2020-06-16T14:21:19Z</time>
      </trkpt>
      <trkpt lat="44.502" lon="1.86318">
        <ele>323.2</ele>
        <time>2020-06-16T14:21:23Z</time>
      </trkpt>
      <trkpt lat="44.50196" lon="1.86319">
        <ele>323.6</ele>
        <time>2020-06-16T14:21:24Z</time>
      </trkpt>
      <trkpt lat="44.50191" lon="1.8632">
        <ele>324</ele>
        <time>2020-06-16T14:21:25Z</time>
      </trkpt>
      <trkpt lat="44.50187" lon="1.86322">
        <ele>324.4</ele>
        <time>2020-06-16T14:21:26Z</time>
      </trkpt>
      <trkpt lat="44.50182" lon="1.86322">
        <ele>325</ele>
        <time>2020-06-16T14:21:27Z</time>
      </trkpt>
      <trkpt lat="44.50168" lon="1.86327">
        <ele>325</ele>
        <time>2020-06-16T14:21:31Z</time>
      </trkpt>
      <trkpt lat="44.50165" lon="1.8633">
        <ele>325</ele>
        <time>2020-06-16T14:21:32Z</time>
      </trkpt>
      <trkpt lat="44.50163" lon="1.86341">
        <ele>325</ele>
        <time>2020-06-16T14:21:34Z</time>
      </trkpt>
      <trkpt lat="44.50161" lon="1.86353">
        <ele>325</ele>
        <time>2020-06-16T14:21:36Z</time>
      </trkpt>
      <trkpt lat="44.50158" lon="1.86365">
        <ele>325</ele>
        <time>2020-06-16T14:21:38Z</time>
      </trkpt>
      <trkpt lat="44.50155" lon="1.86377">
        <ele>325</ele>
        <time>2020-06-16T14:21:40Z</time>
      </trkpt>
      <trkpt lat="44.50148" lon="1.86419">
        <ele>325</ele>
        <time>2020-06-16T14:21:46Z</time>
      </trkpt>
      <trkpt lat="44.50147" lon="1.86425">
        <ele>324.4</ele>
        <time>2020-06-16T14:21:47Z</time>
      </trkpt>
      <trkpt lat="44.50146" lon="1.86432">
        <ele>324</ele>
        <time>2020-06-16T14:21:48Z</time>
      </trkpt>
      <trkpt lat="44.50145" lon="1.86439">
        <ele>323.6</ele>
        <time>2020-06-16T14:21:49Z</time>
      </trkpt>
      <trkpt lat="44.50144" lon="1.86446">
        <ele>323.2</ele>
        <time>2020-06-16T14:21:50Z</time>
      </trkpt>
      <trkpt lat="44.50144" lon="1.86453">
        <ele>322.8</ele>
        <time>2020-06-16T14:21:51Z</time>
      </trkpt>
      <trkpt lat="44.50141" lon="1.86475">
        <ele>322.8</ele>
        <time>2020-06-16T14:21:54Z</time>
      </trkpt>
      <trkpt lat="44.50137" lon="1.86495">
        <ele>322.8</ele>
        <time>2020-06-16T14:21:57Z</time>
      </trkpt>
      <trkpt lat="44.50133" lon="1.86508">
        <ele>322.8</ele>
        <time>2020-06-16T14:21:59Z</time>
      </trkpt>
      <trkpt lat="44.5013" lon="1.86515">
        <ele>322.8</ele>
        <time>2020-06-16T14:22:00Z</time>
      </trkpt>
      <trkpt lat="44.50121" lon="1.8654">
        <ele>322.8</ele>
        <time>2020-06-16T14:22:04Z</time>
      </trkpt>
      <trkpt lat="44.50115" lon="1.86552">
        <ele>322.8</ele>
        <time>2020-06-16T14:22:06Z</time>
      </trkpt>
      <trkpt lat="44.50113" lon="1.86558">
        <ele>322.4</ele>
        <time>2020-06-16T14:22:07Z</time>
      </trkpt>
      <trkpt lat="44.50111" lon="1.86565">
        <ele>321.8</ele>
        <time>2020-06-16T14:22:08Z</time>
      </trkpt>
      <trkpt lat="44.50109" lon="1.86571">
        <ele>321.4</ele>
        <time>2020-06-16T14:22:09Z</time>
      </trkpt>
      <trkpt lat="44.50108" lon="1.86578">
        <ele>321</ele>
        <time>2020-06-16T14:22:10Z</time>
      </trkpt>
      <trkpt lat="44.50106" lon="1.86585">
        <ele>320.4</ele>
        <time>2020-06-16T14:22:11Z</time>
      </trkpt>
      <trkpt lat="44.50102" lon="1.86604">
        <ele>320.4</ele>
        <time>2020-06-16T14:22:15Z</time>
      </trkpt>
      <trkpt lat="44.50092" lon="1.86599">
        <ele>320.4</ele>
        <time>2020-06-16T14:22:18Z</time>
      </trkpt>
      <trkpt lat="44.50075" lon="1.86588">
        <ele>320</ele>
        <time>2020-06-16T14:22:23Z</time>
      </trkpt>
      <trkpt lat="44.50071" lon="1.86586">
        <ele>319.6</ele>
        <time>2020-06-16T14:22:24Z</time>
      </trkpt>
      <trkpt lat="44.50067" lon="1.86585">
        <ele>319.2</ele>
        <time>2020-06-16T14:22:25Z</time>
      </trkpt>
      <trkpt lat="44.50063" lon="1.86583">
        <ele>318.8</ele>
        <time>2020-06-16T14:22:26Z</time>
      </trkpt>
      <trkpt lat="44.50058" lon="1.8658">
        <ele>318.4</ele>
        <time>2020-06-16T14:22:27Z</time>
      </trkpt>
      <trkpt lat="44.50043" lon="1.86573">
        <ele>318</ele>
        <time>2020-06-16T14:22:30Z</time>
      </trkpt>
      <trkpt lat="44.50038" lon="1.86569">
        <ele>317.6</ele>
        <time>2020-06-16T14:22:31Z</time>
      </trkpt>
      <trkpt lat="44.50034" lon="1.86565">
        <ele>317.2</ele>
        <time>2020-06-16T14:22:32Z</time>
      </trkpt>
      <trkpt lat="44.50029" lon="1.8656">
        <ele>316.8</ele>
        <time>2020-06-16T14:22:33Z</time>
      </trkpt>
      <trkpt lat="44.50026" lon="1.86553">
        <ele>316.4</ele>
        <time>2020-06-16T14:22:34Z</time>
      </trkpt>
      <trkpt lat="44.50022" lon="1.86538">
        <ele>316</ele>
        <time>2020-06-16T14:22:36Z</time>
      </trkpt>
      <trkpt lat="44.50021" lon="1.8653">
        <ele>315.6</ele>
        <time>2020-06-16T14:22:37Z</time>
      </trkpt>
      <trkpt lat="44.50019" lon="1.86522">
        <ele>315.2</ele>
        <time>2020-06-16T14:22:38Z</time>
      </trkpt>
      <trkpt lat="44.50018" lon="1.86515">
        <ele>314.8</ele>
        <time>2020-06-16T14:22:39Z</time>
      </trkpt>
      <trkpt lat="44.50016" lon="1.86508">
        <ele>314.4</ele>
        <time>2020-06-16T14:22:40Z</time>
      </trkpt>
      <trkpt lat="44.50013" lon="1.86497">
        <ele>314.4</ele>
        <time>2020-06-16T14:22:42Z</time>
      </trkpt>
      <trkpt lat="44.49995" lon="1.86468">
        <ele>314.4</ele>
        <time>2020-06-16T14:22:49Z</time>
      </trkpt>
      <trkpt lat="44.49985" lon="1.86454">
        <ele>314.4</ele>
        <time>2020-06-16T14:22:52Z</time>
      </trkpt>
      <trkpt lat="44.4998" lon="1.86445">
        <ele>314</ele>
        <time>2020-06-16T14:22:54Z</time>
      </trkpt>
      <trkpt lat="44.49977" lon="1.8644">
        <ele>313.4</ele>
        <time>2020-06-16T14:22:55Z</time>
      </trkpt>
      <trkpt lat="44.49975" lon="1.86435">
        <ele>313</ele>
        <time>2020-06-16T14:22:56Z</time>
      </trkpt>
      <trkpt lat="44.49974" lon="1.86429">
        <ele>312.6</ele>
        <time>2020-06-16T14:22:57Z</time>
      </trkpt>
      <trkpt lat="44.49972" lon="1.86424">
        <ele>312.2</ele>
        <time>2020-06-16T14:22:58Z</time>
      </trkpt>
      <trkpt lat="44.49969" lon="1.86414">
        <ele>312.2</ele>
        <time>2020-06-16T14:23:00Z</time>
      </trkpt>
      <trkpt lat="44.49957" lon="1.86396">
        <ele>312.2</ele>
        <time>2020-06-16T14:23:04Z</time>
      </trkpt>
      <trkpt lat="44.49955" lon="1.86391">
        <ele>312.2</ele>
        <time>2020-06-16T14:23:05Z</time>
      </trkpt>
      <trkpt lat="44.49948" lon="1.86367">
        <ele>312.2</ele>
        <time>2020-06-16T14:23:09Z</time>
      </trkpt>
      <trkpt lat="44.49946" lon="1.86361">
        <ele>311.8</ele>
        <time>2020-06-16T14:23:10Z</time>
      </trkpt>
      <trkpt lat="44.49944" lon="1.86355">
        <ele>311.4</ele>
        <time>2020-06-16T14:23:11Z</time>
      </trkpt>
      <trkpt lat="44.49942" lon="1.86348">
        <ele>311</ele>
        <time>2020-06-16T14:23:12Z</time>
      </trkpt>
      <trkpt lat="44.4994" lon="1.86342">
        <ele>310.6</ele>
        <time>2020-06-16T14:23:13Z</time>
      </trkpt>
      <trkpt lat="44.49938" lon="1.86335">
        <ele>310.2</ele>
        <time>2020-06-16T14:23:14Z</time>
      </trkpt>
      <trkpt lat="44.49936" lon="1.86327">
        <ele>310.2</ele>
        <time>2020-06-16T14:23:15Z</time>
      </trkpt>
      <trkpt lat="44.49934" lon="1.8632">
        <ele>309.8</ele>
        <time>2020-06-16T14:23:16Z</time>
      </trkpt>
      <trkpt lat="44.49931" lon="1.86312">
        <ele>309.4</ele>
        <time>2020-06-16T14:23:17Z</time>
      </trkpt>
      <trkpt lat="44.49928" lon="1.86304">
        <ele>309</ele>
        <time>2020-06-16T14:23:18Z</time>
      </trkpt>
      <trkpt lat="44.49926" lon="1.86296">
        <ele>308.6</ele>
        <time>2020-06-16T14:23:19Z</time>
      </trkpt>
      <trkpt lat="44.49924" lon="1.86287">
        <ele>308.2</ele>
        <time>2020-06-16T14:23:20Z</time>
      </trkpt>
      <trkpt lat="44.49924" lon="1.86278">
        <ele>307.6</ele>
        <time>2020-06-16T14:23:21Z</time>
      </trkpt>
      <trkpt lat="44.49925" lon="1.86271">
        <ele>307.2</ele>
        <time>2020-06-16T14:23:22Z</time>
      </trkpt>
      <trkpt lat="44.49925" lon="1.86264">
        <ele>306.6</ele>
        <time>2020-06-16T14:23:23Z</time>
      </trkpt>
      <trkpt lat="44.49925" lon="1.86257">
        <ele>306.2</ele>
        <time>2020-06-16T14:23:24Z</time>
      </trkpt>
      <trkpt lat="44.49926" lon="1.86251">
        <ele>305.8</ele>
        <time>2020-06-16T14:23:25Z</time>
      </trkpt>
      <trkpt lat="44.49926" lon="1.86243">
        <ele>305.8</ele>
        <time>2020-06-16T14:23:27Z</time>
      </trkpt>
      <trkpt lat="44.49922" lon="1.86221">
        <ele>305.8</ele>
        <time>2020-06-16T14:23:32Z</time>
      </trkpt>
      <trkpt lat="44.49922" lon="1.86213">
        <ele>305.8</ele>
        <time>2020-06-16T14:23:34Z</time>
      </trkpt>
      <trkpt lat="44.49923" lon="1.8621">
        <ele>305.8</ele>
        <time>2020-06-16T14:23:36Z</time>
      </trkpt>
      <trkpt lat="44.49923" lon="1.8621">
        <ele>305.8</ele>
        <time>2020-06-16T14:23:45Z</time>
      </trkpt>
      <trkpt lat="44.49923" lon="1.8621">
        <ele>305.8</ele>
        <time>2020-06-16T14:23:56Z</time>
      </trkpt>
      <trkpt lat="44.49923" lon="1.8621">
        <ele>305.8</ele>
        <time>2020-06-16T14:24:07Z</time>
      </trkpt>
      <trkpt lat="44.49923" lon="1.86207">
        <ele>305.8</ele>
        <time>2020-06-16T14:24:13Z</time>
      </trkpt>
      <trkpt lat="44.49923" lon="1.86195">
        <ele>305.8</ele>
        <time>2020-06-16T14:24:20Z</time>
      </trkpt>
      <trkpt lat="44.49922" lon="1.86181">
        <ele>305.8</ele>
        <time>2020-06-16T14:24:27Z</time>
      </trkpt>
      <trkpt lat="44.49922" lon="1.86163">
        <ele>305.8</ele>
        <time>2020-06-16T14:24:32Z</time>
      </trkpt>
      <trkpt lat="44.49922" lon="1.86157">
        <ele>305.8</ele>
        <time>2020-06-16T14:24:33Z</time>
      </trkpt>
      <trkpt lat="44.49922" lon="1.86137">
        <ele>305.8</ele>
        <time>2020-06-16T14:24:36Z</time>
      </trkpt>
      <trkpt lat="44.49921" lon="1.86129">
        <ele>305.8</ele>
        <time>2020-06-16T14:24:37Z</time>
      </trkpt>
      <trkpt lat="44.49921" lon="1.86115">
        <ele>306.2</ele>
        <time>2020-06-16T14:24:39Z</time>
      </trkpt>
      <trkpt lat="44.4992" lon="1.86107">
        <ele>306.6</ele>
        <time>2020-06-16T14:24:40Z</time>
      </trkpt>
      <trkpt lat="44.4992" lon="1.861">
        <ele>307</ele>
        <time>2020-06-16T14:24:41Z</time>
      </trkpt>
      <trkpt lat="44.4992" lon="1.86093">
        <ele>307.4</ele>
        <time>2020-06-16T14:24:42Z</time>
      </trkpt>
      <trkpt lat="44.4992" lon="1.86086">
        <ele>307.8</ele>
        <time>2020-06-16T14:24:43Z</time>
      </trkpt>
      <trkpt lat="44.4992" lon="1.86072">
        <ele>307.8</ele>
        <time>2020-06-16T14:24:45Z</time>
      </trkpt>
      <trkpt lat="44.49918" lon="1.86052">
        <ele>307.8</ele>
        <time>2020-06-16T14:24:48Z</time>
      </trkpt>
      <trkpt lat="44.49915" lon="1.86026">
        <ele>307.8</ele>
        <time>2020-06-16T14:24:52Z</time>
      </trkpt>
      <trkpt lat="44.49914" lon="1.86013">
        <ele>307.8</ele>
        <time>2020-06-16T14:24:54Z</time>
      </trkpt>
      <trkpt lat="44.49908" lon="1.85972">
        <ele>307.8</ele>
        <time>2020-06-16T14:25:00Z</time>
      </trkpt>
      <trkpt lat="44.49904" lon="1.85936">
        <ele>307.8</ele>
        <time>2020-06-16T14:25:05Z</time>
      </trkpt>
      <trkpt lat="44.49897" lon="1.85893">
        <ele>307.8</ele>
        <time>2020-06-16T14:25:11Z</time>
      </trkpt>
      <trkpt lat="44.49892" lon="1.85864">
        <ele>307.8</ele>
        <time>2020-06-16T14:25:15Z</time>
      </trkpt>
      <trkpt lat="44.49887" lon="1.85849">
        <ele>307.8</ele>
        <time>2020-06-16T14:25:17Z</time>
      </trkpt>
      <trkpt lat="44.49877" lon="1.85813">
        <ele>307.8</ele>
        <time>2020-06-16T14:25:22Z</time>
      </trkpt>
      <trkpt lat="44.49872" lon="1.8579">
        <ele>307.8</ele>
        <time>2020-06-16T14:25:25Z</time>
      </trkpt>
      <trkpt lat="44.49863" lon="1.85746">
        <ele>307.8</ele>
        <time>2020-06-16T14:25:31Z</time>
      </trkpt>
      <trkpt lat="44.49861" lon="1.85738">
        <ele>307.8</ele>
        <time>2020-06-16T14:25:32Z</time>
      </trkpt>
      <trkpt lat="44.49851" lon="1.85696">
        <ele>307.8</ele>
        <time>2020-06-16T14:25:38Z</time>
      </trkpt>
      <trkpt lat="44.49835" lon="1.85632">
        <ele>307.8</ele>
        <time>2020-06-16T14:25:47Z</time>
      </trkpt>
      <trkpt lat="44.49834" lon="1.85625">
        <ele>307.4</ele>
        <time>2020-06-16T14:25:48Z</time>
      </trkpt>
      <trkpt lat="44.49832" lon="1.85618">
        <ele>307</ele>
        <time>2020-06-16T14:25:49Z</time>
      </trkpt>
      <trkpt lat="44.49831" lon="1.85611">
        <ele>306.6</ele>
        <time>2020-06-16T14:25:50Z</time>
      </trkpt>
      <trkpt lat="44.4983" lon="1.85604">
        <ele>306.2</ele>
        <time>2020-06-16T14:25:51Z</time>
      </trkpt>
      <trkpt lat="44.49828" lon="1.85597">
        <ele>305.8</ele>
        <time>2020-06-16T14:25:52Z</time>
      </trkpt>
      <trkpt lat="44.49827" lon="1.85589">
        <ele>305.8</ele>
        <time>2020-06-16T14:25:53Z</time>
      </trkpt>
      <trkpt lat="44.49823" lon="1.85573">
        <ele>305.4</ele>
        <time>2020-06-16T14:25:55Z</time>
      </trkpt>
      <trkpt lat="44.49822" lon="1.85565">
        <ele>305</ele>
        <time>2020-06-16T14:25:56Z</time>
      </trkpt>
      <trkpt lat="44.4982" lon="1.85557">
        <ele>304.6</ele>
        <time>2020-06-16T14:25:57Z</time>
      </trkpt>
      <trkpt lat="44.49819" lon="1.85548">
        <ele>304.2</ele>
        <time>2020-06-16T14:25:58Z</time>
      </trkpt>
      <trkpt lat="44.49817" lon="1.85539">
        <ele>303.8</ele>
        <time>2020-06-16T14:25:59Z</time>
      </trkpt>
      <trkpt lat="44.49816" lon="1.85521">
        <ele>303.2</ele>
        <time>2020-06-16T14:26:01Z</time>
      </trkpt>
      <trkpt lat="44.49815" lon="1.85513">
        <ele>302.8</ele>
        <time>2020-06-16T14:26:02Z</time>
      </trkpt>
      <trkpt lat="44.49814" lon="1.85506">
        <ele>302.4</ele>
        <time>2020-06-16T14:26:03Z</time>
      </trkpt>
      <trkpt lat="44.49812" lon="1.85502">
        <ele>302</ele>
        <time>2020-06-16T14:26:04Z</time>
      </trkpt>
      <trkpt lat="44.49807" lon="1.855">
        <ele>301.4</ele>
        <time>2020-06-16T14:26:05Z</time>
      </trkpt>
      <trkpt lat="44.49802" lon="1.85499">
        <ele>300.8</ele>
        <time>2020-06-16T14:26:06Z</time>
      </trkpt>
      <trkpt lat="44.49796" lon="1.85498">
        <ele>300.2</ele>
        <time>2020-06-16T14:26:07Z</time>
      </trkpt>
      <trkpt lat="44.4979" lon="1.85499">
        <ele>299.4</ele>
        <time>2020-06-16T14:26:08Z</time>
      </trkpt>
      <trkpt lat="44.49783" lon="1.85499">
        <ele>298.8</ele>
        <time>2020-06-16T14:26:09Z</time>
      </trkpt>
      <trkpt lat="44.49778" lon="1.85499">
        <ele>297.6</ele>
        <time>2020-06-16T14:26:10Z</time>
      </trkpt>
      <trkpt lat="44.49773" lon="1.85499">
        <ele>297</ele>
        <time>2020-06-16T14:26:11Z</time>
      </trkpt>
      <trkpt lat="44.49768" lon="1.85498">
        <ele>296.4</ele>
        <time>2020-06-16T14:26:12Z</time>
      </trkpt>
      <trkpt lat="44.49764" lon="1.85498">
        <ele>295.8</ele>
        <time>2020-06-16T14:26:13Z</time>
      </trkpt>
      <trkpt lat="44.49759" lon="1.85499">
        <ele>295</ele>
        <time>2020-06-16T14:26:14Z</time>
      </trkpt>
      <trkpt lat="44.49754" lon="1.85499">
        <ele>294.4</ele>
        <time>2020-06-16T14:26:15Z</time>
      </trkpt>
      <trkpt lat="44.49749" lon="1.855">
        <ele>293.6</ele>
        <time>2020-06-16T14:26:16Z</time>
      </trkpt>
      <trkpt lat="44.49743" lon="1.855">
        <ele>293</ele>
        <time>2020-06-16T14:26:17Z</time>
      </trkpt>
      <trkpt lat="44.49738" lon="1.855">
        <ele>292.2</ele>
        <time>2020-06-16T14:26:18Z</time>
      </trkpt>
      <trkpt lat="44.49733" lon="1.855">
        <ele>291.4</ele>
        <time>2020-06-16T14:26:19Z</time>
      </trkpt>
      <trkpt lat="44.49727" lon="1.855">
        <ele>290.6</ele>
        <time>2020-06-16T14:26:20Z</time>
      </trkpt>
      <trkpt lat="44.49722" lon="1.855">
        <ele>289.8</ele>
        <time>2020-06-16T14:26:21Z</time>
      </trkpt>
      <trkpt lat="44.49716" lon="1.855">
        <ele>288.8</ele>
        <time>2020-06-16T14:26:22Z</time>
      </trkpt>
      <trkpt lat="44.49711" lon="1.85501">
        <ele>288</ele>
        <time>2020-06-16T14:26:23Z</time>
      </trkpt>
      <trkpt lat="44.49705" lon="1.855">
        <ele>287.2</ele>
        <time>2020-06-16T14:26:24Z</time>
      </trkpt>
      <trkpt lat="44.49699" lon="1.85498">
        <ele>286.4</ele>
        <time>2020-06-16T14:26:25Z</time>
      </trkpt>
      <trkpt lat="44.49694" lon="1.85495">
        <ele>285.8</ele>
        <time>2020-06-16T14:26:26Z</time>
      </trkpt>
      <trkpt lat="44.49688" lon="1.85491">
        <ele>285</ele>
        <time>2020-06-16T14:26:27Z</time>
      </trkpt>
      <trkpt lat="44.49682" lon="1.85486">
        <ele>284.2</ele>
        <time>2020-06-16T14:26:28Z</time>
      </trkpt>
      <trkpt lat="44.49677" lon="1.8548">
        <ele>283.6</ele>
        <time>2020-06-16T14:26:29Z</time>
      </trkpt>
      <trkpt lat="44.49672" lon="1.85473">
        <ele>282.8</ele>
        <time>2020-06-16T14:26:30Z</time>
      </trkpt>
      <trkpt lat="44.49667" lon="1.85466">
        <ele>282.2</ele>
        <time>2020-06-16T14:26:31Z</time>
      </trkpt>
      <trkpt lat="44.49662" lon="1.85458">
        <ele>281.6</ele>
        <time>2020-06-16T14:26:32Z</time>
      </trkpt>
      <trkpt lat="44.49658" lon="1.85451">
        <ele>281</ele>
        <time>2020-06-16T14:26:33Z</time>
      </trkpt>
      <trkpt lat="44.49653" lon="1.85443">
        <ele>280.4</ele>
        <time>2020-06-16T14:26:34Z</time>
      </trkpt>
      <trkpt lat="44.49649" lon="1.85436">
        <ele>279.2</ele>
        <time>2020-06-16T14:26:35Z</time>
      </trkpt>
      <trkpt lat="44.49626" lon="1.85397">
        <ele>279.2</ele>
        <time>2020-06-16T14:26:41Z</time>
      </trkpt>
      <trkpt lat="44.49616" lon="1.8538">
        <ele>279.2</ele>
        <time>2020-06-16T14:26:44Z</time>
      </trkpt>
      <trkpt lat="44.49607" lon="1.85369">
        <ele>279.2</ele>
        <time>2020-06-16T14:26:46Z</time>
      </trkpt>
      <trkpt lat="44.49591" lon="1.85354">
        <ele>278.6</ele>
        <time>2020-06-16T14:26:49Z</time>
      </trkpt>
      <trkpt lat="44.49587" lon="1.85349">
        <ele>278.2</ele>
        <time>2020-06-16T14:26:50Z</time>
      </trkpt>
      <trkpt lat="44.49582" lon="1.85344">
        <ele>277.8</ele>
        <time>2020-06-16T14:26:51Z</time>
      </trkpt>
      <trkpt lat="44.49578" lon="1.85339">
        <ele>277.4</ele>
        <time>2020-06-16T14:26:52Z</time>
      </trkpt>
      <trkpt lat="44.49573" lon="1.85334">
        <ele>277</ele>
        <time>2020-06-16T14:26:53Z</time>
      </trkpt>
      <trkpt lat="44.49568" lon="1.85331">
        <ele>276.4</ele>
        <time>2020-06-16T14:26:54Z</time>
      </trkpt>
      <trkpt lat="44.49562" lon="1.85327">
        <ele>275.8</ele>
        <time>2020-06-16T14:26:55Z</time>
      </trkpt>
      <trkpt lat="44.49557" lon="1.85324">
        <ele>275.4</ele>
        <time>2020-06-16T14:26:56Z</time>
      </trkpt>
      <trkpt lat="44.49552" lon="1.85322">
        <ele>274.8</ele>
        <time>2020-06-16T14:26:57Z</time>
      </trkpt>
      <trkpt lat="44.49546" lon="1.85319">
        <ele>274</ele>
        <time>2020-06-16T14:26:58Z</time>
      </trkpt>
      <trkpt lat="44.4954" lon="1.85317">
        <ele>272.8</ele>
        <time>2020-06-16T14:26:59Z</time>
      </trkpt>
      <trkpt lat="44.49534" lon="1.85315">
        <ele>272.2</ele>
        <time>2020-06-16T14:27:00Z</time>
      </trkpt>
      <trkpt lat="44.49529" lon="1.85312">
        <ele>271.4</ele>
        <time>2020-06-16T14:27:01Z</time>
      </trkpt>
      <trkpt lat="44.49523" lon="1.85308">
        <ele>270.8</ele>
        <time>2020-06-16T14:27:02Z</time>
      </trkpt>
      <trkpt lat="44.49517" lon="1.85305">
        <ele>270.2</ele>
        <time>2020-06-16T14:27:03Z</time>
      </trkpt>
      <trkpt lat="44.49511" lon="1.85303">
        <ele>269.4</ele>
        <time>2020-06-16T14:27:04Z</time>
      </trkpt>
      <trkpt lat="44.49505" lon="1.853">
        <ele>268.8</ele>
        <time>2020-06-16T14:27:05Z</time>
      </trkpt>
      <trkpt lat="44.495" lon="1.85297">
        <ele>268</ele>
        <time>2020-06-16T14:27:06Z</time>
      </trkpt>
      <trkpt lat="44.49494" lon="1.85294">
        <ele>267.2</ele>
        <time>2020-06-16T14:27:07Z</time>
      </trkpt>
      <trkpt lat="44.49488" lon="1.85292">
        <ele>266.4</ele>
        <time>2020-06-16T14:27:08Z</time>
      </trkpt>
      <trkpt lat="44.49482" lon="1.85289">
        <ele>265.4</ele>
        <time>2020-06-16T14:27:09Z</time>
      </trkpt>
      <trkpt lat="44.49474" lon="1.85286">
        <ele>264.6</ele>
        <time>2020-06-16T14:27:10Z</time>
      </trkpt>
      <trkpt lat="44.49468" lon="1.85283">
        <ele>263.6</ele>
        <time>2020-06-16T14:27:11Z</time>
      </trkpt>
      <trkpt lat="44.49461" lon="1.85281">
        <ele>262.6</ele>
        <time>2020-06-16T14:27:12Z</time>
      </trkpt>
      <trkpt lat="44.49454" lon="1.85278">
        <ele>261.8</ele>
        <time>2020-06-16T14:27:13Z</time>
      </trkpt>
      <trkpt lat="44.49448" lon="1.85275">
        <ele>260.8</ele>
        <time>2020-06-16T14:27:14Z</time>
      </trkpt>
      <trkpt lat="44.49441" lon="1.85271">
        <ele>260</ele>
        <time>2020-06-16T14:27:15Z</time>
      </trkpt>
      <trkpt lat="44.49435" lon="1.85267">
        <ele>259</ele>
        <time>2020-06-16T14:27:16Z</time>
      </trkpt>
      <trkpt lat="44.49428" lon="1.85264">
        <ele>258.2</ele>
        <time>2020-06-16T14:27:17Z</time>
      </trkpt>
      <trkpt lat="44.4942" lon="1.85261">
        <ele>257.2</ele>
        <time>2020-06-16T14:27:18Z</time>
      </trkpt>
      <trkpt lat="44.49413" lon="1.85258">
        <ele>256.4</ele>
        <time>2020-06-16T14:27:19Z</time>
      </trkpt>
      <trkpt lat="44.49405" lon="1.85255">
        <ele>255.4</ele>
        <time>2020-06-16T14:27:20Z</time>
      </trkpt>
      <trkpt lat="44.49396" lon="1.85253">
        <ele>254.4</ele>
        <time>2020-06-16T14:27:21Z</time>
      </trkpt>
      <trkpt lat="44.49387" lon="1.85251">
        <ele>253.6</ele>
        <time>2020-06-16T14:27:22Z</time>
      </trkpt>
      <trkpt lat="44.49377" lon="1.85248">
        <ele>252.8</ele>
        <time>2020-06-16T14:27:23Z</time>
      </trkpt>
      <trkpt lat="44.49368" lon="1.85245">
        <ele>250.8</ele>
        <time>2020-06-16T14:27:24Z</time>
      </trkpt>
      <trkpt lat="44.49359" lon="1.85243">
        <ele>249.6</ele>
        <time>2020-06-16T14:27:25Z</time>
      </trkpt>
      <trkpt lat="44.49351" lon="1.85239">
        <ele>248.4</ele>
        <time>2020-06-16T14:27:26Z</time>
      </trkpt>
      <trkpt lat="44.49343" lon="1.85237">
        <ele>247.2</ele>
        <time>2020-06-16T14:27:27Z</time>
      </trkpt>
      <trkpt lat="44.49334" lon="1.85234">
        <ele>245.8</ele>
        <time>2020-06-16T14:27:28Z</time>
      </trkpt>
      <trkpt lat="44.49325" lon="1.85232">
        <ele>244.6</ele>
        <time>2020-06-16T14:27:29Z</time>
      </trkpt>
      <trkpt lat="44.49315" lon="1.8523">
        <ele>243.2</ele>
        <time>2020-06-16T14:27:30Z</time>
      </trkpt>
      <trkpt lat="44.49306" lon="1.85228">
        <ele>242</ele>
        <time>2020-06-16T14:27:31Z</time>
      </trkpt>
      <trkpt lat="44.49296" lon="1.85226">
        <ele>240.6</ele>
        <time>2020-06-16T14:27:32Z</time>
      </trkpt>
      <trkpt lat="44.49286" lon="1.85224">
        <ele>239</ele>
        <time>2020-06-16T14:27:33Z</time>
      </trkpt>
      <trkpt lat="44.49276" lon="1.85222">
        <ele>237.6</ele>
        <time>2020-06-16T14:27:34Z</time>
      </trkpt>
      <trkpt lat="44.49266" lon="1.8522">
        <ele>236</ele>
        <time>2020-06-16T14:27:35Z</time>
      </trkpt>
      <trkpt lat="44.49255" lon="1.85217">
        <ele>234.2</ele>
        <time>2020-06-16T14:27:36Z</time>
      </trkpt>
      <trkpt lat="44.49245" lon="1.85215">
        <ele>232.6</ele>
        <time>2020-06-16T14:27:37Z</time>
      </trkpt>
      <trkpt lat="44.49234" lon="1.85213">
        <ele>230.8</ele>
        <time>2020-06-16T14:27:38Z</time>
      </trkpt>
      <trkpt lat="44.49223" lon="1.85211">
        <ele>229.2</ele>
        <time>2020-06-16T14:27:39Z</time>
      </trkpt>
      <trkpt lat="44.49212" lon="1.85208">
        <ele>227.4</ele>
        <time>2020-06-16T14:27:40Z</time>
      </trkpt>
      <trkpt lat="44.49202" lon="1.85205">
        <ele>225.6</ele>
        <time>2020-06-16T14:27:41Z</time>
      </trkpt>
      <trkpt lat="44.49192" lon="1.85203">
        <ele>223.6</ele>
        <time>2020-06-16T14:27:42Z</time>
      </trkpt>
      <trkpt lat="44.49182" lon="1.852">
        <ele>221.8</ele>
        <time>2020-06-16T14:27:43Z</time>
      </trkpt>
      <trkpt lat="44.49172" lon="1.85198">
        <ele>220</ele>
        <time>2020-06-16T14:27:44Z</time>
      </trkpt>
      <trkpt lat="44.49162" lon="1.85196">
        <ele>218</ele>
        <time>2020-06-16T14:27:45Z</time>
      </trkpt>
      <trkpt lat="44.49152" lon="1.85193">
        <ele>216.2</ele>
        <time>2020-06-16T14:27:46Z</time>
      </trkpt>
      <trkpt lat="44.49142" lon="1.85191">
        <ele>214.4</ele>
        <time>2020-06-16T14:27:47Z</time>
      </trkpt>
      <trkpt lat="44.49133" lon="1.85189">
        <ele>212.6</ele>
        <time>2020-06-16T14:27:48Z</time>
      </trkpt>
      <trkpt lat="44.49124" lon="1.85187">
        <ele>209</ele>
        <time>2020-06-16T14:27:49Z</time>
      </trkpt>
      <trkpt lat="44.49115" lon="1.85186">
        <ele>207.4</ele>
        <time>2020-06-16T14:27:50Z</time>
      </trkpt>
      <trkpt lat="44.49107" lon="1.85184">
        <ele>205.8</ele>
        <time>2020-06-16T14:27:51Z</time>
      </trkpt>
      <trkpt lat="44.49099" lon="1.85182">
        <ele>204</ele>
        <time>2020-06-16T14:27:52Z</time>
      </trkpt>
      <trkpt lat="44.4909" lon="1.85179">
        <ele>202.6</ele>
        <time>2020-06-16T14:27:53Z</time>
      </trkpt>
      <trkpt lat="44.49082" lon="1.85173">
        <ele>201</ele>
        <time>2020-06-16T14:27:54Z</time>
      </trkpt>
      <trkpt lat="44.49074" lon="1.85164">
        <ele>199.4</ele>
        <time>2020-06-16T14:27:55Z</time>
      </trkpt>
      <trkpt lat="44.49066" lon="1.85154">
        <ele>197.8</ele>
        <time>2020-06-16T14:27:56Z</time>
      </trkpt>
      <trkpt lat="44.49058" lon="1.85143">
        <ele>196.2</ele>
        <time>2020-06-16T14:27:57Z</time>
      </trkpt>
      <trkpt lat="44.4905" lon="1.85132">
        <ele>194.8</ele>
        <time>2020-06-16T14:27:58Z</time>
      </trkpt>
      <trkpt lat="44.49042" lon="1.8512">
        <ele>193.2</ele>
        <time>2020-06-16T14:27:59Z</time>
      </trkpt>
      <trkpt lat="44.49035" lon="1.85108">
        <ele>191.6</ele>
        <time>2020-06-16T14:28:00Z</time>
      </trkpt>
      <trkpt lat="44.49028" lon="1.85096">
        <ele>190</ele>
        <time>2020-06-16T14:28:01Z</time>
      </trkpt>
      <trkpt lat="44.49021" lon="1.85084">
        <ele>188.6</ele>
        <time>2020-06-16T14:28:02Z</time>
      </trkpt>
      <trkpt lat="44.49014" lon="1.85071">
        <ele>187</ele>
        <time>2020-06-16T14:28:03Z</time>
      </trkpt>
      <trkpt lat="44.49008" lon="1.8506">
        <ele>185.6</ele>
        <time>2020-06-16T14:28:04Z</time>
      </trkpt>
      <trkpt lat="44.49002" lon="1.85049">
        <ele>184</ele>
        <time>2020-06-16T14:28:05Z</time>
      </trkpt>
      <trkpt lat="44.48996" lon="1.85038">
        <ele>182.6</ele>
        <time>2020-06-16T14:28:06Z</time>
      </trkpt>
      <trkpt lat="44.4899" lon="1.85026">
        <ele>181</ele>
        <time>2020-06-16T14:28:07Z</time>
      </trkpt>
      <trkpt lat="44.48984" lon="1.85015">
        <ele>179.6</ele>
        <time>2020-06-16T14:28:08Z</time>
      </trkpt>
      <trkpt lat="44.48978" lon="1.85004">
        <ele>178.2</ele>
        <time>2020-06-16T14:28:09Z</time>
      </trkpt>
      <trkpt lat="44.48973" lon="1.84995">
        <ele>176.6</ele>
        <time>2020-06-16T14:28:10Z</time>
      </trkpt>
      <trkpt lat="44.4897" lon="1.84987">
        <ele>175.2</ele>
        <time>2020-06-16T14:28:11Z</time>
      </trkpt>
      <trkpt lat="44.48969" lon="1.8498">
        <ele>173.8</ele>
        <time>2020-06-16T14:28:12Z</time>
      </trkpt>
      <trkpt lat="44.48968" lon="1.84974">
        <ele>172.4</ele>
        <time>2020-06-16T14:28:13Z</time>
      </trkpt>
      <trkpt lat="44.48967" lon="1.84969">
        <ele>170.4</ele>
        <time>2020-06-16T14:28:14Z</time>
      </trkpt>
      <trkpt lat="44.48964" lon="1.84965">
        <ele>169.4</ele>
        <time>2020-06-16T14:28:15Z</time>
      </trkpt>
      <trkpt lat="44.48959" lon="1.84962">
        <ele>168.6</ele>
        <time>2020-06-16T14:28:16Z</time>
      </trkpt>
      <trkpt lat="44.48955" lon="1.8496">
        <ele>167.6</ele>
        <time>2020-06-16T14:28:17Z</time>
      </trkpt>
      <trkpt lat="44.48935" lon="1.8495">
        <ele>167.6</ele>
        <time>2020-06-16T14:28:21Z</time>
      </trkpt>
      <trkpt lat="44.48928" lon="1.84942">
        <ele>167.6</ele>
        <time>2020-06-16T14:28:23Z</time>
      </trkpt>
      <trkpt lat="44.48924" lon="1.84938">
        <ele>168</ele>
        <time>2020-06-16T14:28:24Z</time>
      </trkpt>
      <trkpt lat="44.48921" lon="1.84935">
        <ele>168.4</ele>
        <time>2020-06-16T14:28:25Z</time>
      </trkpt>
      <trkpt lat="44.48917" lon="1.84932">
        <ele>168.8</ele>
        <time>2020-06-16T14:28:26Z</time>
      </trkpt>
      <trkpt lat="44.48914" lon="1.84929">
        <ele>169.2</ele>
        <time>2020-06-16T14:28:27Z</time>
      </trkpt>
      <trkpt lat="44.48911" lon="1.84927">
        <ele>169.6</ele>
        <time>2020-06-16T14:28:28Z</time>
      </trkpt>
      <trkpt lat="44.48894" lon="1.84914">
        <ele>170</ele>
        <time>2020-06-16T14:28:33Z</time>
      </trkpt>
      <trkpt lat="44.48891" lon="1.84912">
        <ele>170.4</ele>
        <time>2020-06-16T14:28:34Z</time>
      </trkpt>
      <trkpt lat="44.48888" lon="1.84909">
        <ele>170.8</ele>
        <time>2020-06-16T14:28:35Z</time>
      </trkpt>
      <trkpt lat="44.48885" lon="1.84907">
        <ele>171.4</ele>
        <time>2020-06-16T14:28:36Z</time>
      </trkpt>
      <trkpt lat="44.48882" lon="1.84905">
        <ele>171.8</ele>
        <time>2020-06-16T14:28:37Z</time>
      </trkpt>
      <trkpt lat="44.48874" lon="1.849">
        <ele>171.8</ele>
        <time>2020-06-16T14:28:39Z</time>
      </trkpt>
      <trkpt lat="44.48858" lon="1.84888">
        <ele>171.4</ele>
        <time>2020-06-16T14:28:42Z</time>
      </trkpt>
      <trkpt lat="44.48854" lon="1.84885">
        <ele>170.8</ele>
        <time>2020-06-16T14:28:43Z</time>
      </trkpt>
      <trkpt lat="44.48849" lon="1.84881">
        <ele>170.4</ele>
        <time>2020-06-16T14:28:44Z</time>
      </trkpt>
      <trkpt lat="44.48845" lon="1.84878">
        <ele>170</ele>
        <time>2020-06-16T14:28:45Z</time>
      </trkpt>
      <trkpt lat="44.48842" lon="1.84874">
        <ele>169.4</ele>
        <time>2020-06-16T14:28:46Z</time>
      </trkpt>
      <trkpt lat="44.48838" lon="1.8487">
        <ele>168.8</ele>
        <time>2020-06-16T14:28:47Z</time>
      </trkpt>
      <trkpt lat="44.48834" lon="1.84867">
        <ele>168.2</ele>
        <time>2020-06-16T14:28:48Z</time>
      </trkpt>
      <trkpt lat="44.4883" lon="1.84863">
        <ele>167.4</ele>
        <time>2020-06-16T14:28:49Z</time>
      </trkpt>
      <trkpt lat="44.48826" lon="1.84861">
        <ele>166.6</ele>
        <time>2020-06-16T14:28:50Z</time>
      </trkpt>
      <trkpt lat="44.48822" lon="1.84859">
        <ele>165.8</ele>
        <time>2020-06-16T14:28:51Z</time>
      </trkpt>
      <trkpt lat="44.48819" lon="1.84858">
        <ele>165</ele>
        <time>2020-06-16T14:28:52Z</time>
      </trkpt>
      <trkpt lat="44.48815" lon="1.84855">
        <ele>164.2</ele>
        <time>2020-06-16T14:28:53Z</time>
      </trkpt>
      <trkpt lat="44.48812" lon="1.84853">
        <ele>163.4</ele>
        <time>2020-06-16T14:28:54Z</time>
      </trkpt>
      <trkpt lat="44.48809" lon="1.84851">
        <ele>162.8</ele>
        <time>2020-06-16T14:28:55Z</time>
      </trkpt>
      <trkpt lat="44.48805" lon="1.8485">
        <ele>162</ele>
        <time>2020-06-16T14:28:56Z</time>
      </trkpt>
      <trkpt lat="44.488" lon="1.8485">
        <ele>161.2</ele>
        <time>2020-06-16T14:28:57Z</time>
      </trkpt>
      <trkpt lat="44.48796" lon="1.8485">
        <ele>160.6</ele>
        <time>2020-06-16T14:28:58Z</time>
      </trkpt>
      <trkpt lat="44.48791" lon="1.84848">
        <ele>159.8</ele>
        <time>2020-06-16T14:28:59Z</time>
      </trkpt>
      <trkpt lat="44.48786" lon="1.84846">
        <ele>159.2</ele>
        <time>2020-06-16T14:29:00Z</time>
      </trkpt>
      <trkpt lat="44.48781" lon="1.84845">
        <ele>158.4</ele>
        <time>2020-06-16T14:29:01Z</time>
      </trkpt>
      <trkpt lat="44.48775" lon="1.84845">
        <ele>157.8</ele>
        <time>2020-06-16T14:29:02Z</time>
      </trkpt>
      <trkpt lat="44.4877" lon="1.84846">
        <ele>156.4</ele>
        <time>2020-06-16T14:29:03Z</time>
      </trkpt>
      <trkpt lat="44.48765" lon="1.84847">
        <ele>155.6</ele>
        <time>2020-06-16T14:29:04Z</time>
      </trkpt>
      <trkpt lat="44.48759" lon="1.84848">
        <ele>155.6</ele>
        <time>2020-06-16T14:29:06Z</time>
      </trkpt>
      <trkpt lat="44.48747" lon="1.84851">
        <ele>155.6</ele>
        <time>2020-06-16T14:29:09Z</time>
      </trkpt>
      <trkpt lat="44.48738" lon="1.84856">
        <ele>155.6</ele>
        <time>2020-06-16T14:29:11Z</time>
      </trkpt>
      <trkpt lat="44.48733" lon="1.8486">
        <ele>155.2</ele>
        <time>2020-06-16T14:29:12Z</time>
      </trkpt>
      <trkpt lat="44.48728" lon="1.84864">
        <ele>154.8</ele>
        <time>2020-06-16T14:29:13Z</time>
      </trkpt>
      <trkpt lat="44.48723" lon="1.84868">
        <ele>154.4</ele>
        <time>2020-06-16T14:29:14Z</time>
      </trkpt>
      <trkpt lat="44.48719" lon="1.84872">
        <ele>154</ele>
        <time>2020-06-16T14:29:15Z</time>
      </trkpt>
      <trkpt lat="44.48715" lon="1.84876">
        <ele>153.6</ele>
        <time>2020-06-16T14:29:16Z</time>
      </trkpt>
      <trkpt lat="44.48711" lon="1.8488">
        <ele>153.6</ele>
        <time>2020-06-16T14:29:17Z</time>
      </trkpt>
      <trkpt lat="44.48688" lon="1.84902">
        <ele>153.6</ele>
        <time>2020-06-16T14:29:23Z</time>
      </trkpt>
      <trkpt lat="44.48677" lon="1.84915">
        <ele>153.6</ele>
        <time>2020-06-16T14:29:26Z</time>
      </trkpt>
      <trkpt lat="44.4867" lon="1.84924">
        <ele>153.6</ele>
        <time>2020-06-16T14:29:28Z</time>
      </trkpt>
      <trkpt lat="44.48654" lon="1.84949">
        <ele>153.6</ele>
        <time>2020-06-16T14:29:34Z</time>
      </trkpt>
      <trkpt lat="44.4864" lon="1.84971">
        <ele>153.6</ele>
        <time>2020-06-16T14:29:40Z</time>
      </trkpt>
      <trkpt lat="44.48627" lon="1.84987">
        <ele>153.6</ele>
        <time>2020-06-16T14:29:45Z</time>
      </trkpt>
      <trkpt lat="44.48616" lon="1.84992">
        <ele>153.6</ele>
        <time>2020-06-16T14:29:48Z</time>
      </trkpt>
      <trkpt lat="44.4861" lon="1.84991">
        <ele>153.6</ele>
        <time>2020-06-16T14:29:49Z</time>
      </trkpt>
      <trkpt lat="44.48591" lon="1.84991">
        <ele>152.8</ele>
        <time>2020-06-16T14:29:53Z</time>
      </trkpt>
      <trkpt lat="44.48589" lon="1.8499">
        <ele>152.4</ele>
        <time>2020-06-16T14:29:54Z</time>
      </trkpt>
      <trkpt lat="44.48588" lon="1.84989">
        <ele>151.8</ele>
        <time>2020-06-16T14:29:55Z</time>
      </trkpt>
      <trkpt lat="44.48586" lon="1.84989">
        <ele>151.4</ele>
        <time>2020-06-16T14:29:56Z</time>
      </trkpt>
      <trkpt lat="44.48583" lon="1.84988">
        <ele>151.4</ele>
        <time>2020-06-16T14:29:57Z</time>
      </trkpt>
      <trkpt lat="44.48566" lon="1.84987">
        <ele>151.4</ele>
        <time>2020-06-16T14:30:01Z</time>
      </trkpt>
      <trkpt lat="44.48556" lon="1.84986">
        <ele>151</ele>
        <time>2020-06-16T14:30:03Z</time>
      </trkpt>
      <trkpt lat="44.48552" lon="1.84987">
        <ele>150.6</ele>
        <time>2020-06-16T14:30:04Z</time>
      </trkpt>
      <trkpt lat="44.48548" lon="1.84988">
        <ele>150.2</ele>
        <time>2020-06-16T14:30:05Z</time>
      </trkpt>
      <trkpt lat="44.48544" lon="1.8499">
        <ele>149.8</ele>
        <time>2020-06-16T14:30:06Z</time>
      </trkpt>
      <trkpt lat="44.4854" lon="1.84993">
        <ele>149.4</ele>
        <time>2020-06-16T14:30:07Z</time>
      </trkpt>
      <trkpt lat="44.48533" lon="1.85001">
        <ele>149.4</ele>
        <time>2020-06-16T14:30:09Z</time>
      </trkpt>
      <trkpt lat="44.48526" lon="1.85009">
        <ele>149.4</ele>
        <time>2020-06-16T14:30:11Z</time>
      </trkpt>
      <trkpt lat="44.48522" lon="1.85011">
        <ele>149.4</ele>
        <time>2020-06-16T14:30:12Z</time>
      </trkpt>
      <trkpt lat="44.48517" lon="1.85011">
        <ele>149.4</ele>
        <time>2020-06-16T14:30:13Z</time>
      </trkpt>
      <trkpt lat="44.48504" lon="1.85006">
        <ele>149.4</ele>
        <time>2020-06-16T14:30:17Z</time>
      </trkpt>
      <trkpt lat="44.48495" lon="1.85007">
        <ele>149</ele>
        <time>2020-06-16T14:30:22Z</time>
      </trkpt>
      <trkpt lat="44.48492" lon="1.85007">
        <ele>148.6</ele>
        <time>2020-06-16T14:30:23Z</time>
      </trkpt>
      <trkpt lat="44.48487" lon="1.85008">
        <ele>148.2</ele>
        <time>2020-06-16T14:30:24Z</time>
      </trkpt>
      <trkpt lat="44.48483" lon="1.85008">
        <ele>147.8</ele>
        <time>2020-06-16T14:30:25Z</time>
      </trkpt>
      <trkpt lat="44.48478" lon="1.85008">
        <ele>147.4</ele>
        <time>2020-06-16T14:30:26Z</time>
      </trkpt>
      <trkpt lat="44.48465" lon="1.85003">
        <ele>147.4</ele>
        <time>2020-06-16T14:30:30Z</time>
      </trkpt>
      <trkpt lat="44.48462" lon="1.8498">
        <ele>147.4</ele>
        <time>2020-06-16T14:30:34Z</time>
      </trkpt>
      <trkpt lat="44.48456" lon="1.84944">
        <ele>147.4</ele>
        <time>2020-06-16T14:30:41Z</time>
      </trkpt>
      <trkpt lat="44.48444" lon="1.84905">
        <ele>147.4</ele>
        <time>2020-06-16T14:30:49Z</time>
      </trkpt>
      <trkpt lat="44.48439" lon="1.84881">
        <ele>147.4</ele>
        <time>2020-06-16T14:30:53Z</time>
      </trkpt>
      <trkpt lat="44.48438" lon="1.84875">
        <ele>146.8</ele>
        <time>2020-06-16T14:30:54Z</time>
      </trkpt>
      <trkpt lat="44.48436" lon="1.8487">
        <ele>146.4</ele>
        <time>2020-06-16T14:30:55Z</time>
      </trkpt>
      <trkpt lat="44.48435" lon="1.84864">
        <ele>145.8</ele>
        <time>2020-06-16T14:30:56Z</time>
      </trkpt>
      <trkpt lat="44.48434" lon="1.84858">
        <ele>145.2</ele>
        <time>2020-06-16T14:30:57Z</time>
      </trkpt>
      <trkpt lat="44.48433" lon="1.84852">
        <ele>144.8</ele>
        <time>2020-06-16T14:30:58Z</time>
      </trkpt>
      <trkpt lat="44.48431" lon="1.84846">
        <ele>144.8</ele>
        <time>2020-06-16T14:30:59Z</time>
      </trkpt>
      <trkpt lat="44.4842" lon="1.84803">
        <ele>144.8</ele>
        <time>2020-06-16T14:31:06Z</time>
      </trkpt>
      <trkpt lat="44.4841" lon="1.84764">
        <ele>144.8</ele>
        <time>2020-06-16T14:31:13Z</time>
      </trkpt>
      <trkpt lat="44.48403" lon="1.84742">
        <ele>144.8</ele>
        <time>2020-06-16T14:31:17Z</time>
      </trkpt>
      <trkpt lat="44.48402" lon="1.84737">
        <ele>144.8</ele>
        <time>2020-06-16T14:31:18Z</time>
      </trkpt>
      <trkpt lat="44.48395" lon="1.84702">
        <ele>144.8</ele>
        <time>2020-06-16T14:31:24Z</time>
      </trkpt>
      <trkpt lat="44.48387" lon="1.84668">
        <ele>144.8</ele>
        <time>2020-06-16T14:31:30Z</time>
      </trkpt>
      <trkpt lat="44.48379" lon="1.84633">
        <ele>144.8</ele>
        <time>2020-06-16T14:31:36Z</time>
      </trkpt>
      <trkpt lat="44.48376" lon="1.8462">
        <ele>144.8</ele>
        <time>2020-06-16T14:31:38Z</time>
      </trkpt>
      <trkpt lat="44.4837" lon="1.84596">
        <ele>144.8</ele>
        <time>2020-06-16T14:31:42Z</time>
      </trkpt>
      <trkpt lat="44.48367" lon="1.8455">
        <ele>144.8</ele>
        <time>2020-06-16T14:31:49Z</time>
      </trkpt>
      <trkpt lat="44.48364" lon="1.84518">
        <ele>145.2</ele>
        <time>2020-06-16T14:31:54Z</time>
      </trkpt>
      <trkpt lat="44.48363" lon="1.84511">
        <ele>145.6</ele>
        <time>2020-06-16T14:31:55Z</time>
      </trkpt>
      <trkpt lat="44.48362" lon="1.84506">
        <ele>146</ele>
        <time>2020-06-16T14:31:56Z</time>
      </trkpt>
      <trkpt lat="44.48361" lon="1.845">
        <ele>146.8</ele>
        <time>2020-06-16T14:31:57Z</time>
      </trkpt>
      <trkpt lat="44.48358" lon="1.84468">
        <ele>146.8</ele>
        <time>2020-06-16T14:32:02Z</time>
      </trkpt>
      <trkpt lat="44.48358" lon="1.84461">
        <ele>146.8</ele>
        <time>2020-06-16T14:32:03Z</time>
      </trkpt>
      <trkpt lat="44.48356" lon="1.84433">
        <ele>146.8</ele>
        <time>2020-06-16T14:32:08Z</time>
      </trkpt>
      <trkpt lat="44.4835" lon="1.84402">
        <ele>146.8</ele>
        <time>2020-06-16T14:32:14Z</time>
      </trkpt>
      <trkpt lat="44.48339" lon="1.84371">
        <ele>146.8</ele>
        <time>2020-06-16T14:32:21Z</time>
      </trkpt>
      <trkpt lat="44.48339" lon="1.84368">
        <ele>146.8</ele>
        <time>2020-06-16T14:32:22Z</time>
      </trkpt>
      <trkpt lat="44.48342" lon="1.84362">
        <ele>146.8</ele>
        <time>2020-06-16T14:32:24Z</time>
      </trkpt>
      <trkpt lat="44.48351" lon="1.84356">
        <ele>146.8</ele>
        <time>2020-06-16T14:32:27Z</time>
      </trkpt>
      <trkpt lat="44.48361" lon="1.8435">
        <ele>146.8</ele>
        <time>2020-06-16T14:32:30Z</time>
      </trkpt>
      <trkpt lat="44.4838" lon="1.84335">
        <ele>146.8</ele>
        <time>2020-06-16T14:32:36Z</time>
      </trkpt>
      <trkpt lat="44.48401" lon="1.84325">
        <ele>146.8</ele>
        <time>2020-06-16T14:32:43Z</time>
      </trkpt>
      <trkpt lat="44.48417" lon="1.84318">
        <ele>146.8</ele>
        <time>2020-06-16T14:32:49Z</time>
      </trkpt>
      <trkpt lat="44.48445" lon="1.84309">
        <ele>147.2</ele>
        <time>2020-06-16T14:32:58Z</time>
      </trkpt>
      <trkpt lat="44.48448" lon="1.84308">
        <ele>147.6</ele>
        <time>2020-06-16T14:32:59Z</time>
      </trkpt>
      <trkpt lat="44.48451" lon="1.84306">
        <ele>148</ele>
        <time>2020-06-16T14:33:00Z</time>
      </trkpt>
      <trkpt lat="44.48454" lon="1.84305">
        <ele>148.4</ele>
        <time>2020-06-16T14:33:01Z</time>
      </trkpt>
      <trkpt lat="44.48456" lon="1.84304">
        <ele>148.8</ele>
        <time>2020-06-16T14:33:02Z</time>
      </trkpt>
      <trkpt lat="44.48465" lon="1.84304">
        <ele>148.8</ele>
        <time>2020-06-16T14:33:05Z</time>
      </trkpt>
      <trkpt lat="44.48467" lon="1.84305">
        <ele>148.8</ele>
        <time>2020-06-16T14:33:06Z</time>
      </trkpt>
      <trkpt lat="44.48472" lon="1.84309">
        <ele>148.8</ele>
        <time>2020-06-16T14:33:09Z</time>
      </trkpt>
      <trkpt lat="44.48481" lon="1.84313">
        <ele>148.8</ele>
        <time>2020-06-16T14:33:13Z</time>
      </trkpt>
      <trkpt lat="44.48496" lon="1.84311">
        <ele>148.8</ele>
        <time>2020-06-16T14:33:19Z</time>
      </trkpt>
      <trkpt lat="44.48499" lon="1.8431">
        <ele>149.4</ele>
        <time>2020-06-16T14:33:20Z</time>
      </trkpt>
      <trkpt lat="44.48502" lon="1.84309">
        <ele>149.8</ele>
        <time>2020-06-16T14:33:21Z</time>
      </trkpt>
      <trkpt lat="44.48505" lon="1.84307">
        <ele>150.2</ele>
        <time>2020-06-16T14:33:22Z</time>
      </trkpt>
      <trkpt lat="44.48507" lon="1.84305">
        <ele>150.6</ele>
        <time>2020-06-16T14:33:23Z</time>
      </trkpt>
      <trkpt lat="44.4851" lon="1.84303">
        <ele>151.2</ele>
        <time>2020-06-16T14:33:24Z</time>
      </trkpt>
      <trkpt lat="44.48512" lon="1.843">
        <ele>151.2</ele>
        <time>2020-06-16T14:33:25Z</time>
      </trkpt>
      <trkpt lat="44.48521" lon="1.84284">
        <ele>151.2</ele>
        <time>2020-06-16T14:33:30Z</time>
      </trkpt>
      <trkpt lat="44.48525" lon="1.84279">
        <ele>151.6</ele>
        <time>2020-06-16T14:33:32Z</time>
      </trkpt>
      <trkpt lat="44.48527" lon="1.84277">
        <ele>152</ele>
        <time>2020-06-16T14:33:33Z</time>
      </trkpt>
      <trkpt lat="44.48528" lon="1.84275">
        <ele>152.4</ele>
        <time>2020-06-16T14:33:34Z</time>
      </trkpt>
      <trkpt lat="44.4853" lon="1.84274">
        <ele>152.8</ele>
        <time>2020-06-16T14:33:35Z</time>
      </trkpt>
      <trkpt lat="44.48532" lon="1.84273">
        <ele>153.2</ele>
        <time>2020-06-16T14:33:36Z</time>
      </trkpt>
      <trkpt lat="44.48546" lon="1.84264">
        <ele>153.2</ele>
        <time>2020-06-16T14:33:41Z</time>
      </trkpt>
      <trkpt lat="44.48548" lon="1.84263">
        <ele>153.2</ele>
        <time>2020-06-16T14:33:42Z</time>
      </trkpt>
      <trkpt lat="44.4855" lon="1.84263">
        <ele>153.6</ele>
        <time>2020-06-16T14:33:43Z</time>
      </trkpt>
      <trkpt lat="44.48552" lon="1.84264">
        <ele>154.2</ele>
        <time>2020-06-16T14:33:44Z</time>
      </trkpt>
      <trkpt lat="44.48555" lon="1.84264">
        <ele>154.6</ele>
        <time>2020-06-16T14:33:45Z</time>
      </trkpt>
      <trkpt lat="44.48557" lon="1.84264">
        <ele>155</ele>
        <time>2020-06-16T14:33:46Z</time>
      </trkpt>
      <trkpt lat="44.48559" lon="1.84263">
        <ele>155.4</ele>
        <time>2020-06-16T14:33:47Z</time>
      </trkpt>
      <trkpt lat="44.48572" lon="1.84256">
        <ele>155.4</ele>
        <time>2020-06-16T14:33:53Z</time>
      </trkpt>
      <trkpt lat="44.4858" lon="1.84246">
        <ele>155.4</ele>
        <time>2020-06-16T14:33:57Z</time>
      </trkpt>
      <trkpt lat="44.48585" lon="1.84244">
        <ele>155.4</ele>
        <time>2020-06-16T14:33:59Z</time>
      </trkpt>
      <trkpt lat="44.48594" lon="1.84239">
        <ele>155.4</ele>
        <time>2020-06-16T14:34:02Z</time>
      </trkpt>
      <trkpt lat="44.48617" lon="1.8423">
        <ele>155.4</ele>
        <time>2020-06-16T14:34:08Z</time>
      </trkpt>
      <trkpt lat="44.48625" lon="1.84219">
        <ele>154.8</ele>
        <time>2020-06-16T14:34:11Z</time>
      </trkpt>
      <trkpt lat="44.48628" lon="1.84216">
        <ele>154.4</ele>
        <time>2020-06-16T14:34:12Z</time>
      </trkpt>
      <trkpt lat="44.48631" lon="1.84213">
        <ele>154</ele>
        <time>2020-06-16T14:34:13Z</time>
      </trkpt>
      <trkpt lat="44.48635" lon="1.84213">
        <ele>153.4</ele>
        <time>2020-06-16T14:34:14Z</time>
      </trkpt>
      <trkpt lat="44.48637" lon="1.84216">
        <ele>153</ele>
        <time>2020-06-16T14:34:15Z</time>
      </trkpt>
      <trkpt lat="44.4864" lon="1.8422">
        <ele>153</ele>
        <time>2020-06-16T14:34:16Z</time>
      </trkpt>
      <trkpt lat="44.48644" lon="1.8423">
        <ele>153</ele>
        <time>2020-06-16T14:34:18Z</time>
      </trkpt>
      <trkpt lat="44.48651" lon="1.84249">
        <ele>153</ele>
        <time>2020-06-16T14:34:22Z</time>
      </trkpt>
      <trkpt lat="44.48655" lon="1.84282">
        <ele>152.6</ele>
        <time>2020-06-16T14:34:28Z</time>
      </trkpt>
      <trkpt lat="44.48656" lon="1.84287">
        <ele>152.2</ele>
        <time>2020-06-16T14:34:29Z</time>
      </trkpt>
      <trkpt lat="44.48656" lon="1.84292">
        <ele>151.8</ele>
        <time>2020-06-16T14:34:30Z</time>
      </trkpt>
      <trkpt lat="44.48657" lon="1.84296">
        <ele>151.4</ele>
        <time>2020-06-16T14:34:31Z</time>
      </trkpt>
      <trkpt lat="44.48657" lon="1.84298">
        <ele>151</ele>
        <time>2020-06-16T14:34:32Z</time>
      </trkpt>
      <trkpt lat="44.48657" lon="1.843">
        <ele>151</ele>
        <time>2020-06-16T14:34:33Z</time>
      </trkpt>
      <trkpt lat="44.48654" lon="1.84312">
        <ele>151</ele>
        <time>2020-06-16T14:34:37Z</time>
      </trkpt>
      <trkpt lat="44.48654" lon="1.84315">
        <ele>151</ele>
        <time>2020-06-16T14:34:38Z</time>
      </trkpt>
      <trkpt lat="44.48654" lon="1.84318">
        <ele>151</ele>
        <time>2020-06-16T14:34:39Z</time>
      </trkpt>
    </trkseg>
  </trk>
</gpx>